GFSNW_prec_cthk_000.txt.gz
RH
61 64 66 75 87 97 89 84 83 91 95 98 98 95 80 73 65 62 63 61 59 63 70 77 78 77 62 66 72 79 82 88 87 82 80 79 74 75 80 83 73 78 78 46
55 59 74 73 91 98 92 98 97 97 97 97 89 87 83 73 66 65 62 64 64 67 73 78 82 70 61 70 74 82 88 95 97 95 93 92 93 87 82 81 86 75 75 47
57 49 68 76 92 93 94 98 98 98 99 91 87 84 83 69 68 69 71 73 70 75 79 84 77 70 69 73 78 86 91 98 97 91 95 97 98 93 90 87 86 64 60 54
61 50 74 78 90 95 98 97 98 90 90 94 88 83 78 75 79 79 78 78 75 82 87 87 79 71 72 80 85 93 97 96 98 96 93 98 98 95 81 80 71 70 47 58
51 55 77 90 93 94 98 97 97 90 89 93 90 85 85 86 87 91 83 80 82 85 92 85 73 69 72 78 85 94 97 97 98 97 98 97 90 84 78 70 65 65 63 63
48 55 78 95 91 93 97 98 97 87 93 93 83 75 83 86 85 84 85 85 86 91 92 88 78 70 69 77 91 97 98 98 98 94 95 91 84 71 73 69 68 64 74 70
51 46 75 94 95 95 97 96 91 89 93 88 83 86 86 84 84 84 88 87 87 90 92 87 79 67 65 71 77 90 97 99 99 96 98 98 91 84 74 66 67 69 67 76
54 43 66 86 94 97 97 98 98 91 92 89 87 90 90 88 88 89 88 83 79 85 88 92 81 72 66 67 72 84 91 99 98 98 98 88 88 92 81 76 73 72 74 72
48 44 58 76 89 92 98 97 98 98 95 89 85 88 92 94 91 90 93 95 80 83 98 96 81 75 70 70 70 77 92 92 97 94 96 77 76 89 88 83 90 72 72 72
41 44 54 72 83 93 95 98 98 99 96 90 86 88 90 87 85 89 96 88 85 93 98 97 92 80 70 73 73 75 83 90 90 86 84 77 68 74 77 80 71 68 70 69
35 32 49 68 80 91 93 98 98 98 96 93 92 92 94 87 79 88 97 90 94 98 97 98 96 82 74 75 70 74 76 79 80 82 83 73 66 70 72 63 59 67 72 72
34 33 43 61 76 87 90 95 97 98 98 94 89 94 89 88 89 95 91 88 96 96 98 96 95 90 82 77 77 73 76 70 71 74 70 68 66 66 62 58 58 59 64 69
33 32 44 50 66 79 92 93 93 94 90 91 90 87 87 89 90 89 91 88 96 97 98 98 91 92 85 85 79 78 76 75 77 70 66 69 70 68 62 62 61 62 63 63
31 33 35 45 58 72 86 89 95 96 98 94 88 84 85 84 87 88 89 89 97 98 98 97 92 89 81 85 84 83 80 79 76 74 71 71 73 72 67 65 65 65 66 67
19 23 33 42 54 70 82 87 93 95 94 89 84 83 81 85 89 88 87 92 97 98 98 96 92 89 89 84 82 78 77 77 80 77 73 72 72 71 69 69 70 70 71 74
18 19 28 40 49 72 84 91 92 90 89 87 84 83 80 78 78 82 86 98 98 98 97 97 95 88 82 84 82 73 72 72 76 77 75 74 73 72 70 70 71 70 71 75
21 20 23 36 43 69 84 88 88 90 86 80 85 78 78 78 82 84 89 96 98 98 97 97 95 94 90 87 81 78 73 72 70 74 73 74 76 74 73 69 69 71 74 74
28 26 21 30 42 63 78 86 89 86 84 83 85 80 75 75 77 85 88 94 95 98 98 98 98 96 92 90 80 73 71 69 68 72 72 72 70 71 73 73 71 72 73 73
35 37 36 46 52 73 86 92 93 90 90 85 75 74 78 76 76 78 89 92 96 98 97 97 98 95 92 80 77 72 72 71 69 69 70 72 73 74 77 76 71 73 78 76
41 45 43 57 63 86 95 99 95 92 91 87 83 76 76 78 79 76 83 90 95 97 97 96 93 86 80 76 74 72 67 64 72 75 77 77 73 74 79 78 72 72 70 66
48 50 57 67 83 96 97 99 95 90 87 81 81 77 76 79 78 78 76 87 91 92 90 96 91 84 77 72 71 65 62 61 61 73 75 74 72 68 64 67 68 67 65 64
53 57 72 89 96 98 98 99 91 85 82 77 78 81 78 79 79 78 79 82 88 86 87 88 84 72 71 70 67 62 57 59 58 57 57 58 60 63 66 67 69 70 68 66
57 71 81 97 98 98 98 92 87 83 77 77 81 83 81 80 78 76 74 78 79 79 85 80 71 66 64 68 65 63 60 57 58 58 59 60 62 63 64 64 65 65 65 61
66 80 84 98 97 98 97 93 89 87 85 85 85 85 85 80 81 80 76 73 74 76 76 67 58 55 61 66 67 63 63 61 61 61 60 61 65 68 68 68 68 68 67 62
66 84 93 97 97 97 91 86 85 85 83 85 87 89 88 87 85 78 75 72 73 68 63 54 49 48 50 60 65 67 68 67 65 64 65 67 68 70 70 73 74 71 66 58
57 76 85 87 87 88 87 89 91 88 90 92 90 93 92 89 86 85 78 74 64 56 56 49 48 47 47 49 55 62 66 68 70 71 72 73 75 76 76 77 75 70 63 54
46 68 83 85 86 87 84 88 91 94 92 95 91 88 83 85 85 79 72 68 54 53 55 53 50 53 53 51 51 54 58 63 67 69 70 72 72 73 76 76 73 69 62 53

GFSNW_prec_cthk_003.txt.gz
RH
65 68 65 56 74 89 99 99 92 86 90 98 97 97 84 78 80 76 69 57 56 60 60 66 66 68 65 64 65 74 74 82 83 72 71 77 81 83 88 93 86 85 79 48
67 56 51 58 66 90 90 96 97 91 90 92 94 89 83 81 86 76 68 60 58 61 63 69 70 72 70 68 68 75 78 87 89 81 84 85 96 91 90 88 91 81 85 53
69 40 46 59 73 91 98 99 99 96 94 94 92 89 89 87 87 78 64 63 60 65 71 68 73 78 70 68 71 76 84 90 87 83 89 98 98 92 94 98 92 77 66 59
69 54 61 70 82 95 99 98 96 90 95 97 87 87 87 92 91 73 68 71 71 71 77 78 80 78 74 71 71 81 88 91 91 93 92 96 97 92 88 89 78 78 58 61
71 53 67 86 95 98 99 99 96 92 93 96 87 86 85 84 78 74 78 79 78 78 82 74 75 76 70 66 75 89 94 94 95 93 94 96 94 85 78 72 72 68 64 57
60 50 68 86 87 90 96 99 95 89 93 95 87 86 82 76 80 85 89 84 83 85 80 77 81 77 72 72 78 85 93 95 94 89 93 98 96 85 77 72 64 65 74 65
58 47 60 75 85 90 92 97 99 94 95 90 90 84 82 87 84 87 90 86 86 82 83 87 88 80 73 74 73 82 93 97 97 93 97 98 97 88 80 71 60 64 69 69
54 51 48 68 84 95 97 99 99 95 92 88 84 87 85 79 83 85 87 88 87 82 85 88 90 83 75 68 68 77 86 96 96 98 98 93 78 85 84 71 70 69 76 79
40 48 45 51 76 87 97 96 98 97 93 85 82 84 89 91 91 90 91 93 93 86 85 95 95 86 69 72 69 75 84 92 95 97 96 93 75 88 80 80 81 74 73 72
33 44 47 47 64 82 90 92 97 95 94 88 82 82 87 93 89 93 91 95 90 86 91 97 98 90 80 74 68 75 80 85 89 90 92 83 75 80 83 79 78 74 72 72
26 38 44 50 52 72 90 92 95 97 95 94 86 79 80 86 83 81 87 89 87 90 95 98 98 93 84 75 66 71 72 80 81 82 84 77 74 78 78 70 71 73 73 74
23 27 40 44 47 62 80 91 94 95 97 96 91 82 82 88 78 78 87 88 86 91 97 98 97 95 83 77 74 69 75 68 69 70 67 65 69 70 67 64 64 67 74 77
11 14 26 41 47 60 74 89 94 96 96 91 90 86 86 85 84 86 90 88 90 93 97 98 98 95 84 82 76 74 72 72 74 70 64 66 69 70 66 65 65 65 70 73
15 14 16 29 49 58 68 76 86 96 99 96 86 84 81 80 83 87 88 88 94 98 98 97 97 92 83 82 76 80 79 77 73 71 68 66 66 69 66 66 68 69 72 71
14 17 17 23 44 54 65 72 87 95 94 89 89 84 81 81 80 85 87 86 95 98 98 98 96 92 87 81 80 79 75 72 74 74 69 70 68 70 68 70 69 68 71 73
15 20 29 27 41 58 67 92 97 96 93 91 86 82 83 81 81 86 89 84 97 97 97 97 94 90 87 87 80 73 67 69 72 74 74 72 72 71 70 70 69 68 69 72
16 25 30 25 38 59 71 92 94 96 94 90 85 79 80 82 80 81 82 88 94 96 98 96 95 97 92 86 81 75 71 72 73 74 76 75 74 73 71 70 70 69 71 74
12 26 31 28 34 58 71 82 95 96 95 91 88 79 77 77 77 76 82 85 90 92 96 98 96 94 90 89 81 74 74 71 72 72 73 76 76 77 76 75 72 70 72 75
26 38 45 43 47 65 80 92 99 98 95 87 79 79 76 75 76 75 82 82 87 90 96 96 95 93 91 80 80 77 73 71 72 72 72 73 75 76 77 77 76 73 74 70
44 51 46 56 52 73 86 98 99 99 96 85 79 74 76 73 76 78 76 77 84 88 90 93 93 86 78 76 79 76 73 75 75 76 76 75 77 78 78 77 78 74 74 83
50 48 58 53 56 85 98 99 99 97 91 83 82 79 77 75 76 80 78 76 81 83 84 88 88 84 74 73 74 76 71 68 67 77 80 79 80 79 77 81 73 70 72 66
58 59 57 57 86 97 98 99 99 95 90 82 83 85 81 79 77 78 80 77 77 79 79 85 83 73 72 77 76 74 68 65 64 67 75 76 76 73 71 67 68 69 70 71
56 69 77 84 95 98 97 97 97 91 83 80 84 88 84 85 83 82 81 77 74 73 75 73 67 65 67 71 75 74 70 64 64 61 61 63 65 66 66 67 66 68 70 70
55 77 81 92 96 97 96 95 93 91 87 82 84 86 90 87 86 84 81 77 73 70 68 64 57 54 62 68 73 74 73 65 63 64 63 63 66 69 71 70 71 72 71 67
51 69 84 86 88 94 94 90 89 91 89 86 85 88 91 90 86 86 83 79 70 64 61 55 49 47 52 61 71 74 72 70 68 65 65 66 66 68 71 71 71 72 72 68
44 59 74 77 80 81 80 84 86 86 86 86 88 91 90 86 82 86 81 77 70 55 53 47 47 47 49 52 60 68 73 74 74 73 72 71 72 73 75 76 77 78 73 66
40 49 57 71 71 71 74 80 89 91 89 88 89 88 84 83 82 79 77 71 66 63 55 52 51 51 53 54 54 58 63 68 72 73 73 75 75 76 77 78 79 77 72 66

GFSNW_prec_cthk_006.txt.gz
RH
57 47 44 53 58 73 87 97 86 69 84 98 98 98 97 92 86 81 74 69 64 57 56 58 57 56 51 51 59 69 66 70 74 67 62 69 73 81 86 96 93 94 81 51
62 46 35 50 61 73 87 97 79 66 91 99 98 97 97 94 89 85 77 73 66 59 58 59 54 55 56 58 64 66 70 80 78 67 75 77 84 81 86 97 97 87 90 47
65 54 44 62 73 75 89 97 90 73 91 92 91 87 90 90 88 82 73 69 67 63 58 55 59 62 62 64 63 67 70 73 77 72 78 80 94 86 87 89 84 75 74 61
59 51 51 75 85 94 98 94 81 74 88 86 87 85 83 85 81 77 69 65 60 56 57 61 64 67 68 66 68 69 76 84 84 81 84 87 94 93 88 81 69 76 52 61
44 48 56 73 88 96 98 89 81 81 87 85 81 81 81 83 85 79 69 65 66 63 62 63 70 73 75 70 69 77 81 84 91 92 89 88 95 91 83 74 71 62 59 55
42 48 47 59 82 93 96 86 86 91 93 87 81 85 86 81 75 76 72 71 75 75 75 75 77 75 76 73 75 78 82 89 93 88 83 83 92 91 81 76 68 66 71 63
34 45 42 53 70 80 89 87 88 89 93 89 83 81 80 72 73 82 82 83 83 83 81 80 81 80 83 78 71 73 82 93 97 95 88 92 86 85 85 78 71 67 72 68
29 39 40 45 60 76 85 86 88 92 91 87 82 77 79 83 83 83 87 89 88 82 78 80 83 88 77 69 69 72 81 90 96 97 97 81 78 82 85 84 77 74 81 82
19 32 36 43 46 65 81 85 85 91 92 87 83 81 81 78 77 84 88 91 91 86 81 84 92 82 69 64 71 74 79 89 94 94 96 87 79 81 87 90 81 78 81 78
18 24 34 38 39 54 75 83 87 93 89 80 80 81 83 87 88 94 97 97 96 92 87 91 92 85 76 75 67 72 79 88 89 91 90 77 77 78 85 77 81 77 76 77
10 14 19 31 35 43 63 79 85 87 84 82 80 79 80 90 85 84 90 93 92 90 92 90 90 87 78 80 69 67 69 79 83 80 80 79 69 75 73 72 73 74 83 85
13 14 14 23 37 42 53 76 81 86 87 86 83 81 78 81 79 81 82 89 88 89 92 92 93 89 81 79 72 70 72 68 69 67 63 62 67 68 68 68 69 73 77 84
12 15 14 15 29 44 49 65 81 86 88 90 89 84 81 80 80 78 81 94 89 91 91 95 94 92 89 81 76 74 73 72 75 70 65 68 67 68 67 67 69 70 79 81
21 17 17 19 19 37 52 62 77 84 87 91 84 82 83 84 85 83 89 93 91 91 94 95 92 92 85 83 81 77 78 78 72 68 65 67 66 68 68 68 71 73 76 76
21 19 19 22 27 29 46 56 70 80 89 88 87 84 82 82 81 84 89 91 91 90 93 94 94 88 89 84 83 74 73 72 68 66 68 69 66 71 69 69 71 72 74 77
21 21 20 27 30 25 47 80 87 87 90 91 90 88 87 86 85 87 89 94 90 86 93 93 90 92 92 87 78 68 67 65 67 68 69 71 70 71 70 70 69 69 71 74
20 21 30 34 30 26 55 86 88 92 94 97 91 88 83 87 86 86 87 87 88 87 90 92 95 95 95 91 78 71 69 68 69 70 72 75 72 74 71 70 69 71 71 77
19 38 41 42 34 25 59 79 91 96 97 95 92 83 80 81 85 82 86 87 86 86 90 93 97 96 93 87 77 75 71 69 71 71 74 76 74 77 76 74 73 74 72 76
36 39 49 52 40 34 74 93 97 98 96 92 92 84 79 78 81 79 81 78 80 80 87 94 97 94 89 80 76 76 74 72 70 70 72 73 76 78 78 77 76 75 75 75
40 39 50 57 37 55 92 97 98 99 97 95 92 83 79 75 75 76 72 74 78 79 80 90 91 89 80 74 77 79 76 75 72 73 73 74 74 75 77 77 76 76 74 69
46 43 47 39 45 96 98 98 98 98 96 91 90 78 76 74 75 76 75 76 78 77 78 86 85 79 77 73 73 74 74 73 74 77 77 75 74 74 77 78 77 76 74 78
47 41 44 63 95 98 97 98 98 95 92 91 87 80 79 79 77 75 76 78 77 75 74 80 74 68 70 72 73 74 73 72 70 74 80 81 80 80 82 77 78 70 70 68
45 53 67 86 94 95 96 97 98 93 89 89 86 85 83 81 80 81 80 80 75 72 73 68 59 59 65 69 78 78 72 67 65 65 72 77 79 80 76 73 71 67 68 68
47 56 68 81 84 87 94 92 88 88 91 91 86 85 84 83 84 84 83 79 77 77 71 60 49 50 53 64 72 78 78 70 66 64 64 66 70 71 70 67 67 68 69 75
44 56 65 73 80 86 84 82 84 87 90 91 90 88 86 88 86 83 82 83 79 70 62 54 46 43 47 54 68 76 78 76 68 66 66 66 67 70 70 71 71 71 73 72
40 49 60 66 70 72 73 79 86 89 90 91 92 93 91 87 84 85 82 82 78 69 65 52 45 46 48 50 56 68 76 79 75 71 70 70 72 71 70 71 74 74 76 76
39 44 47 57 63 65 65 70 77 88 90 93 94 93 90 88 86 84 80 82 77 74 68 61 55 53 51 52 54 55 62 69 74 78 77 77 77 77 77 77 77 78 79 76

GFSNW_prec_cthk_009.txt.gz
RH
55 55 38 60 66 73 80 85 84 88 62 82 94 97 99 93 82 83 78 77 68 56 53 55 56 56 50 50 51 55 56 61 63 59 58 62 64 73 77 92 81 87 80 50
47 43 44 61 74 86 92 74 77 72 68 81 93 97 95 86 92 92 86 78 73 64 56 58 53 51 52 49 52 57 64 67 70 70 67 67 70 72 75 85 92 83 89 51
39 37 52 67 78 90 97 69 71 80 86 91 87 98 97 91 93 88 83 78 71 62 59 56 53 54 55 54 57 65 63 66 71 65 69 70 87 84 86 94 92 73 64 57
42 39 48 70 84 88 85 75 62 88 91 89 93 93 92 94 91 85 77 72 70 68 65 58 56 56 58 60 64 63 67 80 77 74 75 82 86 87 86 93 87 85 50 65
35 42 40 59 75 86 77 63 76 87 86 85 86 83 88 88 86 79 72 65 61 61 61 62 64 62 62 64 68 69 75 82 84 84 81 83 86 81 84 82 77 76 75 68
28 38 38 46 69 76 62 71 82 88 86 79 80 80 79 81 81 78 71 65 67 65 66 65 63 65 65 68 71 74 82 87 90 83 76 78 86 84 86 83 82 79 75 76
21 30 38 36 53 68 61 68 76 80 84 74 72 75 77 76 76 76 74 70 73 74 73 70 70 72 74 76 75 78 82 87 94 93 86 89 76 77 82 86 84 80 82 76
16 22 32 36 38 57 63 61 68 72 74 73 72 74 80 74 71 75 81 78 79 77 75 73 73 81 81 69 70 77 76 86 94 95 87 73 80 77 85 94 83 84 91 84
9 12 16 29 31 42 62 66 68 72 77 69 68 72 75 76 76 78 80 83 83 81 78 78 84 85 71 70 76 75 74 80 92 88 94 86 77 75 77 83 82 82 86 88
13 8 11 11 27 33 49 69 68 75 74 75 72 71 75 75 76 88 90 93 93 87 83 84 90 90 78 74 73 73 80 85 87 89 93 77 73 72 75 76 75 79 87 89
16 15 15 15 17 30 38 62 69 72 76 72 75 77 78 81 85 90 92 90 93 90 88 90 92 93 80 76 72 75 69 74 79 83 86 81 68 69 72 69 71 77 83 87
21 19 19 16 16 19 37 53 71 75 79 75 75 77 78 81 87 88 85 89 90 89 91 91 91 92 83 75 75 72 71 60 66 65 66 64 69 70 67 69 68 72 82 83
27 23 21 21 18 17 30 50 64 77 81 78 78 77 78 82 82 83 83 84 91 90 90 95 94 92 89 89 75 74 70 65 65 70 65 67 69 69 68 69 69 73 80 81
27 23 25 30 20 23 24 49 62 81 84 83 82 81 79 79 81 79 80 82 91 88 91 95 95 94 88 83 80 77 76 73 72 66 64 66 69 69 69 69 72 76 80 81
27 22 27 32 25 27 25 42 60 75 89 86 86 87 82 83 85 84 81 84 91 91 92 91 93 93 91 83 81 73 70 72 71 67 67 66 68 70 70 69 71 73 75 76
25 21 30 33 32 43 32 39 68 81 85 90 87 87 87 86 84 83 83 88 90 95 89 90 91 88 92 90 80 67 69 67 64 66 69 70 72 71 72 70 70 71 70 73
23 33 45 43 45 46 35 50 86 93 95 95 93 87 84 87 86 85 86 87 92 91 90 90 90 92 94 87 77 72 70 68 67 67 71 72 76 74 75 71 72 73 73 72
25 41 40 46 50 43 29 58 93 98 98 97 94 88 85 84 87 88 85 88 87 89 87 86 92 95 91 85 74 73 71 71 70 71 73 76 80 77 78 75 74 75 76 75
36 44 48 61 51 34 37 72 93 98 98 94 94 91 87 84 84 86 86 82 83 79 81 82 86 89 89 78 76 75 74 74 73 73 74 76 80 82 80 79 79 79 78 76
40 42 47 51 34 29 71 96 98 98 96 96 95 85 80 77 76 77 78 77 76 76 72 76 83 80 77 74 72 75 80 79 78 76 75 75 79 82 82 81 79 80 78 75
38 35 36 34 48 79 98 98 98 98 97 95 94 88 83 76 75 75 72 75 75 77 73 74 74 68 70 78 75 75 80 82 81 80 78 78 77 78 79 81 81 81 79 75
45 56 65 75 89 98 98 98 98 96 97 95 94 89 83 82 77 75 75 76 75 75 69 74 71 57 64 71 74 74 76 78 77 78 83 84 84 82 80 82 83 82 78 73
54 60 69 79 87 93 91 90 89 90 91 94 91 91 84 80 79 78 75 77 75 69 71 68 60 54 54 61 71 80 80 79 75 72 76 84 86 85 82 84 84 81 76 73
51 56 66 74 77 77 81 82 84 84 88 90 89 88 83 81 82 80 83 77 76 77 76 69 61 55 50 53 63 78 86 80 74 69 70 77 82 86 86 83 78 73 72 69
47 55 63 70 74 78 78 77 79 82 88 91 91 87 85 86 86 80 82 83 79 72 69 69 62 53 53 54 59 75 84 87 83 73 70 71 74 76 78 78 75 72 71 73
40 51 58 63 71 72 71 72 77 80 84 90 92 94 91 89 86 85 83 82 79 74 73 68 59 55 54 55 56 60 75 83 86 80 77 75 75 74 75 76 72 72 74 76
43 44 48 56 61 65 64 66 71 78 84 89 94 94 91 92 89 83 79 82 79 79 76 72 67 63 59 57 58 61 61 69 77 81 82 80 78 78 78 77 75 74 75 78

GFSNW_prec_cthk_012.txt.gz
RH
35 40 50 67 87 97 93 71 77 69 73 85 91 97 96 98 90 86 77 74 63 62 59 65 63 60 57 54 56 56 55 59 68 61 53 56 60 68 70 84 78 82 79 59
34 38 48 72 89 96 85 66 69 60 71 89 87 95 97 94 86 87 80 78 72 57 59 64 60 59 55 56 55 55 54 65 70 72 66 65 68 68 72 78 80 82 89 59
31 35 43 68 82 83 54 61 58 61 71 80 89 97 97 97 93 85 80 75 72 67 63 62 61 60 57 52 53 54 57 63 65 69 71 69 82 78 78 83 90 80 74 63
26 32 41 61 70 71 59 64 70 74 77 86 87 95 96 95 93 85 78 77 74 69 66 61 62 57 58 56 57 61 63 71 67 72 68 70 77 81 82 89 90 91 73 80
19 24 41 50 58 57 67 75 72 76 79 88 96 91 95 88 83 80 74 72 70 69 69 65 60 57 58 60 62 63 64 75 81 81 73 76 83 80 78 80 84 91 89 87
16 18 34 39 52 60 68 71 74 78 71 74 75 78 77 81 78 78 74 72 67 68 72 67 65 65 65 66 64 68 76 84 85 83 73 78 86 83 88 88 90 91 93 90
16 6 14 31 38 54 61 68 72 72 67 65 65 67 69 73 76 76 71 64 69 71 65 67 68 69 69 66 67 73 78 84 88 91 86 88 75 77 78 82 84 83 85 85
20 14 5 14 32 39 56 58 64 66 66 58 58 64 65 66 68 70 73 70 72 73 70 70 69 74 75 70 74 76 78 86 92 93 90 75 76 77 75 82 83 77 87 85
30 24 12 6 12 30 43 61 61 66 70 60 63 64 66 71 69 72 77 77 76 75 75 72 76 81 73 80 74 74 81 84 85 86 91 85 75 74 73 79 85 75 87 91
35 31 26 12 12 12 30 57 65 67 70 69 66 64 66 67 72 78 83 85 85 82 79 78 83 81 75 78 80 83 83 84 84 88 90 78 68 70 72 80 75 73 81 87
37 33 31 24 16 16 13 34 63 68 69 72 73 74 71 72 74 83 88 87 88 88 85 83 85 86 81 77 74 79 79 79 81 85 88 83 66 69 73 70 73 72 80 84
38 35 34 33 23 19 18 19 40 67 71 72 76 75 76 80 82 87 86 90 87 89 88 88 87 88 85 79 80 74 77 70 71 70 69 63 64 66 69 69 72 71 79 84
40 36 38 35 30 27 21 24 28 58 76 75 76 74 76 80 81 87 86 84 84 89 90 91 94 91 84 85 78 77 73 69 71 66 67 66 64 66 67 67 70 71 79 83
40 37 36 35 31 34 27 25 26 56 84 85 84 79 81 79 82 83 82 83 82 88 89 91 92 92 85 85 82 81 77 75 72 70 66 64 66 66 66 66 71 75 78 83
41 37 38 35 40 38 30 23 26 45 94 90 88 83 81 82 82 85 81 82 81 87 89 89 89 89 88 83 80 74 72 74 75 76 68 66 64 64 67 67 70 75 79 77
42 37 41 48 46 45 37 38 28 41 87 96 94 90 88 86 84 85 86 83 78 83 87 89 87 86 89 88 83 75 69 70 70 70 66 67 67 67 70 68 71 73 74 74
41 34 47 44 45 47 50 44 58 73 95 98 97 93 90 93 91 90 89 85 85 83 87 87 87 88 92 90 86 75 73 72 70 70 68 69 71 73 73 72 73 73 75 76
35 44 44 47 44 44 45 40 59 97 98 98 98 93 94 93 93 92 89 87 86 87 86 86 85 85 88 88 78 76 73 68 70 71 72 72 74 77 78 77 75 77 77 78
39 40 44 48 40 43 36 49 84 97 98 98 97 94 94 89 91 88 90 89 89 86 84 78 79 84 93 83 86 85 83 80 77 75 75 75 75 78 82 81 79 79 80 82
43 37 39 37 37 41 56 84 98 98 98 98 97 93 92 90 86 84 86 87 84 82 76 77 78 80 82 89 89 86 83 82 84 81 79 78 78 79 83 85 82 82 84 81
47 43 37 49 62 74 85 98 98 98 98 97 97 92 89 88 83 81 80 83 82 80 78 76 80 78 81 82 83 83 77 81 85 85 84 82 79 79 81 86 86 85 84 82
59 60 65 70 80 85 93 97 96 94 93 93 96 93 88 83 81 79 78 76 77 78 75 77 76 76 72 66 63 76 83 82 84 83 84 86 85 85 85 85 86 84 86 84
53 60 64 69 76 81 83 84 85 88 89 92 93 93 88 85 84 83 79 77 76 70 77 74 74 71 62 56 62 72 86 86 84 83 81 81 88 93 92 88 86 85 90 81
47 62 65 69 72 75 79 80 84 85 89 94 93 93 91 87 86 83 79 76 74 74 77 74 75 66 59 58 62 72 85 91 85 83 81 77 86 94 94 90 86 91 90 77
41 56 60 62 68 75 80 80 82 83 84 88 92 91 88 87 86 80 80 77 74 71 75 77 71 62 60 59 58 66 81 86 91 89 82 79 81 87 92 93 92 88 78 77
48 48 54 58 66 71 73 75 79 82 83 86 87 91 89 86 84 83 77 75 73 76 75 73 70 65 65 65 62 60 64 77 86 88 84 82 80 80 81 84 86 83 77 79
53 45 47 55 62 64 67 70 76 77 80 84 89 90 88 89 87 81 77 74 78 75 74 76 75 73 69 67 67 64 62 62 69 83 84 87 85 83 84 84 83 81 78 77

GFSNW_prec_cthk_015.txt.gz
RH
27 34 51 64 59 55 57 54 68 82 87 92 95 99 98 97 91 89 81 72 70 78 78 72 63 58 53 51 52 54 56 62 70 61 53 51 53 59 68 76 72 78 81 57
25 34 46 56 44 52 48 47 73 84 91 97 96 94 93 96 95 88 77 71 67 65 69 66 60 60 56 54 57 57 57 63 68 64 60 59 64 69 71 75 80 75 85 61
22 35 38 57 50 48 39 50 67 74 80 90 95 94 93 95 87 85 79 75 65 66 67 62 65 66 59 58 60 56 56 62 63 65 65 66 75 74 77 79 88 78 72 64
14 23 31 43 55 51 51 56 67 71 81 83 90 95 95 85 81 73 75 74 72 69 66 63 64 62 60 57 58 57 60 69 66 61 64 68 73 77 77 84 83 91 68 79
17 12 24 34 47 47 55 61 67 70 72 78 79 81 87 84 79 78 73 71 73 68 64 60 58 55 57 57 58 60 63 68 71 74 70 78 84 79 83 82 82 81 83 81
23 10 13 25 36 49 54 64 66 68 65 70 71 69 71 72 72 70 71 67 70 75 74 66 60 56 54 56 59 63 69 75 78 79 76 81 87 82 78 78 78 80 89 81
24 20 9 13 25 41 56 61 63 65 63 61 61 64 65 68 68 67 66 61 66 67 64 67 62 61 65 65 67 65 73 78 82 89 88 88 76 73 74 77 77 77 81 85
37 25 19 10 12 23 43 55 61 65 67 63 57 60 63 66 66 66 64 62 62 67 66 67 71 74 74 72 70 69 71 77 86 92 93 78 76 79 77 77 74 74 76 88
42 40 28 23 14 9 19 52 58 61 68 65 65 60 62 66 65 62 66 66 65 67 71 68 72 77 72 80 73 72 75 80 88 89 90 86 78 73 73 75 76 72 73 84
44 43 41 34 26 14 12 22 49 60 63 65 68 66 66 66 68 69 70 71 71 71 71 74 75 74 72 80 81 84 79 86 87 83 87 77 67 69 75 77 68 72 70 78
45 44 42 40 40 28 19 17 21 43 61 62 68 69 71 69 69 74 77 78 81 81 80 76 76 78 77 77 77 84 81 85 85 85 87 81 67 71 76 69 69 71 71 74
49 48 44 46 40 32 31 21 24 22 35 59 65 71 75 79 79 81 82 86 83 79 82 81 82 80 79 80 82 75 85 77 81 76 71 62 65 67 68 69 67 70 71 77
52 50 48 51 49 40 37 32 25 30 26 30 65 69 78 81 84 88 87 87 85 85 84 88 88 86 81 80 80 78 76 76 78 76 69 66 66 68 69 67 65 70 72 78
54 52 50 49 43 44 47 48 33 32 35 36 71 77 82 82 83 85 88 93 88 89 90 91 90 90 84 82 78 78 77 81 80 76 73 71 71 67 66 67 66 72 75 77
55 55 50 48 50 51 50 42 40 29 40 54 82 89 85 84 85 88 90 89 90 86 89 90 87 85 84 80 79 81 70 73 79 78 77 75 72 68 68 68 68 71 75 76
57 56 49 50 48 51 50 50 47 36 40 68 95 99 90 89 88 90 94 89 88 87 84 85 85 85 86 87 86 74 69 74 73 73 74 73 71 69 71 72 70 73 75 76
58 51 52 48 47 43 51 49 66 51 50 88 98 99 94 92 95 94 95 92 93 88 83 82 86 87 89 85 83 77 76 76 76 75 78 78 75 71 73 76 74 76 76 76
53 54 44 46 46 38 43 50 59 77 97 98 98 99 98 94 97 96 94 97 94 90 87 88 88 82 82 91 90 89 86 82 80 79 79 76 76 74 75 81 78 80 78 78
49 45 42 46 41 41 39 48 69 94 98 98 99 97 97 95 96 96 98 97 95 91 92 85 85 82 89 91 95 92 87 86 83 81 80 78 77 75 78 82 83 83 81 81
48 51 53 51 49 49 60 91 97 97 97 99 99 98 98 97 95 97 96 96 97 93 91 85 84 80 83 87 85 84 86 80 78 81 82 81 81 79 79 84 86 87 83 84
60 61 57 59 61 71 91 96 96 96 98 98 98 99 96 96 92 92 92 90 91 91 85 79 80 81 81 80 73 68 77 83 80 83 85 85 84 81 80 83 87 92 89 89
51 60 64 68 74 78 86 86 88 92 95 97 98 95 96 93 94 88 84 85 86 85 81 81 75 78 74 67 64 68 75 86 89 85 87 88 87 87 85 85 84 93 93 91
49 58 62 68 73 78 80 79 82 83 86 91 94 93 91 91 86 84 84 80 78 73 77 75 78 76 66 63 64 73 84 90 88 90 90 89 89 91 92 92 90 89 89 88
53 60 64 64 71 72 72 77 80 81 83 86 90 92 93 91 90 87 85 80 74 73 76 77 79 73 66 66 64 74 86 90 95 94 90 90 88 91 96 96 94 90 88 94
59 55 61 60 66 71 76 76 78 80 84 88 89 92 92 93 92 89 86 81 74 70 76 79 78 70 69 68 67 67 75 88 90 92 93 89 88 91 96 98 96 93 93 96
69 59 54 54 59 72 76 79 81 81 81 87 90 94 94 93 89 87 81 76 73 75 77 77 75 73 71 71 70 69 69 68 77 88 91 90 88 86 89 95 96 94 96 94
77 65 53 45 54 65 72 75 81 81 83 87 88 90 87 88 88 85 79 78 80 79 79 77 74 74 75 74 74 71 68 68 68 68 81 87 86 85 86 88 90 93 95 89

GFSNW_prec_cthk_018.txt.gz
RH
29 35 34 32 43 51 59 65 73 82 88 94 97 98 99 92 95 85 79 74 77 83 79 67 57 58 51 49 47 50 49 54 63 60 56 53 53 57 60 69 67 80 81 61
18 28 35 30 34 45 50 58 61 67 78 85 95 93 90 91 84 78 70 68 69 75 72 71 62 55 51 51 51 51 48 57 65 62 59 57 60 61 65 70 78 83 84 60
13 25 28 37 34 41 46 53 56 59 67 73 78 84 86 80 78 75 63 64 65 69 67 60 64 57 56 54 55 53 54 60 58 62 60 61 69 70 72 79 85 76 74 58
15 17 24 35 41 39 43 50 60 69 68 69 72 71 73 73 73 73 69 67 63 65 67 63 63 61 59 58 59 57 55 62 66 64 61 65 71 73 74 79 73 76 59 73
21 14 17 26 41 44 48 54 61 62 64 67 68 68 70 67 63 69 72 72 71 67 65 61 62 60 60 59 59 57 58 69 67 65 61 69 75 75 77 75 74 73 70 74
30 20 14 16 28 44 50 54 57 62 61 64 64 63 66 70 66 65 70 70 72 74 71 63 57 53 53 55 57 60 63 70 70 69 68 77 81 77 77 75 73 74 80 75
38 30 20 14 14 29 49 54 58 58 59 59 61 59 61 63 64 63 67 65 62 66 71 69 63 60 59 60 61 62 69 71 75 75 80 86 73 71 72 73 71 72 72 76
44 39 32 24 15 13 29 49 52 58 58 56 52 58 59 60 61 63 63 64 63 65 64 68 74 73 69 70 69 69 67 71 77 82 90 77 73 76 76 76 70 66 71 71
48 48 44 37 31 18 15 24 40 52 54 53 58 56 55 59 61 62 63 64 61 62 68 69 70 73 71 79 79 76 69 70 81 88 92 84 75 74 74 72 76 66 71 72
48 54 51 50 43 36 25 23 20 31 50 54 57 60 59 59 61 63 62 64 65 67 70 73 74 76 73 81 78 81 77 77 83 88 86 75 68 68 73 76 68 68 72 72
50 52 53 52 55 52 44 35 28 23 30 32 56 61 62 65 67 67 65 68 73 77 74 74 74 75 77 78 76 81 82 83 87 88 86 80 70 74 73 69 70 68 71 74
56 55 56 53 50 50 51 48 42 35 31 20 32 54 63 67 73 75 72 72 75 76 81 79 79 78 77 82 75 77 84 76 79 82 73 65 66 65 64 69 68 68 71 74
64 58 58 57 55 56 51 51 50 44 35 22 22 30 57 66 73 82 83 78 81 80 80 85 87 84 80 81 79 78 75 75 80 81 70 71 67 65 67 70 67 68 71 75
73 62 61 58 54 55 58 58 51 52 45 37 20 32 57 72 81 85 90 89 85 84 86 89 93 92 89 86 81 84 80 77 76 78 76 73 71 71 68 66 67 69 72 76
74 64 62 58 62 60 54 50 53 55 51 42 37 34 62 86 91 94 92 93 93 90 91 94 94 91 88 86 83 81 74 74 72 72 76 76 74 73 70 68 68 69 72 76
73 62 60 60 58 53 48 48 52 50 50 47 43 59 83 99 99 96 93 94 94 94 91 89 90 89 87 88 85 76 74 74 73 73 72 72 72 73 70 68 70 70 73 76
64 59 64 55 49 48 42 42 54 55 47 55 80 91 96 99 99 98 98 96 98 92 91 88 87 85 88 83 83 81 85 84 82 78 78 77 77 76 74 71 74 74 74 77
56 58 52 50 43 36 36 43 52 64 80 94 97 98 98 99 97 99 98 99 97 94 90 90 88 83 80 82 83 86 88 86 85 84 82 79 82 81 76 75 76 79 77 79
56 65 59 43 41 38 51 74 85 91 97 97 98 99 99 98 96 99 98 98 98 94 92 90 85 80 82 79 81 80 83 86 82 81 81 80 83 80 77 76 76 82 81 81
67 71 65 57 54 65 75 82 90 94 97 97 97 99 96 94 94 98 97 96 97 99 95 93 91 78 79 78 80 77 74 81 84 81 77 80 81 80 78 77 77 80 85 85
62 74 63 55 61 72 79 79 86 95 97 98 98 97 98 96 94 97 96 98 98 96 92 91 85 81 77 79 74 68 71 74 83 87 81 80 85 84 83 81 82 83 89 92
56 58 66 59 70 77 79 78 83 90 94 97 99 99 99 98 96 96 94 90 93 94 93 90 83 79 78 68 65 67 74 82 85 87 86 87 88 87 87 86 83 83 88 94
64 61 62 68 72 75 77 74 80 86 91 96 96 98 98 97 95 90 86 85 86 82 85 80 75 79 72 67 67 70 83 90 93 91 91 91 89 90 90 92 89 88 94 96
69 70 71 71 69 71 72 76 78 82 84 90 93 95 95 95 94 91 87 88 85 82 76 73 81 79 73 73 71 74 84 93 93 98 97 93 93 90 91 94 96 93 95 96
73 72 70 68 62 71 72 74 77 79 82 88 92 94 95 98 96 93 90 90 85 74 72 78 80 73 74 74 74 72 71 73 88 93 96 95 91 93 93 97 98 97 96 96
81 78 72 64 60 67 74 79 81 82 84 88 90 94 95 96 94 94 91 85 78 77 77 77 75 72 71 71 70 72 72 71 71 74 84 90 93 89 92 96 98 98 97 97
83 83 82 70 52 52 72 80 84 86 86 89 89 90 90 93 92 90 86 82 82 80 81 78 75 74 73 71 69 70 72 72 71 71 70 74 83 87 90 89 93 97 97 97

GFSNW_prec_cthk_021.txt.gz
RH
17 29 33 39 43 45 52 60 65 71 81 79 79 82 84 84 78 71 71 73 78 78 77 67 58 58 54 51 56 58 55 58 65 60 56 53 53 56 55 58 60 73 77 66
16 23 28 35 40 41 42 51 61 66 72 77 81 79 79 78 78 77 73 71 72 76 75 69 55 52 47 53 50 52 52 56 64 61 58 57 56 56 57 61 69 79 81 66
16 17 25 32 36 38 43 47 55 60 66 72 72 74 76 75 70 68 66 67 69 72 69 60 61 55 54 51 52 52 50 56 58 61 56 57 62 59 64 70 82 80 70 62
22 16 19 26 39 39 43 49 62 65 66 63 68 69 70 73 76 71 65 66 71 73 71 66 64 60 56 56 58 55 55 63 65 61 59 60 60 65 70 76 73 75 66 67
34 18 15 19 35 41 43 50 58 59 64 64 66 64 67 66 69 69 65 68 69 66 67 63 63 58 58 56 57 58 57 66 65 65 56 59 68 68 72 74 71 70 71 74
43 28 18 15 19 39 45 48 52 54 57 62 61 62 63 63 64 67 68 68 73 72 69 61 59 58 57 56 56 59 60 66 66 68 59 65 74 72 73 74 72 71 75 67
52 39 26 19 16 20 43 48 49 51 51 56 58 58 60 62 61 64 69 70 71 75 72 67 61 60 58 59 59 59 65 67 69 73 65 79 68 70 73 74 70 71 70 72
56 48 37 31 26 18 21 32 46 50 50 53 51 53 56 59 62 63 64 66 65 66 67 73 73 71 66 66 64 65 63 67 73 73 77 75 70 78 79 78 71 70 74 74
61 56 47 42 39 32 24 23 27 35 46 46 50 53 52 54 59 61 64 64 63 65 69 70 72 76 69 76 74 70 71 70 76 74 82 85 75 77 75 77 76 71 72 72
72 61 55 50 49 47 40 35 29 33 39 28 41 52 56 57 55 59 64 65 66 64 68 73 75 74 69 78 78 79 79 79 75 75 86 77 64 72 77 79 72 70 70 70
82 71 60 59 56 61 54 49 43 38 39 32 26 44 52 59 61 60 61 67 67 70 71 72 73 73 74 77 71 78 81 83 77 80 86 80 68 78 81 72 68 70 68 69
90 79 64 57 60 62 68 65 60 59 56 41 32 26 40 50 60 67 69 64 69 71 73 72 74 74 75 78 78 75 82 77 82 76 76 65 70 72 71 67 67 67 67 69
86 84 76 62 60 59 63 63 65 65 62 54 51 35 24 41 52 67 72 70 71 73 75 78 81 77 76 81 80 79 77 76 79 79 73 76 73 73 68 68 67 66 67 69
92 92 80 67 64 62 67 66 65 63 57 52 37 32 29 36 58 60 68 79 80 79 79 79 82 82 80 82 79 81 78 79 75 72 74 76 76 74 68 68 66 66 68 69
90 90 83 70 68 69 64 57 53 52 54 48 36 29 20 21 52 71 79 84 89 86 86 85 84 85 86 86 83 79 72 72 74 73 70 70 72 74 73 72 70 68 70 70
94 90 70 64 68 60 54 52 40 45 46 50 47 27 23 31 47 78 90 98 96 92 87 89 88 87 86 88 85 73 71 71 73 73 72 69 71 75 74 73 71 70 72 71
89 70 61 62 54 52 52 41 44 55 65 69 60 62 53 47 77 94 96 95 99 97 94 92 89 89 88 85 83 76 81 80 79 80 77 72 72 74 74 76 73 72 75 73
74 59 66 56 50 46 48 55 72 77 84 87 90 82 79 93 99 99 98 99 98 97 96 93 90 89 86 79 75 74 73 76 78 82 81 79 76 77 78 78 77 75 77 77
59 71 71 61 60 57 58 68 81 94 91 85 93 98 99 97 96 94 93 92 93 96 95 92 86 85 79 72 72 71 74 73 75 79 78 77 79 78 80 81 80 77 76 80
56 72 75 67 68 70 77 83 87 84 85 89 90 94 92 99 90 98 97 96 98 98 95 92 86 79 76 75 73 73 73 69 66 73 80 79 77 80 81 83 79 77 77 79
59 62 72 66 67 68 79 88 91 91 89 94 97 98 96 93 91 95 94 97 97 96 92 98 92 85 79 77 74 72 66 67 75 82 88 89 82 82 84 83 81 80 80 80
65 56 56 60 68 74 75 78 82 90 93 94 96 98 94 95 95 96 98 96 95 94 92 94 83 82 78 77 72 63 68 79 85 89 90 89 85 85 86 86 85 84 83 86
78 73 67 67 74 76 74 74 78 87 91 94 95 97 99 98 97 97 95 90 92 90 93 86 81 82 79 70 66 69 85 89 91 89 91 90 90 92 90 89 89 91 89 88
81 79 76 76 79 74 70 74 78 83 88 95 97 99 98 98 98 95 89 89 86 87 79 70 76 79 77 74 76 76 78 82 88 93 97 97 97 95 93 92 93 95 93 94
83 81 79 75 76 77 71 71 73 80 84 89 95 97 97 98 95 92 90 91 86 81 74 72 77 77 76 76 76 76 76 74 75 83 92 96 96 95 95 95 97 96 97 97
88 82 80 75 75 73 69 71 76 80 83 86 91 95 95 95 94 92 91 87 83 79 78 78 76 73 70 72 71 71 73 73 74 74 75 81 87 90 92 94 97 98 98 98
88 85 85 86 88 72 61 65 84 86 85 88 89 89 88 91 90 90 87 87 86 84 80 79 78 76 74 72 68 67 68 70 71 71 72 74 74 76 84 90 91 95 99 98

GFSNW_prec_cthk_024.txt.gz
RH
31 18 26 31 39 42 47 57 66 69 69 69 75 76 75 65 65 65 64 67 69 75 78 70 70 69 60 51 56 67 59 70 76 68 63 58 53 56 55 57 54 63 68 60
36 22 18 26 35 37 43 50 57 62 65 69 70 72 75 75 68 67 69 72 73 75 72 64 58 56 53 51 56 61 59 61 67 63 58 58 59 58 55 54 60 70 72 62
44 30 17 18 35 36 40 46 55 61 63 67 71 71 72 70 70 69 69 70 71 73 74 64 56 52 52 50 53 53 53 56 56 60 58 62 65 60 59 61 73 72 71 64
59 36 19 15 25 39 41 53 59 61 67 69 71 73 76 75 73 67 65 67 69 73 75 67 60 58 57 56 54 56 56 61 63 63 62 62 60 59 63 70 70 74 62 65
81 45 27 18 17 39 45 51 58 62 63 65 65 65 68 70 73 69 63 68 75 70 69 65 67 61 60 59 62 61 60 70 68 64 57 60 62 60 69 74 73 68 66 65
93 61 39 23 17 26 46 51 53 54 56 61 62 65 65 63 65 67 68 69 72 72 70 63 58 58 57 58 60 62 63 67 66 67 59 60 62 64 67 72 71 69 72 63
96 77 50 33 25 20 29 43 52 51 50 55 59 59 61 65 66 67 70 72 71 75 69 65 62 60 60 60 60 60 65 67 67 69 61 63 56 69 70 75 72 71 67 68
97 81 62 48 35 28 24 24 37 46 49 50 53 57 57 57 62 66 69 69 70 72 73 75 73 69 66 66 63 63 62 67 72 70 66 57 61 77 79 78 74 73 71 70
97 94 66 57 46 40 34 28 26 32 35 39 48 53 56 56 55 58 63 70 70 69 70 71 75 73 70 73 74 68 68 68 73 69 67 71 67 76 77 78 81 75 75 73
97 97 84 69 55 46 44 43 40 36 38 34 34 36 49 56 54 56 58 63 69 69 71 74 73 73 68 74 77 77 77 77 74 75 74 64 66 74 77 83 79 75 75 72
95 97 96 86 67 59 56 53 51 51 49 42 38 38 38 48 58 61 58 61 63 69 72 71 70 73 73 73 69 73 74 76 77 74 76 71 66 71 80 82 79 75 72 70
96 97 97 93 83 61 66 66 67 65 69 58 54 49 43 37 59 59 65 62 58 60 66 67 70 70 71 70 76 70 75 70 74 74 67 57 73 73 76 78 76 73 68 70
97 95 97 96 91 81 69 68 70 73 70 67 67 56 51 45 41 61 66 68 68 66 64 70 73 72 72 76 73 70 71 70 71 74 70 70 75 75 77 79 74 72 69 70
97 97 97 97 93 86 85 79 76 72 66 60 40 36 38 41 42 48 60 71 74 75 75 74 74 72 71 74 72 73 72 74 73 71 73 71 73 78 78 79 73 71 69 70
97 97 97 95 84 78 80 69 56 53 52 48 44 40 26 23 28 41 60 73 81 79 83 77 76 75 76 77 77 76 71 69 71 73 69 72 71 73 79 79 76 72 71 70
97 97 95 83 72 71 59 50 46 48 58 61 63 54 42 26 25 27 43 78 87 82 87 82 78 74 75 78 79 70 69 70 70 71 70 70 70 69 72 75 76 75 73 70
97 97 78 73 63 48 56 54 57 61 71 70 65 65 69 50 31 33 65 78 92 98 98 84 82 80 77 78 76 78 74 74 74 72 74 76 77 71 69 74 77 77 75 72
97 81 69 68 63 57 53 61 69 70 73 74 79 77 76 57 51 66 97 91 93 88 88 88 86 84 81 79 77 74 75 72 70 72 74 74 75 73 72 74 75 78 78 75
96 74 73 68 72 69 68 73 79 75 72 80 90 86 83 87 83 96 98 98 98 98 95 93 88 85 80 78 77 71 71 70 69 68 65 66 73 75 74 76 77 79 79 77
94 71 73 74 73 70 73 85 84 84 82 82 89 95 98 98 99 98 98 98 98 92 92 91 88 81 77 74 72 69 68 69 67 63 62 67 75 78 76 80 82 84 83 80
92 78 64 59 66 66 78 86 86 84 85 88 88 97 98 95 92 97 95 94 93 91 89 89 85 79 79 76 72 69 69 67 65 68 75 79 86 88 83 82 85 87 84 80
97 90 72 61 61 72 80 83 81 87 89 90 91 93 94 94 93 95 94 94 91 86 87 92 81 78 84 79 74 73 68 66 80 85 85 84 86 90 86 86 87 85 83 83
94 89 85 79 69 77 78 77 79 82 93 96 93 93 93 94 92 92 94 93 93 93 95 84 79 82 82 79 75 68 71 85 91 90 88 92 92 93 93 91 89 90 89 88
89 81 84 85 83 82 82 81 80 81 85 94 95 94 95 96 98 96 94 95 91 89 86 78 78 80 85 77 75 73 76 77 83 86 91 98 98 98 97 96 95 94 94 90
88 82 85 83 82 82 81 81 76 76 82 88 95 97 97 99 98 96 97 96 93 87 81 76 75 79 79 77 77 79 79 79 78 77 81 88 93 97 98 97 96 95 93 92
89 88 85 82 84 78 80 74 73 76 81 88 93 97 98 98 97 95 92 89 86 82 81 79 79 78 73 75 74 76 77 75 75 76 78 79 80 83 85 89 91 95 94 95
88 85 85 87 86 86 86 86 73 78 85 87 93 94 95 96 95 92 90 89 86 85 84 81 82 81 79 75 70 70 69 67 65 64 67 70 72 73 74 76 81 90 94 95

GFSNW_prec_cthk_027.txt.gz
RH
66 43 29 19 27 32 38 47 64 61 63 62 63 68 65 64 65 66 63 67 70 71 70 71 71 75 65 65 62 63 63 68 74 75 71 71 68 66 59 56 53 58 55 42
63 62 39 17 21 32 36 41 56 63 59 72 68 64 62 64 63 64 61 61 65 68 69 67 66 63 61 56 52 58 59 63 73 73 69 65 64 58 54 52 54 60 54 47
55 74 47 23 17 34 36 43 52 62 66 69 70 72 73 71 68 68 68 69 71 71 66 59 61 57 56 52 54 60 60 61 59 56 54 58 62 59 57 55 62 58 59 58
55 68 62 35 16 29 38 47 57 61 69 72 78 76 76 73 72 69 68 69 69 73 77 66 59 53 53 53 55 57 57 61 60 56 55 61 61 60 58 59 59 68 62 64
61 66 77 43 23 20 41 47 54 60 63 66 67 69 72 75 73 68 65 74 75 73 74 65 64 58 59 57 59 57 58 68 63 61 58 61 61 58 59 63 68 71 68 65
68 73 83 56 38 20 33 49 50 53 52 60 64 66 66 65 69 69 67 69 78 76 73 68 65 60 58 58 58 61 60 66 65 65 58 59 62 55 61 66 71 70 73 63
70 81 82 68 51 32 25 30 42 51 49 52 58 60 62 65 67 67 71 72 69 73 70 65 63 62 62 60 61 59 64 67 68 67 60 64 48 59 66 68 70 71 68 67
68 86 89 77 62 49 30 25 28 38 42 48 51 55 57 57 58 66 71 71 74 75 73 72 71 68 64 66 65 63 61 66 72 70 65 53 53 66 75 77 77 75 75 68
79 93 94 80 74 56 50 35 28 30 34 38 38 46 53 57 55 56 61 70 73 71 71 72 77 76 68 75 74 68 66 63 66 66 67 63 51 65 77 80 86 80 78 73
87 88 95 95 84 76 58 54 43 37 38 35 36 37 37 51 57 55 53 61 67 71 72 73 72 70 68 77 74 77 78 78 76 73 70 60 52 65 75 85 82 80 79 73
93 93 92 94 96 91 75 65 56 53 51 43 43 43 40 37 49 58 57 62 62 66 70 70 70 70 70 69 68 67 71 76 72 69 72 68 50 61 77 80 79 81 79 71
98 97 95 93 98 97 94 77 67 61 63 57 57 56 56 54 44 60 66 64 58 60 64 65 67 67 71 70 68 71 73 63 70 68 66 54 61 65 71 75 79 82 77 69
98 98 98 96 96 96 95 90 91 91 86 77 74 64 61 57 57 53 66 70 73 66 65 65 68 68 67 70 66 68 66 65 66 69 66 66 66 66 71 78 78 80 76 70
98 98 98 97 97 96 95 93 91 88 81 77 59 49 45 46 45 46 50 72 85 84 73 69 70 68 67 68 65 66 66 69 70 69 69 70 71 72 75 80 78 79 74 70
98 98 97 98 95 90 86 84 81 77 71 61 50 48 43 43 42 35 35 46 80 91 94 78 75 68 70 71 69 66 66 68 72 74 70 71 70 70 71 73 77 76 74 70
98 98 98 94 79 84 75 71 62 59 56 56 58 47 48 50 51 42 40 39 54 85 98 89 79 70 70 73 69 64 64 65 66 69 71 69 69 70 69 71 70 73 75 74
98 98 93 77 82 74 69 66 65 64 63 66 60 62 67 52 46 41 37 39 53 86 98 96 83 76 73 72 68 65 66 64 67 69 71 69 69 72 73 69 68 71 75 77
97 97 93 76 79 82 76 75 70 71 70 70 69 75 73 72 57 48 47 44 64 99 98 98 91 83 78 73 66 69 70 68 71 70 66 66 67 67 64 67 69 70 72 76
97 97 87 79 87 81 73 72 78 74 74 80 82 86 94 83 91 91 74 80 97 98 97 99 90 83 76 70 72 72 71 73 72 68 65 65 64 61 65 69 70 71 74 76
94 94 91 83 74 68 70 77 83 83 88 91 91 90 96 95 95 98 97 98 94 97 98 93 85 81 79 78 76 73 73 71 68 66 62 60 68 69 70 73 74 75 77 81
93 92 90 88 70 61 72 84 89 90 92 93 94 93 94 94 99 97 98 97 99 98 99 92 89 79 80 78 76 73 70 67 66 64 67 70 72 74 76 82 84 80 84 87
88 90 92 94 85 67 81 88 89 92 95 93 95 97 96 93 95 96 95 97 95 95 93 92 84 78 78 77 77 73 69 68 65 72 79 81 79 80 79 84 87 88 89 90
80 79 82 85 84 82 83 90 91 89 93 96 94 97 96 95 93 94 94 91 88 88 88 80 78 79 78 79 80 76 70 76 83 85 84 86 88 91 89 92 93 90 90 91
81 75 77 89 90 96 92 85 87 86 87 92 94 96 98 97 97 95 96 96 92 91 89 81 76 75 81 81 79 78 76 78 79 84 85 88 96 98 99 99 99 98 97 94
73 79 82 82 86 87 87 86 82 73 74 81 88 95 97 97 98 96 95 92 88 84 78 76 76 75 77 75 77 80 79 79 81 81 80 82 87 91 94 96 97 97 97 95
74 81 83 82 86 87 88 85 86 86 72 78 86 93 98 98 97 96 93 93 87 85 83 81 80 78 76 75 78 79 79 77 75 75 75 77 78 80 82 83 84 88 92 96
60 69 73 83 84 84 85 89 90 91 88 89 90 91 93 96 96 94 92 90 87 85 85 86 86 82 79 80 77 76 73 72 70 68 66 65 65 64 65 67 70 73 78 84

GFSNW_prec_cthk_030.txt.gz
RH
45 45 64 40 15 25 31 39 55 53 49 54 60 63 62 60 60 61 59 60 63 63 63 65 70 69 69 67 64 62 61 69 78 74 73 71 69 63 55 52 59 49 46 34
44 44 54 53 17 25 32 37 51 53 51 54 56 54 56 59 58 59 58 59 60 62 62 64 65 67 65 65 62 60 57 62 75 73 72 70 68 66 61 57 53 53 42 36
48 44 49 55 34 22 34 43 47 55 57 62 61 60 59 59 61 59 61 63 67 67 68 59 61 62 62 59 52 54 55 55 59 51 60 60 66 61 56 51 52 44 40 43
52 47 54 58 47 19 36 47 53 54 64 70 70 69 69 68 67 68 65 65 66 69 68 58 59 57 55 54 57 58 64 68 62 56 55 60 59 55 53 55 47 48 45 48
54 50 60 66 53 33 33 46 53 57 58 61 66 68 73 73 69 67 66 67 69 71 71 63 57 53 50 52 57 58 59 70 63 59 55 57 59 55 54 53 51 52 52 57
55 58 64 73 58 44 26 39 51 53 52 56 59 61 63 66 68 66 66 70 76 75 75 71 62 58 56 56 56 61 60 64 61 59 55 56 54 47 48 50 53 56 65 60
61 68 67 73 67 55 42 30 39 51 48 47 52 56 59 60 62 65 66 71 71 73 72 67 63 61 60 60 59 57 59 60 63 65 58 60 44 49 51 54 55 60 62 60
67 73 74 77 80 67 53 39 30 37 39 44 47 52 54 54 55 60 67 69 75 76 73 68 64 61 60 62 60 60 56 59 67 64 58 46 45 53 59 62 62 65 67 65
69 77 82 84 84 84 68 55 42 31 35 37 34 42 49 53 53 53 59 67 73 73 74 74 72 66 60 65 65 61 61 59 59 62 62 50 45 55 64 69 76 73 74 72
73 79 91 90 90 90 88 76 57 51 37 29 33 34 32 42 52 54 52 59 66 71 73 75 71 67 61 66 67 70 67 70 66 65 62 48 46 57 60 71 72 77 79 77
80 89 91 93 93 94 96 93 82 66 62 43 38 38 39 36 41 48 50 56 61 67 70 70 67 66 63 63 60 64 64 68 72 69 68 62 47 55 59 62 72 78 81 78
83 89 92 93 96 95 92 94 94 91 88 72 60 58 57 55 49 52 59 61 57 60 64 60 61 62 64 63 64 62 64 57 57 57 58 51 52 52 57 66 74 78 79 79
88 92 92 94 96 97 96 95 94 94 93 84 83 72 67 65 68 65 63 72 78 77 70 64 65 62 59 61 59 63 63 60 58 60 55 57 60 63 60 62 67 75 79 80
90 91 93 95 96 97 96 95 92 92 94 86 74 68 65 62 57 59 58 64 83 88 90 83 71 62 56 57 55 57 59 63 60 58 59 63 64 66 66 67 68 72 76 77
92 92 94 96 97 88 79 84 84 86 84 74 68 62 54 53 54 55 49 42 46 74 89 97 88 74 63 61 61 55 57 59 61 60 61 63 65 66 66 68 67 71 76 75
92 93 95 96 90 85 83 78 79 79 80 74 65 58 52 44 42 40 44 45 45 53 72 95 99 86 72 64 60 51 55 58 62 63 66 66 66 64 63 65 67 68 68 71
93 93 95 96 84 87 90 87 83 83 83 72 62 56 50 52 62 55 45 55 57 53 72 85 98 97 90 75 58 55 57 58 61 63 65 68 67 67 67 66 66 67 68 68
93 93 94 95 86 90 87 81 81 78 75 70 73 69 65 70 75 66 45 46 50 60 64 82 97 99 91 81 59 61 61 60 63 64 65 66 64 63 64 63 61 63 66 68
87 90 92 93 88 85 80 77 80 78 76 81 83 83 76 83 87 86 79 53 50 56 84 94 98 97 91 71 66 64 62 63 64 68 68 70 67 64 63 60 59 64 66 67
78 80 88 94 88 86 79 82 88 88 88 90 90 92 91 92 94 96 97 88 78 83 86 96 97 98 85 77 74 70 68 69 70 70 69 67 67 65 67 67 66 68 68 71
68 76 80 89 96 90 79 91 95 95 93 93 93 97 92 93 95 98 98 98 98 98 98 98 96 86 81 80 77 75 73 72 71 70 68 69 69 68 70 71 70 71 77 78
59 67 70 76 86 82 88 94 94 96 96 96 96 97 98 93 93 97 98 99 98 98 98 96 89 80 81 79 77 75 73 71 69 69 69 74 74 69 69 72 73 74 79 83
46 53 59 70 86 95 96 96 97 97 94 94 95 96 98 96 94 95 96 97 96 96 94 84 79 81 79 77 77 76 74 71 74 80 84 80 78 76 80 85 84 83 89 89
46 44 47 71 88 92 92 93 89 87 84 78 81 91 97 98 97 96 97 94 95 93 89 79 76 76 77 77 77 76 77 80 84 84 83 83 87 93 97 98 98 99 99 98
49 50 47 55 72 80 84 87 89 88 88 82 76 86 94 98 98 97 96 94 90 86 81 78 77 78 77 77 78 81 81 81 80 80 80 81 86 87 90 91 93 95 97 97
46 49 50 45 54 66 76 79 82 87 91 90 88 85 92 95 98 98 95 95 88 84 86 84 82 80 79 75 78 80 78 77 76 76 74 75 77 75 75 77 79 81 83 86
45 44 44 44 43 47 55 67 75 82 88 93 95 95 90 90 97 96 93 91 89 87 86 86 88 87 83 79 78 78 80 80 78 75 73 71 69 67 66 64 61 61 65 69

GFSNW_prec_cthk_033.txt.gz
RH
41 38 34 40 53 15 27 36 57 47 46 54 51 54 56 56 58 57 57 59 59 58 57 64 62 62 62 61 63 63 66 74 83 79 80 78 74 69 69 68 69 52 49 44
39 40 37 38 48 25 29 38 50 50 46 57 51 51 52 55 55 55 53 56 57 58 57 62 62 62 62 60 61 60 58 67 81 79 73 71 69 62 59 55 55 60 47 43
41 43 42 41 42 46 27 41 52 56 54 53 49 48 50 53 52 50 52 55 58 61 62 56 60 61 63 61 57 56 54 55 67 66 67 59 65 63 62 61 63 51 39 43
43 44 45 46 43 49 36 42 54 57 62 60 62 58 55 56 60 62 60 61 61 65 66 63 58 59 59 57 55 50 56 67 61 55 56 58 58 59 59 61 56 50 39 35
48 50 53 51 45 47 54 45 55 57 59 61 65 65 64 64 64 61 60 63 62 63 66 64 58 57 54 50 53 53 56 70 65 63 55 54 57 55 53 50 47 43 41 43
52 52 55 59 45 51 58 41 50 59 59 60 62 65 69 69 64 63 62 66 71 71 72 71 67 57 55 51 52 56 61 68 68 62 54 52 53 45 46 45 44 44 46 46
53 54 58 65 60 49 63 47 34 52 54 52 58 60 61 61 62 66 65 66 72 74 74 72 68 64 60 58 57 58 64 64 64 67 61 66 47 43 41 41 43 44 48 56
56 57 58 65 71 70 67 60 46 37 41 44 48 53 56 57 56 57 60 65 70 74 71 68 68 65 62 60 59 58 56 60 66 66 59 45 38 41 46 50 49 51 56 63
60 62 64 69 77 81 81 82 59 46 38 43 40 39 48 55 56 55 57 61 65 70 75 74 70 68 58 63 62 59 58 57 61 62 61 50 44 45 51 55 62 54 61 70
62 68 68 73 81 88 84 92 91 76 50 37 34 39 43 45 55 56 55 58 63 65 69 72 70 66 59 62 63 64 65 63 63 60 59 46 40 50 54 63 64 68 73 77
69 71 79 80 82 86 87 87 89 91 90 65 43 34 34 31 32 41 52 53 56 63 65 65 65 60 62 58 57 59 61 65 64 60 61 57 43 52 55 55 59 67 75 78
73 77 83 83 84 88 89 91 86 89 89 89 75 59 49 46 42 46 51 59 59 61 57 54 56 54 58 59 60 55 58 54 57 54 55 48 46 49 53 55 59 64 73 79
78 84 86 86 84 88 92 91 90 85 88 86 88 84 72 59 57 64 63 65 76 81 79 74 68 60 52 57 53 59 56 54 55 54 49 50 51 55 53 55 58 64 71 76
84 88 88 88 89 92 94 84 80 83 89 93 88 80 79 81 78 75 77 70 73 83 89 92 86 77 62 52 52 53 56 57 55 51 51 55 53 55 59 62 60 60 62 68
85 88 88 90 94 89 85 79 83 86 92 89 85 77 69 64 59 54 52 53 53 56 67 85 95 87 86 75 60 49 48 50 55 54 53 53 55 58 59 63 65 63 62 64
86 88 91 93 96 86 91 91 89 87 89 87 81 72 65 56 57 54 56 49 48 48 51 58 69 86 97 86 71 51 45 50 54 54 58 60 59 61 62 63 63 63 63 63
75 83 89 92 94 89 91 88 83 82 88 84 76 70 61 56 63 62 61 57 50 49 55 51 54 69 92 92 77 70 47 50 53 57 61 64 61 60 61 62 62 61 62 66
59 72 77 85 93 89 92 86 81 86 88 82 81 78 71 72 75 77 71 54 53 51 56 52 52 60 94 95 79 76 61 57 57 57 59 59 61 61 60 60 60 60 59 61
43 53 65 78 88 89 88 87 86 90 87 85 86 87 83 80 84 85 85 71 68 54 53 52 63 87 97 96 89 77 74 63 60 59 60 60 62 61 60 61 61 62 59 59
36 43 57 72 79 92 95 87 94 95 94 92 93 93 89 87 88 87 88 89 87 82 66 76 82 82 84 93 93 86 80 68 63 62 63 63 65 66 68 67 65 65 62 63
35 39 46 53 67 75 85 95 97 97 95 94 96 95 92 92 96 95 92 97 96 98 96 85 85 87 88 92 91 89 82 74 71 69 68 70 72 71 70 67 66 67 68 66
34 36 36 40 55 75 92 97 97 97 97 95 92 88 90 94 97 97 98 98 98 98 99 98 96 91 89 88 87 86 83 79 76 74 74 74 74 73 71 68 66 65 68 71
31 31 36 47 58 71 81 89 92 93 92 89 87 87 87 96 98 98 99 99 97 96 98 90 87 85 85 86 86 84 81 79 76 73 72 77 79 76 74 75 75 75 77 79
34 36 36 48 55 50 55 72 84 88 87 89 89 85 86 93 98 99 98 97 97 95 93 85 81 77 81 81 82 80 79 76 76 82 86 84 82 83 84 84 89 90 92 96
36 37 41 39 42 47 44 44 58 74 78 87 89 88 86 88 96 99 98 98 95 87 86 86 81 80 80 81 80 79 79 81 81 82 84 85 84 83 82 84 87 90 92 94
38 39 41 36 39 47 53 51 48 51 68 78 88 95 94 89 93 98 98 97 95 92 91 91 90 86 80 79 79 80 79 77 76 75 73 73 79 75 74 74 73 72 72 78
42 43 40 43 42 44 50 55 53 49 56 67 81 92 97 95 97 94 92 93 95 96 93 90 92 93 90 84 82 80 79 78 79 81 78 74 73 71 69 68 66 64 60 54

GFSNW_prec_cthk_036.txt.gz
RH
31 33 36 35 34 28 40 34 54 49 46 57 51 51 50 52 54 57 56 55 56 58 58 61 59 63 63 66 67 73 78 80 93 94 87 85 91 87 83 87 76 62 62 54
34 35 36 38 34 29 45 39 45 52 50 63 53 50 51 52 55 55 53 56 56 56 54 61 62 61 61 61 63 63 63 77 90 85 88 84 83 80 82 79 80 82 77 59
39 38 37 40 35 32 43 51 52 58 58 57 59 54 53 57 52 53 53 53 54 58 59 56 60 61 62 59 57 56 55 60 73 78 73 72 78 74 69 67 76 65 59 55
42 38 40 40 34 35 48 67 53 56 69 63 62 58 56 55 59 61 58 60 61 64 68 64 60 60 59 62 57 53 56 64 59 58 63 64 62 64 65 66 64 66 53 47
41 41 41 41 35 39 37 63 61 57 57 63 64 67 68 66 67 65 62 62 61 61 65 63 68 56 55 54 54 54 51 66 66 60 56 59 59 57 57 61 63 59 56 50
42 46 46 46 42 39 39 46 66 59 61 61 63 74 72 72 69 67 65 67 67 70 76 72 71 63 55 51 47 49 55 66 67 69 59 57 61 47 49 51 49 49 53 41
42 48 50 51 52 51 49 45 61 62 61 59 65 69 70 69 70 71 69 69 70 70 72 73 73 68 61 59 55 54 58 67 71 72 62 70 45 44 43 43 42 43 42 41
40 49 55 54 57 60 63 65 57 61 48 48 52 56 59 63 63 63 63 66 67 68 72 71 73 71 66 61 58 58 62 66 71 74 72 52 45 44 45 47 45 41 42 44
45 52 56 58 60 65 70 76 78 80 61 48 40 40 44 56 60 59 60 61 62 63 70 76 76 76 64 66 64 58 59 61 63 66 66 62 54 47 44 48 60 50 47 54
49 55 60 63 67 70 72 78 81 84 90 67 42 44 49 46 56 60 60 60 60 63 66 67 73 73 64 66 61 66 65 65 68 67 62 52 47 46 50 64 63 53 52 58
52 59 63 67 75 74 73 77 85 85 85 88 79 57 42 37 33 46 52 53 56 59 63 64 63 63 65 62 59 63 63 66 68 64 64 62 49 50 57 56 58 63 66 74
57 59 65 75 74 74 80 80 84 86 84 77 85 82 61 44 41 37 34 49 59 61 63 60 58 59 54 57 64 58 64 56 58 55 54 49 49 49 53 54 58 61 68 74
60 65 73 77 75 80 86 87 82 80 80 76 82 89 85 72 53 46 49 48 57 72 77 76 77 69 55 56 53 59 54 54 56 55 51 51 49 52 54 56 57 58 63 69
56 65 75 80 79 85 79 83 82 87 89 87 81 86 86 84 80 69 63 70 80 81 79 87 91 88 78 70 61 57 54 54 53 53 52 52 49 50 53 56 57 58 59 64
48 55 69 77 79 80 78 85 89 88 91 94 90 90 89 85 84 79 71 60 58 57 56 59 63 76 86 84 81 70 60 49 55 57 54 52 52 52 52 55 58 61 62 62
40 43 56 71 79 77 82 91 89 84 88 95 92 87 83 75 71 68 63 65 61 54 51 49 50 51 68 84 75 73 72 65 48 49 55 56 56 58 58 59 60 60 61 61
37 40 44 56 72 78 82 87 89 89 88 86 83 85 80 76 75 77 71 67 58 52 52 49 43 38 54 65 77 74 79 74 67 53 54 60 58 59 60 58 57 58 58 59
36 35 36 44 66 71 80 87 90 91 91 89 94 92 85 78 81 79 77 75 70 65 65 56 47 48 48 59 58 79 92 84 78 61 57 59 62 62 60 58 57 58 58 59
30 30 33 40 46 62 80 91 87 93 91 92 94 93 89 86 87 85 79 76 75 73 77 61 51 51 65 45 52 84 97 91 85 71 64 64 64 62 60 59 58 59 58 58
27 30 34 40 39 46 65 87 96 97 96 94 91 93 93 90 89 86 83 82 81 86 78 62 79 77 54 55 82 81 96 92 90 78 68 67 65 64 62 62 60 60 60 60
28 30 33 30 37 47 66 85 95 96 96 94 93 90 91 89 93 91 92 91 88 91 95 83 91 93 85 80 83 90 92 96 92 85 75 69 67 67 66 66 64 62 63 62
31 26 26 35 43 47 50 58 77 94 96 94 95 91 88 91 97 93 93 95 95 97 98 97 96 99 98 99 97 96 97 95 92 87 79 77 76 72 72 71 70 69 65 63
32 29 29 38 40 42 41 47 51 57 74 85 86 88 88 89 96 96 98 96 96 96 98 98 98 91 92 95 93 93 94 94 93 90 86 81 80 78 75 75 73 72 73 72
38 34 33 36 40 38 40 41 44 46 46 50 69 84 86 87 90 98 98 95 95 96 98 96 94 88 85 89 90 90 91 92 90 88 84 84 84 82 79 76 72 74 79 84
45 41 41 38 35 33 34 34 36 41 47 47 47 61 82 92 93 92 98 98 96 96 96 98 97 95 89 87 86 86 86 87 88 90 93 91 89 84 77 73 76 73 71 82
57 50 47 42 38 39 40 41 39 39 41 48 56 58 68 85 98 98 97 98 98 98 98 98 95 97 95 89 87 83 83 82 82 83 83 80 79 77 73 72 73 75 75 72
63 54 49 48 45 43 41 42 41 41 38 47 53 66 68 70 86 97 98 99 99 98 95 95 98 98 98 93 89 86 80 79 78 77 80 79 76 74 72 69 67 67 66 60

GFSNW_prec_cthk_039.txt.gz
RH
31 29 30 29 28 27 28 50 53 49 51 55 52 53 50 51 53 53 52 54 60 61 60 62 63 69 74 79 88 91 87 91 98 96 95 92 90 89 82 88 83 74 73 56
30 30 31 31 28 31 33 47 54 53 57 61 51 48 52 55 56 52 50 52 54 52 53 60 60 62 61 64 72 80 80 87 96 98 95 91 91 86 79 76 77 78 73 55
30 31 32 31 27 34 40 49 64 61 59 62 59 55 55 58 53 50 49 50 52 56 56 53 61 63 62 60 62 63 65 73 80 81 77 80 85 83 86 95 96 77 74 64
29 32 34 33 27 31 40 48 65 69 65 64 64 60 60 59 58 58 55 57 58 63 64 63 63 62 60 60 56 55 58 65 65 66 71 75 76 81 81 83 75 76 66 63
28 31 35 38 33 29 34 46 60 77 72 65 66 68 68 70 67 66 62 63 59 59 69 68 65 61 57 59 60 56 57 66 62 60 60 64 66 64 66 68 67 65 66 63
30 33 35 38 39 36 35 38 49 75 81 71 67 74 77 75 72 68 70 70 66 68 73 72 71 67 58 56 56 55 57 61 63 69 61 60 62 58 54 53 54 58 66 57
33 36 37 41 44 45 47 51 50 60 79 73 65 65 73 77 74 74 72 72 73 69 71 71 72 72 69 59 58 54 57 59 65 72 66 72 42 45 47 45 45 50 50 53
36 38 41 43 49 51 53 59 64 64 59 70 69 66 68 71 74 72 73 73 72 71 71 72 74 77 71 69 65 61 61 64 71 75 77 53 48 48 46 49 48 42 42 44
37 39 46 49 51 54 57 59 61 71 79 67 56 54 60 67 71 69 68 64 64 64 71 73 77 76 69 72 66 60 62 65 70 72 72 67 58 52 46 46 52 47 43 41
37 44 48 52 55 57 60 66 70 69 81 84 74 57 54 52 58 64 65 60 62 62 64 67 66 69 68 75 72 63 66 68 70 68 68 54 51 50 50 59 57 52 50 47
38 43 49 55 59 61 67 71 74 74 73 76 82 81 60 48 43 50 57 62 64 64 64 63 61 60 60 63 64 69 67 69 70 69 69 64 51 53 58 58 57 54 52 53
37 40 45 54 62 65 68 71 70 71 71 69 77 81 85 62 51 46 40 56 59 62 62 62 63 58 57 59 66 60 67 62 62 58 56 50 53 52 53 56 59 63 63 66
35 36 40 53 61 69 69 69 79 84 85 77 79 83 84 85 72 59 53 44 46 55 62 68 73 73 66 62 56 54 52 56 58 57 53 53 52 52 54 55 58 60 64 67
34 34 37 48 59 68 67 74 81 82 88 90 87 87 90 89 88 76 68 61 56 57 66 73 85 88 80 81 76 69 59 56 56 55 53 53 52 52 53 54 57 58 60 63
32 33 36 42 55 68 69 76 81 85 86 90 91 95 95 89 89 92 88 87 89 79 67 64 60 59 60 59 64 72 75 71 65 56 58 54 52 52 52 52 56 58 60 60
28 30 36 38 44 61 74 84 89 87 89 94 93 87 90 88 88 88 81 73 73 70 62 54 46 45 52 55 52 37 44 71 77 69 58 52 55 56 56 59 60 60 60 60
24 27 30 33 40 51 69 78 85 87 88 87 91 94 91 87 87 84 87 83 79 71 63 61 54 48 48 48 41 33 49 57 73 77 76 59 54 60 62 61 61 61 59 58
21 21 25 34 39 46 61 80 83 87 86 89 95 94 93 89 91 91 87 82 77 74 69 65 58 55 60 53 31 26 46 64 74 84 83 75 66 63 63 61 59 56 56 57
19 21 26 32 35 41 48 72 86 88 85 87 87 91 91 86 87 88 86 80 78 72 73 66 56 65 75 58 42 41 52 85 91 94 94 88 74 69 66 64 62 60 59 59
18 23 26 32 31 37 40 45 57 80 85 87 89 90 89 85 89 88 85 83 80 78 73 75 76 73 75 70 54 83 79 89 98 97 95 89 78 74 71 68 65 62 60 58
21 24 27 30 36 38 41 43 45 47 58 67 76 82 84 83 91 92 89 85 84 83 84 84 88 92 94 93 69 71 83 94 96 98 95 92 85 78 76 72 68 65 61 58
25 23 23 30 37 38 38 39 40 43 44 42 47 55 71 81 88 92 94 92 90 89 92 94 94 96 96 97 97 91 87 85 91 98 97 94 92 85 79 76 71 69 67 65
30 29 30 35 35 35 32 37 37 37 38 39 39 39 45 68 89 90 98 96 96 93 95 98 97 97 94 94 97 98 96 98 98 97 98 96 95 89 84 78 73 72 70 69
37 37 38 38 40 36 36 36 37 36 36 34 37 39 45 52 71 95 96 95 97 96 97 99 98 98 98 92 92 93 95 98 98 99 99 95 94 93 87 78 71 67 62 63
48 46 47 46 43 41 39 38 36 36 36 36 38 41 43 56 66 82 98 98 98 98 98 96 97 97 98 95 92 90 91 92 95 96 94 93 94 91 83 72 72 70 66 65
58 58 55 51 48 46 45 43 43 43 40 41 44 46 47 57 57 65 87 98 98 96 94 95 94 92 94 97 96 89 83 84 87 88 94 91 83 80 75 71 69 68 68 65
62 61 61 59 58 55 51 49 49 52 52 53 48 50 50 46 52 56 58 82 80 80 81 86 92 94 93 97 96 93 82 80 75 80 84 81 83 83 76 70 68 71 68 64

GFSNW_prec_cthk_042.txt.gz
RH
24 24 25 23 21 22 30 38 54 55 61 59 53 55 53 53 54 54 56 62 61 60 60 65 75 81 80 85 85 87 82 92 92 88 84 85 81 82 80 91 91 86 80 62
23 25 25 22 19 25 29 39 51 57 64 65 52 50 54 56 54 53 53 54 53 53 56 61 61 63 73 84 82 84 82 90 97 97 96 93 92 87 83 84 87 85 81 62
25 25 25 23 19 21 30 40 52 57 65 66 64 57 54 61 55 52 48 49 52 53 52 56 61 61 61 65 74 80 78 83 85 84 77 80 91 90 88 87 92 76 75 64
28 26 24 23 20 19 32 42 53 66 66 69 68 63 59 61 61 55 54 54 57 60 61 60 62 62 62 64 62 66 71 78 78 78 79 79 80 82 86 88 79 82 66 70
30 27 25 25 25 23 25 37 52 65 72 74 71 72 68 62 64 61 62 60 62 62 68 67 66 61 61 61 60 58 61 68 66 69 68 71 75 75 81 82 84 80 77 70
32 29 27 27 28 30 34 36 51 70 67 76 80 75 77 74 72 68 67 67 66 67 70 71 72 68 60 58 61 63 62 63 63 64 61 61 65 57 61 64 66 66 72 55
33 32 29 29 31 33 37 42 44 54 66 70 84 78 71 76 75 79 73 71 70 69 71 71 73 74 69 64 62 59 59 60 64 70 65 72 47 47 46 49 51 52 49 50
34 36 34 33 34 36 39 42 47 54 52 68 70 79 77 75 78 80 79 76 75 73 73 70 76 82 77 71 63 64 65 67 70 72 75 57 47 48 50 51 48 47 44 45
35 38 37 35 36 37 39 44 49 58 65 66 63 71 81 81 83 83 81 75 73 71 74 76 75 81 73 77 73 68 66 67 72 80 78 70 57 54 51 50 53 45 45 41
36 36 38 37 37 40 42 47 50 57 65 73 79 66 67 69 73 75 74 69 68 66 66 68 68 68 72 80 77 71 69 70 75 77 73 58 48 56 56 60 53 57 51 47
37 38 37 38 41 42 45 47 49 56 63 65 72 82 73 67 62 68 67 69 68 68 68 68 65 61 58 63 66 70 70 71 72 72 77 68 50 56 61 59 58 56 52 51
36 38 37 40 42 42 44 51 55 60 68 71 73 79 82 81 62 53 57 66 65 66 68 67 65 65 57 55 62 60 67 63 66 63 58 51 54 55 55 56 57 60 57 52
28 33 32 38 40 43 46 53 60 68 71 74 77 82 83 87 83 63 53 52 59 61 58 64 63 65 66 65 60 55 50 54 56 59 55 53 52 53 54 55 56 60 63 67
25 27 27 32 38 42 48 54 61 68 73 81 85 88 92 92 92 88 70 61 59 57 52 53 60 73 77 79 77 76 72 68 58 53 51 55 55 54 54 55 56 57 60 63
21 22 24 29 35 41 51 57 65 68 73 79 84 90 90 90 90 91 91 72 69 75 81 80 74 68 62 55 55 48 49 56 71 74 61 56 56 55 54 55 55 58 59 60
17 19 23 30 35 43 53 62 68 70 75 79 84 85 90 89 89 89 89 89 88 87 80 78 64 56 57 57 54 41 31 29 44 67 78 73 57 57 55 59 60 60 60 61
17 19 22 28 36 39 47 59 66 69 75 76 81 87 85 81 87 90 91 91 91 87 83 77 70 62 61 60 60 37 29 28 39 43 55 76 76 58 51 59 63 65 65 63
18 19 20 21 28 36 46 49 57 69 71 71 76 79 82 84 84 90 91 89 88 86 84 79 74 62 58 60 51 41 39 38 31 49 55 66 88 85 65 60 65 66 64 61
18 20 22 22 25 28 36 42 45 46 51 60 66 73 79 77 83 88 87 86 84 80 82 79 75 70 73 67 64 55 57 59 50 64 76 69 88 91 84 72 65 64 64 60
21 22 22 24 25 28 30 34 38 42 37 36 40 50 64 71 79 86 87 87 84 84 80 79 80 78 77 84 88 73 70 90 93 93 98 91 97 96 94 80 75 69 67 63
24 23 24 27 29 30 30 32 36 36 38 34 35 38 41 49 73 81 87 90 89 88 88 89 90 91 93 91 94 93 82 86 81 97 98 98 98 97 94 88 83 78 71 66
25 25 29 32 34 31 31 33 33 35 35 34 34 35 35 41 51 74 87 92 93 93 92 95 97 93 96 96 94 91 93 89 92 96 92 94 94 95 96 94 90 84 76 70
33 32 34 37 36 32 30 32 32 34 36 35 32 33 35 41 49 59 81 94 96 97 97 98 95 92 97 97 95 92 95 97 92 88 94 95 93 97 96 92 86 81 73 68
39 40 40 42 42 40 42 40 39 37 38 36 34 35 38 43 50 54 73 84 97 99 98 96 87 91 95 97 96 94 92 96 98 98 97 98 98 97 94 93 82 76 70 65
45 46 52 50 47 46 46 46 43 41 39 39 42 41 42 49 50 50 52 82 98 97 95 87 83 87 88 95 96 94 89 90 96 97 98 98 98 98 95 85 76 73 68 64
49 51 54 56 54 50 51 52 50 48 47 45 47 49 50 50 52 51 51 51 57 62 66 64 70 75 83 88 94 97 92 85 84 86 96 97 93 86 78 71 69 68 66 64
50 56 55 57 58 60 60 59 57 55 53 55 52 54 55 55 54 54 54 55 48 41 43 46 52 60 68 77 86 93 97 92 90 91 93 96 92 93 93 77 71 70 71 70

GFSNW_prec_cthk_045.txt.gz
RH
25 23 24 21 19 23 33 41 49 55 60 61 61 56 56 58 59 63 68 66 64 69 78 87 85 84 72 69 73 76 73 77 85 85 82 83 84 82 79 80 75 73 71 57
26 24 24 21 18 20 29 41 49 60 65 64 60 56 56 59 58 58 58 60 59 60 63 70 79 80 82 79 80 81 78 86 90 90 87 86 87 86 78 74 74 76 79 63
27 25 25 23 19 18 29 40 49 59 68 65 65 62 58 61 58 56 55 56 56 55 59 63 66 67 81 86 86 86 82 84 85 87 81 84 87 86 87 84 89 77 69 66
29 27 26 26 24 19 28 35 46 55 64 66 67 67 67 66 62 59 55 55 58 57 57 58 66 65 66 72 83 89 87 88 87 85 84 86 88 88 86 88 79 84 66 68
30 29 29 29 26 23 21 31 45 57 58 64 73 72 74 69 66 66 63 66 65 64 69 66 64 63 63 66 68 71 79 85 78 79 78 79 79 78 79 79 80 77 74 70
30 31 31 31 28 27 28 29 45 53 58 62 73 77 78 71 66 67 70 73 70 70 69 70 72 66 61 59 62 66 66 70 69 70 68 65 66 59 63 67 68 70 82 60
31 33 32 32 31 31 31 33 31 46 54 60 67 73 78 73 76 77 75 75 78 75 74 73 73 72 70 65 62 63 67 66 67 69 62 68 43 42 46 48 49 57 58 54
31 32 31 32 32 33 33 33 37 38 49 62 67 72 83 80 79 84 84 80 79 77 77 75 76 80 79 76 68 68 66 66 68 68 70 52 42 47 49 50 45 43 46 49
30 30 32 32 35 34 34 35 37 43 49 58 64 71 74 84 81 84 85 80 79 78 81 79 79 82 77 83 78 69 68 68 72 75 74 69 51 58 54 52 56 51 49 45
28 29 33 34 34 36 37 35 35 42 53 62 65 65 65 72 84 78 81 79 79 76 75 75 77 75 72 82 79 78 75 72 74 73 76 65 51 52 59 65 55 58 59 52
28 30 32 34 34 38 40 39 39 43 52 63 66 71 71 60 68 80 75 78 77 75 72 72 69 67 62 64 70 75 75 77 73 72 77 71 53 56 61 62 56 58 57 53
27 27 28 32 33 37 41 43 43 48 54 63 64 66 73 76 64 61 69 74 74 74 72 69 65 68 64 59 63 60 68 68 70 69 63 54 55 58 59 61 61 59 62 53
25 25 25 29 33 38 42 43 44 48 56 67 68 69 70 77 80 69 60 62 69 69 64 66 64 64 65 62 58 54 52 56 58 60 51 54 57 56 56 57 60 61 66 66
22 21 23 27 32 39 43 44 47 50 57 68 78 80 81 83 85 86 77 63 58 57 56 51 56 60 63 67 74 80 74 71 70 64 59 61 55 58 60 58 57 58 64 69
17 18 22 27 31 38 42 45 49 54 59 65 70 77 83 85 85 86 88 81 68 64 60 64 71 65 63 66 65 60 53 51 54 53 65 64 59 60 63 59 58 58 60 62
14 15 18 23 29 35 39 46 51 55 61 67 73 75 76 80 85 86 86 88 86 82 77 80 82 79 76 66 64 54 52 47 40 39 37 45 57 65 62 63 62 62 61 62
14 14 15 18 25 32 39 42 47 52 56 63 70 78 74 77 81 92 90 90 91 91 91 89 85 79 76 74 67 55 55 52 40 35 33 30 33 46 75 66 62 66 65 64
15 15 14 16 21 27 33 36 35 37 39 45 53 63 69 69 76 84 88 87 86 87 90 89 87 82 76 74 70 72 70 62 54 51 49 43 35 39 54 85 74 63 67 69
17 17 16 16 19 23 28 29 28 24 27 32 32 38 45 54 68 78 82 84 85 84 88 88 86 85 89 86 86 84 82 74 67 69 66 59 62 57 59 81 90 78 66 69
19 20 19 20 21 22 24 25 27 27 27 28 32 35 38 39 45 67 78 86 88 88 87 89 92 91 91 92 91 88 84 82 74 76 80 82 83 82 68 89 95 94 78 70
20 21 24 27 28 26 27 28 28 29 29 28 29 31 34 37 45 50 66 82 89 94 95 94 97 94 90 94 93 87 88 88 89 86 89 97 96 98 81 93 95 98 90 81
25 23 29 32 31 30 28 32 30 30 30 30 30 30 29 36 45 54 59 78 92 97 98 98 96 83 83 89 90 91 91 93 95 93 94 97 97 98 98 98 98 97 95 92
32 31 33 35 34 30 27 31 35 33 33 33 31 31 31 38 45 49 58 70 87 95 98 96 78 73 79 84 85 91 94 92 95 96 95 96 99 97 95 94 94 93 90 87
42 40 42 45 41 37 38 39 40 38 38 36 38 38 37 40 47 49 54 52 71 84 90 86 73 65 70 74 76 82 88 92 90 96 97 98 98 97 95 98 91 85 81 77
45 45 49 48 47 47 46 47 45 44 43 42 45 43 45 47 50 52 49 54 65 58 52 47 39 40 49 57 63 65 77 87 90 91 94 97 98 97 98 94 82 74 74 73
40 42 46 47 47 49 51 51 51 51 51 50 51 49 52 52 56 53 53 55 52 48 46 34 33 30 29 36 47 53 63 77 89 94 90 95 96 98 93 86 81 79 74 70
41 42 41 42 45 48 52 54 54 54 54 56 57 55 52 58 58 58 61 62 56 42 40 41 38 35 34 33 33 41 47 64 81 95 97 97 97 97 97 96 87 78 74 75

GFSNW_prec_cthk_048.txt.gz
RH
26 24 24 23 20 21 32 43 50 54 61 60 63 62 60 62 67 74 75 72 80 88 88 80 74 75 74 78 71 80 80 86 93 93 90 85 79 77 72 76 73 73 69 52
25 25 26 24 22 19 31 42 51 57 63 63 62 61 59 63 61 64 69 72 68 72 83 83 75 74 73 72 69 67 77 87 93 93 89 82 83 82 79 77 77 72 77 57
25 24 26 24 25 21 27 42 49 57 63 65 64 65 62 65 63 62 61 63 65 63 69 71 82 79 80 74 70 69 73 79 77 77 70 73 80 77 80 81 87 75 63 58
24 25 27 26 26 23 26 34 42 53 60 63 67 69 69 64 62 62 62 61 63 64 63 68 71 69 81 88 85 86 83 86 83 79 76 83 84 82 84 83 78 81 64 66
24 26 27 28 26 25 22 27 41 51 55 60 67 72 76 71 68 68 68 68 65 64 69 67 68 69 70 73 84 95 90 92 85 83 78 84 86 82 86 85 84 87 77 69
26 26 27 28 26 25 27 29 41 46 49 57 66 69 75 74 70 69 74 69 67 71 75 77 75 70 68 67 69 75 77 83 83 80 74 72 73 63 67 72 73 74 80 61
27 25 26 26 25 24 26 29 28 41 46 53 60 69 72 79 78 72 73 71 71 74 75 73 73 74 73 70 69 68 72 73 72 73 66 70 45 44 47 52 52 57 58 52
27 25 24 26 26 26 28 28 31 30 44 51 58 71 75 78 78 82 78 76 78 77 74 75 80 83 80 79 78 74 69 71 76 74 74 53 42 50 51 52 49 49 50 49
28 26 25 27 26 27 27 27 30 35 36 53 59 65 69 72 81 82 81 80 80 80 80 79 80 84 81 85 85 81 78 75 74 80 80 68 45 51 53 57 60 58 59 58
29 27 26 28 27 29 29 28 31 35 43 51 52 54 65 69 75 84 81 78 80 79 80 82 83 82 77 84 83 86 82 78 82 80 75 61 56 56 55 61 62 58 59 62
28 27 27 27 29 31 31 32 32 35 43 52 54 56 58 63 66 81 81 86 81 84 81 77 72 71 67 67 69 77 79 80 80 77 76 74 59 63 63 61 61 62 59 60
28 26 27 28 30 32 32 31 33 36 40 50 51 56 60 67 62 56 76 80 81 84 80 75 70 69 69 63 63 59 67 70 74 77 70 63 64 63 64 64 63 66 64 63
28 28 29 29 31 33 33 31 34 37 44 52 56 60 61 66 74 71 62 70 75 73 70 73 70 64 64 66 62 57 57 60 64 64 61 64 62 63 65 63 62 62 65 67
30 30 29 29 31 33 34 33 35 38 42 51 57 63 72 73 76 83 81 69 67 68 67 61 61 59 58 62 67 71 69 62 58 53 48 47 50 61 64 62 63 61 62 65
29 30 29 28 30 32 33 34 36 39 41 48 54 59 66 77 79 82 85 86 75 69 64 62 61 61 61 61 63 66 62 68 73 71 59 52 47 43 41 57 64 66 64 62
28 29 23 25 28 30 31 33 34 38 40 46 59 60 62 69 78 87 87 86 88 84 80 78 74 73 80 78 78 68 66 69 73 67 63 54 39 40 38 48 63 63 68 68
27 23 22 23 25 26 29 27 27 28 32 36 47 53 55 59 70 80 84 87 91 91 93 92 88 86 89 89 86 80 79 78 76 66 54 50 48 41 35 34 43 68 70 68
26 22 19 22 20 19 15 13 15 19 18 20 26 29 35 35 55 70 77 84 87 90 92 94 93 92 90 88 86 86 81 74 70 65 62 60 54 53 51 45 37 51 72 79
27 25 22 20 19 20 20 18 16 13 17 19 22 27 29 26 33 46 63 78 85 86 91 91 94 94 95 90 90 87 82 78 76 73 69 61 62 65 67 62 50 45 71 77
30 26 20 19 20 19 20 20 19 20 18 21 25 28 28 29 33 41 51 65 81 90 94 96 96 90 80 81 86 87 87 84 80 73 71 69 70 74 72 72 74 62 78 89
31 27 24 26 26 25 24 23 24 25 26 25 26 28 29 32 37 42 45 60 72 90 97 97 94 84 76 80 81 81 85 85 83 83 80 81 81 80 81 79 79 83 98 98
33 32 29 29 29 29 27 33 30 30 28 31 31 32 30 34 38 44 45 57 70 82 90 94 88 75 67 69 75 76 75 79 81 83 88 88 89 88 90 84 88 93 97 98
41 37 36 34 32 30 26 31 36 35 36 38 35 33 33 38 41 43 45 50 57 60 77 83 74 56 50 50 49 54 65 69 71 78 83 92 92 89 92 95 97 95 97 98
46 43 46 44 41 37 37 37 38 38 41 40 42 43 42 43 46 49 48 47 51 64 69 65 50 34 32 33 33 31 31 41 60 69 79 85 94 95 95 94 92 89 85 85
46 45 49 50 47 48 47 47 44 44 45 46 48 48 48 49 51 53 47 47 55 59 51 45 40 35 31 31 30 29 29 30 33 49 63 84 89 96 97 96 97 88 86 84
43 44 46 45 44 46 47 46 47 47 50 51 52 51 54 51 55 56 55 52 50 48 49 41 37 39 39 36 34 32 33 33 34 34 47 60 89 96 97 97 97 94 95 87
42 40 38 39 40 41 43 45 49 51 53 55 54 51 48 54 58 58 56 58 55 51 42 42 43 43 40 39 39 42 45 45 43 41 38 48 75 94 98 98 96 97 94 84

GFSNW_prec_cthk_051.txt.gz
RH
25 22 23 24 23 23 32 37 42 50 58 61 61 67 65 66 76 81 83 86 92 72 64 60 69 75 86 87 85 82 82 88 90 89 80 78 71 65 64 70 66 64 62 52
25 22 23 24 24 22 31 37 43 51 58 60 64 64 65 65 65 73 78 76 83 90 90 85 77 72 81 84 79 80 76 83 91 92 86 83 83 83 78 74 71 72 68 53
26 23 23 24 24 23 28 36 42 50 57 62 67 67 71 68 66 68 69 73 69 76 85 82 85 82 80 79 77 68 63 79 78 79 73 78 84 80 78 76 80 73 56 52
28 25 24 24 24 23 25 31 36 45 55 62 65 70 72 67 62 64 66 66 68 65 70 80 83 78 80 80 78 68 67 75 77 74 72 75 74 74 77 77 71 72 50 51
28 25 23 23 23 23 22 26 33 43 49 57 65 69 73 72 65 63 68 67 63 63 68 67 70 74 79 84 86 88 81 87 79 79 75 77 78 79 83 81 79 77 72 65
29 26 23 23 22 21 22 27 31 38 44 55 62 65 67 72 71 70 65 71 64 70 72 73 72 68 68 68 75 86 93 92 89 85 80 75 73 67 67 72 75 76 79 65
30 27 24 25 24 23 22 22 30 36 42 50 54 61 64 73 77 73 70 68 67 74 73 72 72 71 71 70 70 67 73 74 74 75 68 69 50 49 50 53 53 58 59 56
32 28 26 26 25 23 24 23 24 30 42 46 54 62 70 72 75 81 73 72 70 74 75 75 76 79 77 79 78 76 70 70 76 76 76 58 53 56 55 55 57 59 61 61
32 29 28 28 26 24 24 24 26 26 36 48 52 59 70 76 77 79 79 76 74 76 80 79 80 85 79 84 86 84 82 79 76 84 84 74 59 57 56 56 65 66 67 65
33 31 31 31 29 26 26 27 28 30 36 45 46 52 63 67 71 73 76 74 79 79 83 85 85 84 76 81 83 87 88 90 90 87 83 72 61 63 65 68 68 68 69 67
33 33 36 33 33 28 26 25 27 30 37 44 45 45 47 57 67 73 74 79 82 84 84 85 87 82 76 71 69 74 81 85 86 84 83 80 67 69 75 75 69 67 67 69
33 39 41 34 35 32 26 24 26 28 32 42 44 46 51 54 56 62 72 83 83 84 88 85 80 77 73 69 64 63 67 67 74 78 78 72 74 73 73 69 67 66 64 68
38 39 34 37 38 33 27 26 27 30 35 43 46 49 53 56 62 60 54 69 79 79 77 84 80 74 71 70 67 67 64 65 66 64 62 64 63 66 65 62 57 57 63 63
44 42 37 35 37 34 27 28 30 31 35 44 52 54 58 62 67 70 68 62 62 69 72 73 75 72 66 65 65 69 67 62 59 55 54 50 49 49 50 43 46 58 59 59
42 38 34 38 37 33 29 28 29 30 32 40 48 50 52 58 64 69 75 75 69 68 64 68 67 66 64 64 62 63 62 65 72 70 72 76 67 61 56 51 48 45 53 59
38 35 36 37 36 31 29 26 28 29 32 39 45 42 43 48 56 64 68 73 75 74 72 76 79 76 78 80 75 71 78 87 86 81 80 77 67 59 58 52 47 40 42 55
33 35 34 36 32 32 22 20 20 20 22 27 33 31 30 29 41 53 61 66 73 75 78 80 84 84 87 88 90 91 94 95 93 90 82 74 69 60 60 59 55 51 38 40
38 35 35 29 28 19 18 18 16 14 13 13 20 23 27 24 30 39 48 59 68 75 84 89 93 92 95 93 89 91 94 92 91 90 86 79 72 70 66 61 61 57 54 38
44 35 32 33 27 21 18 14 13 13 15 13 17 23 24 25 29 37 45 53 63 70 78 82 86 87 84 77 78 83 86 87 84 83 81 80 77 74 71 67 67 63 60 53
38 38 36 37 29 23 21 18 17 18 14 16 21 25 26 26 32 37 43 50 58 69 73 80 73 72 64 64 69 74 74 72 72 73 74 77 81 79 78 76 72 69 64 62
41 40 41 34 29 25 20 18 21 21 20 22 24 26 28 31 36 40 41 50 56 65 68 75 74 68 56 54 51 51 52 56 59 62 65 70 74 78 80 83 80 79 73 70
48 43 40 38 33 25 24 29 27 27 27 32 32 34 32 35 39 45 46 50 54 57 56 61 62 52 44 43 39 36 34 34 35 36 38 46 62 73 81 84 82 85 85 92
51 44 44 39 34 32 26 30 32 34 36 39 39 38 39 43 45 49 50 52 59 56 57 57 50 41 31 29 30 29 27 25 25 25 27 28 33 50 68 84 86 89 94 97
46 45 49 47 45 40 37 36 37 37 42 43 45 48 48 51 51 54 50 55 60 61 63 60 56 45 36 32 30 29 28 27 27 27 28 29 31 34 46 66 84 93 95 89
53 52 54 55 52 52 50 50 49 48 47 47 50 52 53 57 55 58 54 52 59 64 64 61 54 50 43 36 35 34 33 32 33 36 36 34 34 35 37 48 68 87 93 94
52 54 56 54 49 49 48 44 43 44 45 46 48 52 56 55 57 57 56 60 59 58 60 50 47 45 43 43 42 40 40 42 43 44 43 42 39 38 39 42 56 74 92 96
50 50 47 45 41 42 42 43 44 46 47 50 50 50 50 55 59 60 57 57 54 55 51 47 47 46 47 46 45 45 48 49 47 42 39 43 42 40 39 41 51 69 92 96

GFSNW_prec_cthk_054.txt.gz
RH
33 24 22 22 22 25 33 39 41 46 50 55 57 66 64 69 80 84 89 90 62 55 57 57 66 73 80 87 84 84 81 81 92 92 80 72 69 63 58 59 64 56 51 37
31 26 22 22 23 22 33 39 40 46 50 54 55 60 61 64 67 75 81 85 92 68 62 61 63 73 79 86 82 78 78 83 92 95 89 80 76 66 60 59 60 63 60 54
32 28 23 22 22 20 30 36 41 46 50 54 57 62 63 63 67 70 72 74 77 85 77 72 69 74 80 82 77 78 75 77 78 69 68 66 71 68 67 67 72 65 62 58
34 29 23 21 21 20 27 31 35 40 48 53 55 61 65 62 64 66 67 70 70 71 79 78 76 80 81 80 81 75 68 75 78 71 71 73 72 72 75 77 65 65 58 55
36 31 24 22 21 21 26 26 30 37 44 51 56 58 63 61 63 66 65 63 64 63 66 70 74 73 77 78 82 80 74 78 71 74 70 74 75 71 69 68 64 66 67 62
37 32 25 23 21 22 22 23 27 34 40 50 54 55 60 64 66 65 66 68 65 66 70 70 70 71 72 72 82 87 84 78 78 76 72 71 70 64 64 65 67 66 68 64
39 33 27 23 22 22 23 23 28 31 38 45 50 53 59 64 68 68 65 61 64 71 72 70 70 70 71 70 70 73 80 86 85 83 75 72 60 59 58 57 55 55 58 60
39 35 29 25 23 23 24 24 27 30 35 41 50 53 58 64 69 73 67 67 68 69 71 71 72 75 75 75 74 71 68 67 73 71 65 56 60 58 58 58 62 60 59 58
39 34 31 27 25 24 26 26 23 26 32 41 49 52 58 68 69 69 71 71 70 71 73 72 73 75 77 80 82 80 77 73 70 70 73 67 60 61 61 58 62 63 62 62
38 36 34 32 30 27 28 27 23 26 32 41 44 47 53 64 68 70 73 76 74 72 72 72 75 76 73 76 74 77 81 83 85 82 76 68 68 67 66 65 67 65 65 64
35 35 35 38 33 30 28 27 25 24 31 38 38 42 48 54 61 67 67 74 75 76 76 74 74 74 76 74 71 71 71 76 79 80 77 74 69 71 71 72 69 66 65 64
36 37 39 42 35 34 26 26 27 24 25 37 38 38 38 41 50 62 69 73 76 83 82 79 81 79 75 68 64 65 69 66 67 69 76 76 76 76 74 70 67 64 61 61
35 41 42 40 43 37 30 28 27 23 29 36 40 42 44 47 48 45 55 69 74 76 85 91 85 79 75 69 67 67 66 64 66 59 61 61 62 66 69 67 66 61 57 56
38 43 46 43 37 33 31 29 29 29 30 38 46 44 44 48 52 55 53 57 61 64 71 76 79 76 76 73 68 64 61 56 57 54 53 55 62 64 63 59 55 51 47 46
42 48 43 35 42 37 34 32 32 28 27 33 39 38 41 48 50 52 53 57 63 64 63 65 69 69 66 63 61 60 59 63 66 65 68 72 75 74 73 65 62 60 57 50
46 41 40 41 41 36 34 37 28 26 26 25 29 27 31 37 43 46 48 52 56 61 65 67 67 70 76 72 71 76 77 80 81 79 79 79 77 77 76 70 66 61 58 55
43 42 40 44 37 32 37 24 22 26 23 21 28 27 24 30 36 39 42 50 54 57 62 67 69 70 72 75 73 78 86 90 89 84 81 80 82 80 78 73 70 66 59 57
42 39 37 41 34 38 28 21 19 19 13 11 20 24 26 28 32 37 40 45 51 56 61 67 71 77 83 80 78 81 84 79 81 81 79 76 75 77 77 75 73 69 64 61
41 35 36 38 37 30 25 23 16 14 12 12 16 21 25 26 32 37 41 43 47 48 53 57 64 67 69 67 63 64 65 70 71 69 66 65 67 68 69 71 75 73 69 66
38 31 35 34 38 26 24 22 17 15 13 14 21 25 24 28 34 35 38 42 45 50 51 55 57 55 52 50 53 56 58 49 45 46 45 43 41 44 50 60 68 70 74 72
35 37 35 38 42 31 25 20 20 19 20 22 25 27 28 32 36 37 40 43 46 50 54 57 55 48 39 39 40 34 34 34 32 32 32 33 34 34 37 39 46 58 72 78
39 37 36 43 40 29 28 31 26 23 26 31 32 35 34 39 40 42 46 48 50 55 59 61 56 46 35 31 29 31 29 28 27 28 27 27 28 30 31 33 37 45 54 70
42 33 40 45 40 37 33 31 31 32 32 34 35 39 42 46 47 50 51 55 57 60 60 56 55 45 38 36 32 32 31 30 30 32 34 35 35 35 36 36 36 40 45 54
39 42 51 49 47 44 37 32 34 35 37 38 41 47 50 53 52 56 58 59 65 66 62 60 54 46 45 47 46 44 43 40 38 39 39 39 40 40 41 41 42 41 44 48
42 46 54 55 56 51 46 45 47 47 46 45 46 46 47 52 52 56 57 59 62 61 63 61 56 54 53 54 55 51 43 41 40 41 42 43 42 42 41 43 43 45 46 48
52 56 64 64 60 58 54 50 47 42 41 41 41 45 48 50 51 56 59 61 60 60 61 54 53 52 48 45 45 44 42 41 41 42 39 35 33 32 33 39 47 47 49 50
59 65 58 53 44 43 45 45 44 41 41 43 43 43 44 49 53 56 55 56 56 54 55 56 51 44 43 40 37 33 31 30 34 34 39 47 53 49 46 44 50 54 51 52

GFSNW_prec_cthk_057.txt.gz
RH
76 56 32 24 21 22 31 39 43 43 48 54 53 60 61 65 73 84 76 65 61 61 56 63 69 79 83 85 85 84 82 81 85 86 84 79 73 68 66 65 65 48 49 45
79 56 31 25 21 22 31 41 39 42 49 55 50 54 57 61 68 75 82 66 55 57 59 63 68 76 79 84 82 83 79 80 92 90 77 71 73 68 65 60 62 63 58 49
82 52 30 25 20 20 30 38 40 43 49 52 51 53 55 57 62 68 71 76 74 61 58 59 63 74 79 81 80 78 78 76 75 76 72 66 69 65 66 63 68 59 55 51
84 49 29 24 21 20 27 34 37 35 45 48 50 55 54 55 59 64 68 68 72 76 73 68 68 66 74 79 80 77 76 80 79 72 72 72 71 64 64 70 64 67 60 61
72 47 32 25 22 20 26 29 30 35 41 45 50 52 55 56 59 62 61 63 64 65 73 73 70 70 77 78 78 75 70 76 70 77 71 71 71 68 68 71 72 70 67 62
70 43 33 25 21 20 25 22 24 33 38 45 49 48 51 54 56 61 64 64 62 63 68 69 71 73 76 75 77 79 75 73 75 73 65 64 63 59 62 66 66 65 65 62
70 44 33 25 21 20 22 21 26 31 37 43 46 46 50 54 57 57 59 59 64 67 68 67 65 66 65 67 71 76 80 81 77 77 68 71 58 55 55 58 59 59 58 60
66 45 34 25 23 21 22 24 28 30 35 40 45 46 52 54 58 59 60 58 59 63 66 67 71 72 70 68 66 66 67 71 78 82 71 61 62 60 62 65 73 66 65 62
62 43 34 27 25 24 24 25 30 30 33 40 43 46 51 54 58 59 59 60 61 62 66 69 73 76 72 74 74 70 67 66 64 63 65 61 63 59 60 59 64 64 59 58
57 50 33 31 29 28 27 27 28 29 32 40 43 44 49 55 56 57 59 62 64 65 70 75 71 73 70 78 81 77 78 78 80 80 75 65 63 63 67 72 71 69 63 58
56 51 33 35 34 31 31 27 26 26 33 41 43 44 46 52 53 56 57 62 67 70 74 76 75 73 71 72 71 71 72 74 74 74 81 76 68 70 70 70 66 64 62 61
56 43 34 37 37 34 36 30 32 24 30 37 38 38 41 44 49 52 56 61 64 72 77 70 75 72 74 69 67 63 62 55 59 58 62 62 64 67 68 67 66 61 56 56
54 39 37 39 38 38 41 33 32 27 30 34 34 35 33 35 38 45 53 59 61 67 75 78 79 75 73 66 63 64 61 59 60 54 56 56 54 54 53 52 58 60 59 54
49 44 41 42 40 42 33 29 30 29 29 34 39 38 38 38 38 36 37 48 59 62 67 69 78 77 75 73 71 67 66 60 59 56 54 54 54 59 63 63 62 61 57 54
46 44 45 44 42 38 32 32 35 31 30 32 40 40 41 40 39 40 38 40 47 51 58 62 68 71 71 68 65 63 60 60 62 62 69 70 69 70 70 71 70 69 67 63
45 56 49 42 38 38 36 36 33 32 21 22 30 34 39 37 38 40 38 37 42 45 50 53 57 58 61 62 63 67 71 77 83 84 86 84 79 79 82 80 77 76 74 71
48 54 46 40 40 39 34 36 30 28 16 16 27 27 28 33 34 36 37 38 41 45 45 49 50 55 58 64 64 64 70 81 84 87 85 77 74 76 75 77 76 76 79 79
50 47 44 42 43 38 33 35 32 22 14 13 24 28 27 30 33 33 36 39 41 44 47 49 52 53 59 61 60 65 68 70 70 69 68 69 66 59 54 58 60 63 68 73
48 49 45 43 42 32 34 34 28 16 12 16 19 27 27 28 33 38 38 38 41 42 44 47 51 52 54 50 49 48 50 49 53 51 46 44 42 40 40 39 40 44 49 54
55 44 40 42 38 34 31 22 17 17 14 14 21 24 28 31 34 36 39 43 44 47 44 47 47 45 43 39 39 40 39 35 32 35 36 34 33 33 31 30 30 32 34 39
50 44 36 37 38 35 26 24 27 24 24 21 23 26 29 33 39 39 42 46 48 54 54 51 50 43 38 36 33 32 31 30 30 31 29 30 31 32 34 33 33 32 32 32
42 28 31 38 39 41 34 32 30 31 29 27 29 29 33 37 41 43 50 54 56 59 61 62 60 54 43 33 30 33 34 33 31 32 33 34 37 39 38 36 35 35 35 36
33 33 33 36 39 47 44 36 38 37 30 30 31 33 37 43 48 51 53 57 55 60 62 60 60 54 44 38 36 37 40 42 41 42 42 43 44 41 38 36 37 37 38 41
38 32 37 44 41 42 42 42 40 36 35 35 37 43 52 49 49 51 54 52 57 59 60 60 57 51 48 48 49 51 55 55 52 48 42 39 38 34 32 33 32 32 33 37
33 37 45 45 50 51 55 54 46 42 43 45 48 44 44 47 48 46 50 52 54 53 53 57 54 51 51 52 51 51 46 42 38 34 31 31 30 29 34 39 42 38 35 37
37 43 49 50 54 61 61 58 52 48 47 43 42 43 44 47 46 48 52 52 50 49 52 51 48 50 51 47 44 39 36 30 27 27 30 31 32 42 46 52 64 73 64 58
44 50 51 57 63 68 61 52 47 45 47 44 42 41 44 45 47 48 46 47 47 46 45 43 44 43 42 38 32 27 25 26 31 33 35 41 49 55 66 65 73 77 69 66

GFSNW_prec_cthk_060.txt.gz
RH
99 98 91 59 36 28 31 35 43 39 44 52 50 57 60 65 73 71 61 59 64 68 62 63 71 83 77 74 71 72 78 77 92 92 91 86 81 79 75 86 78 66 68 59
99 98 86 62 34 26 32 36 40 40 45 53 50 50 55 62 68 76 62 56 62 68 61 66 72 76 82 83 80 81 79 84 93 93 84 83 82 77 75 72 74 75 68 53
99 97 85 56 32 27 33 34 38 41 45 50 51 48 51 58 63 64 63 61 53 58 60 63 67 76 78 82 83 80 83 80 82 86 78 71 76 73 74 74 80 67 60 51
99 97 84 51 29 27 34 35 37 31 42 47 50 49 48 52 58 61 62 63 70 62 64 69 69 71 80 83 81 80 81 84 81 77 80 81 77 72 68 73 69 71 59 54
99 96 84 42 28 28 30 30 33 32 39 42 46 50 50 53 54 60 57 59 60 70 71 69 70 66 71 76 82 80 78 80 75 85 76 75 76 72 70 69 70 70 67 66
99 94 80 35 28 24 27 27 26 29 37 43 46 47 49 51 49 56 54 57 58 63 71 66 67 67 67 72 73 74 76 78 80 75 64 62 66 59 63 66 68 68 73 66
98 91 71 35 28 23 22 22 24 32 36 42 44 48 48 50 49 50 51 55 58 58 59 65 67 68 68 71 74 75 77 78 80 82 69 75 57 54 54 58 62 62 62 63
97 90 69 38 27 23 22 22 25 31 37 42 44 47 49 50 50 49 48 48 51 55 58 60 65 69 70 70 68 68 71 75 81 86 79 65 64 58 59 62 69 65 64 61
96 87 66 40 26 23 23 24 27 31 36 41 43 46 48 52 51 52 50 51 51 55 59 61 66 69 64 67 67 64 64 63 67 65 68 63 64 61 60 59 71 64 64 63
93 85 64 36 25 23 25 26 32 30 34 38 40 45 49 50 50 52 54 53 55 56 62 66 64 70 63 68 69 68 67 69 73 76 76 67 65 65 66 72 71 70 71 70
94 87 57 32 28 27 29 30 33 32 33 41 40 40 45 48 47 50 49 55 57 61 68 70 70 68 64 67 69 69 73 74 75 74 81 80 71 74 75 75 73 73 71 68
93 86 66 34 32 32 34 35 33 33 33 42 40 41 45 47 48 49 48 52 55 60 67 66 69 67 67 66 73 67 71 67 72 67 70 64 62 58 64 65 69 71 66 62
88 81 63 39 38 35 34 33 34 37 38 39 40 41 43 44 46 48 49 48 50 55 59 63 68 70 73 70 67 68 64 59 60 56 61 59 61 61 60 61 59 60 61 62
85 80 52 41 41 39 39 37 34 36 35 35 39 38 36 36 38 42 46 49 49 52 54 57 62 67 67 71 72 68 67 63 60 62 62 62 63 64 67 68 67 68 69 68
86 69 48 44 41 43 41 35 33 34 32 37 40 39 38 37 34 31 35 41 44 45 47 54 56 55 60 61 61 60 61 62 65 71 73 75 75 74 73 73 72 72 70 70
67 57 51 45 45 43 39 36 33 33 33 32 44 42 41 40 39 36 34 35 35 36 38 40 40 42 47 47 50 49 53 56 63 71 79 81 81 76 73 72 70 69 71 74
69 58 51 47 46 41 39 36 32 32 26 24 31 34 38 37 37 37 37 35 34 35 35 38 38 38 38 45 47 45 46 54 58 65 70 71 69 68 67 60 54 51 51 54
55 70 58 46 46 42 37 33 30 21 17 20 26 30 31 33 35 37 37 37 37 37 38 38 40 42 43 48 44 45 47 49 50 53 51 52 51 45 41 38 37 35 34 33
73 60 46 49 49 42 36 32 24 17 15 18 24 30 32 30 35 38 39 40 42 38 41 41 43 47 50 45 45 43 46 42 37 36 34 30 29 29 31 32 31 31 29 29
66 57 55 56 50 42 35 31 21 17 16 16 25 25 30 33 36 38 40 42 45 46 48 46 49 48 45 46 46 46 38 35 35 33 28 30 30 31 27 29 31 34 35 32
61 54 55 53 46 37 30 25 25 23 24 23 25 26 29 34 37 39 41 45 48 51 57 53 54 56 51 51 46 41 41 39 37 35 36 37 36 39 38 39 40 37 35 32
53 49 42 39 39 30 31 35 30 30 29 28 30 32 31 35 37 40 46 51 53 54 58 57 56 57 54 51 43 42 40 40 40 41 42 41 42 46 48 43 37 32 29 27
57 38 32 30 36 42 43 42 43 37 33 34 34 36 35 37 43 47 48 54 55 54 57 54 55 51 47 43 40 41 42 45 48 50 50 48 41 39 38 30 28 32 31 31
41 32 31 32 37 47 56 55 44 38 36 37 37 38 42 47 49 48 51 50 50 50 55 53 51 45 44 43 47 47 50 50 46 41 38 34 28 26 24 23 31 33 34 35
37 29 31 37 46 52 54 48 47 44 41 40 43 44 47 49 48 46 47 51 52 51 50 51 45 41 41 44 46 43 39 36 31 28 27 27 27 27 27 32 40 47 53 54
30 34 40 45 50 59 56 53 54 53 54 46 43 48 49 49 47 46 48 50 49 45 45 45 41 40 41 40 37 33 29 28 29 29 30 29 31 33 36 40 51 60 64 67
38 42 43 49 51 57 57 62 59 54 50 51 48 47 50 48 48 46 43 44 41 40 39 37 36 36 35 33 29 28 27 27 28 29 29 31 34 40 47 52 48 56 60 59

GFSNW_prec_cthk_063.txt.gz
RH
82 73 92 94 88 73 50 36 38 41 43 48 52 56 61 60 61 59 52 61 70 66 56 61 71 77 72 72 75 75 75 84 88 88 84 81 79 75 73 82 75 75 71 62
87 82 95 92 89 69 46 37 39 42 46 50 49 52 58 64 66 57 58 57 63 65 59 64 73 68 70 68 68 72 74 80 90 90 84 80 82 78 75 76 74 76 77 66
85 87 97 94 84 67 41 35 41 43 46 49 51 50 56 63 64 60 52 53 56 56 63 65 73 76 76 75 72 69 69 76 78 80 77 75 81 78 78 79 87 76 74 66
89 98 98 93 77 65 40 33 33 32 42 47 47 46 51 58 60 61 59 60 62 55 58 58 67 71 76 81 79 79 79 81 78 76 75 73 71 72 76 78 75 75 64 66
89 99 98 93 80 61 40 34 36 33 36 40 44 49 51 54 58 59 60 60 65 68 61 65 65 65 68 74 77 77 79 82 78 83 76 76 76 74 71 70 72 70 67 65
96 98 97 94 82 45 38 30 30 31 38 43 44 49 49 52 54 59 57 57 60 67 70 58 60 60 62 66 71 73 74 74 79 80 69 70 75 72 70 70 70 70 73 70
96 98 96 93 60 38 32 25 28 34 42 40 42 46 49 51 48 54 54 54 54 56 57 62 61 63 67 69 69 72 76 75 78 80 70 73 58 55 57 66 70 70 70 71
99 99 98 91 45 38 30 25 30 32 40 40 43 45 50 49 48 48 50 51 50 53 55 60 64 69 64 70 72 71 73 76 80 82 81 69 65 65 65 65 73 72 71 69
96 98 96 78 49 34 28 25 29 33 37 44 44 46 50 49 49 50 47 47 50 53 56 58 62 68 64 73 69 65 69 69 70 72 74 72 67 68 66 65 76 69 68 67
94 98 96 72 44 32 27 26 29 36 39 43 44 48 50 47 47 48 48 48 50 52 56 59 60 64 58 66 67 66 67 69 74 77 81 76 71 70 71 76 76 75 76 77
98 98 91 61 39 29 28 28 32 36 38 44 45 46 48 44 43 47 46 49 51 54 57 59 59 59 56 59 62 62 65 71 74 80 86 85 71 73 78 78 80 81 82 79
98 97 88 54 39 29 31 31 36 36 36 44 47 48 50 48 47 45 46 47 50 53 54 56 59 59 59 60 65 61 67 65 71 67 70 62 62 63 63 62 62 61 60 60
97 96 88 51 36 30 33 36 37 35 41 46 47 47 48 48 49 48 46 48 49 51 53 54 56 57 59 59 60 60 60 58 61 60 63 61 58 60 60 59 60 63 64 64
97 98 81 42 38 38 40 41 39 39 42 50 49 46 46 46 47 48 48 44 44 50 50 51 53 53 52 56 55 58 60 59 61 64 66 65 66 66 69 71 73 73 69 67
98 98 85 46 42 41 39 40 40 41 39 44 47 46 45 43 42 43 44 46 44 44 46 49 50 49 48 47 47 48 48 51 53 55 58 61 67 70 72 69 69 67 66 63
98 92 68 53 46 46 44 42 39 39 38 37 45 46 42 40 36 34 35 39 41 40 39 42 41 41 40 37 40 34 37 39 40 45 50 56 60 58 60 60 59 57 52 49
98 81 65 57 54 47 41 35 33 35 33 36 45 47 45 42 40 37 33 31 32 31 33 36 35 35 36 39 40 35 38 41 43 49 48 48 49 48 45 43 40 37 38 38
71 69 62 60 51 46 43 38 34 31 25 22 31 43 42 40 39 38 37 34 33 34 37 37 37 37 36 42 38 40 43 45 47 47 44 43 41 39 37 34 31 31 30 29
71 68 63 57 51 50 40 34 29 20 14 22 27 34 36 36 38 37 37 39 41 38 42 44 45 47 48 41 42 44 47 47 45 40 37 37 38 37 36 35 36 36 35 35
73 71 62 55 50 45 39 34 20 15 16 19 31 27 32 34 36 38 39 40 45 45 48 49 51 51 48 48 50 52 50 43 40 39 41 41 41 39 40 40 41 42 43 42
81 68 62 58 47 41 33 24 21 21 25 25 29 27 31 36 39 40 40 45 47 50 57 55 53 54 51 51 50 48 43 40 41 42 42 42 42 43 46 47 45 41 36 35
69 58 58 54 50 40 31 32 27 26 27 28 27 28 30 36 39 39 43 49 52 52 55 53 51 51 48 50 46 39 38 40 40 40 40 44 47 44 38 36 34 28 33 34
63 60 55 51 40 35 35 37 36 36 32 31 29 32 32 38 41 45 50 54 57 53 55 51 48 45 44 42 38 36 38 40 41 44 42 38 34 31 29 29 28 28 31 33
57 49 47 40 39 36 38 30 30 33 30 30 32 37 42 46 50 50 52 53 51 52 53 49 43 40 38 36 36 37 39 39 36 33 26 25 26 26 26 28 30 33 35 37
45 37 31 38 45 50 53 51 45 40 37 35 38 42 47 53 53 51 50 52 53 50 45 42 39 38 35 36 39 38 35 30 24 24 24 25 26 25 25 29 33 41 44 49
39 35 35 41 43 53 51 49 47 45 43 42 41 48 53 54 52 50 48 47 46 38 39 38 38 35 35 37 35 31 26 23 23 25 25 24 23 22 20 18 22 25 32 43
41 37 33 40 46 59 57 51 50 50 48 55 54 50 53 53 52 50 46 43 35 34 37 38 37 34 34 32 27 25 23 23 23 22 21 20 17 16 17 17 19 25 32 37

GFSNW_prec_cthk_066.txt.gz
RH
69 98 92 77 93 92 87 86 63 45 47 51 52 52 56 52 47 49 58 67 67 60 60 67 72 70 72 72 71 73 73 76 84 82 75 75 73 68 67 74 71 73 66 55
95 98 92 98 95 88 86 87 57 49 50 53 52 50 55 54 51 51 57 62 63 58 58 67 67 66 66 68 69 70 68 78 88 84 75 73 74 70 69 69 73 78 73 67
93 95 97 89 97 94 87 78 52 50 49 52 51 52 56 59 51 50 56 57 59 58 56 56 62 65 62 64 65 66 65 74 74 76 72 75 79 75 75 75 85 78 78 68
98 92 95 98 98 94 90 66 41 38 45 50 53 53 56 56 52 49 51 55 54 53 58 62 67 63 67 65 63 63 64 71 73 73 72 73 72 74 76 75 75 79 71 73
98 99 88 99 98 96 91 53 38 35 39 46 53 54 55 54 57 45 48 54 53 50 53 57 61 65 68 70 72 72 72 80 75 79 72 72 73 72 72 73 74 76 77 79
96 98 95 95 97 97 78 43 35 29 40 48 50 48 48 55 56 56 53 56 65 67 58 56 56 60 62 67 70 71 74 73 78 81 74 70 73 69 73 74 73 74 79 79
97 98 97 98 98 95 81 36 33 33 42 45 46 49 48 55 55 55 54 55 57 62 62 59 57 58 61 62 64 68 71 72 73 76 68 74 60 59 64 73 73 74 75 77
97 98 98 98 98 98 77 35 33 33 43 46 50 55 52 55 55 55 51 52 51 53 56 61 65 65 59 60 63 64 68 72 76 76 76 66 64 64 62 64 71 69 70 72
97 96 98 98 98 82 47 34 34 33 40 50 53 57 49 54 53 55 53 51 51 53 56 59 60 65 62 66 64 62 64 67 69 74 73 69 60 61 62 63 69 67 67 68
95 95 96 97 96 63 47 31 35 37 42 48 52 51 50 51 50 51 50 49 52 53 55 59 59 59 53 64 64 63 67 66 69 70 69 62 57 62 65 70 65 69 70 71
97 95 98 98 83 54 45 31 34 40 43 50 50 49 49 47 46 47 46 50 51 54 55 58 57 55 54 57 57 58 60 64 67 69 72 70 60 66 70 68 66 66 65 66
97 98 98 96 74 47 36 31 34 40 42 51 52 52 51 48 47 45 46 45 47 48 51 51 55 54 55 55 62 56 61 55 60 59 57 54 55 58 59 59 58 56 54 55
98 98 98 85 59 41 32 32 34 39 45 48 53 53 51 49 49 47 47 47 47 48 47 52 55 53 54 55 56 56 55 53 55 55 56 59 61 61 60 58 57 59 63 64
97 98 95 72 53 38 34 34 38 40 41 49 53 52 50 48 48 47 45 45 48 50 49 50 53 51 51 56 52 54 54 52 54 57 57 57 58 60 58 60 62 62 60 59
98 98 87 68 49 41 36 38 40 41 41 51 53 48 48 47 47 46 46 46 46 46 49 50 50 50 49 48 49 50 48 50 49 47 47 47 48 52 54 52 51 46 46 48
97 97 81 66 48 40 40 46 45 45 46 46 55 51 48 43 43 45 45 44 44 45 44 48 46 45 46 41 41 36 40 41 41 42 44 46 49 50 49 46 43 42 42 43
98 90 77 60 45 39 43 41 40 44 43 41 49 51 49 44 37 36 38 40 41 41 41 40 36 36 40 40 39 37 38 40 43 44 44 48 48 45 42 42 42 42 42 41
97 86 76 61 50 48 44 43 40 39 34 35 45 51 48 44 39 38 36 34 33 33 35 36 37 36 37 39 37 39 42 44 45 44 42 42 43 43 43 44 46 47 46 41
96 80 71 65 57 50 47 42 38 30 22 27 31 44 48 43 41 40 38 37 39 39 40 42 43 44 45 40 42 44 46 48 46 42 40 41 41 41 43 46 45 43 43 45
86 74 70 65 60 50 41 35 27 21 17 20 32 37 40 40 38 40 40 40 44 45 45 44 48 48 46 47 46 48 50 46 40 37 38 41 42 41 40 40 41 45 45 42
76 74 68 60 53 48 43 34 27 21 23 25 29 31 35 37 37 39 38 43 45 49 51 53 54 51 46 45 45 46 44 40 36 34 36 37 37 37 40 40 36 32 29 26
75 74 63 53 46 42 39 39 29 23 26 29 31 32 34 35 34 38 42 45 48 55 54 53 52 44 39 40 40 37 34 32 32 34 35 36 38 35 30 26 25 25 25 24
74 69 60 54 50 41 32 28 32 34 32 30 30 32 31 32 35 41 48 55 58 54 54 53 43 36 36 36 36 32 32 33 34 35 36 33 27 24 24 24 24 24 25 27
67 56 54 48 39 37 30 33 38 29 28 27 28 32 34 36 41 49 54 58 54 57 56 46 37 34 36 35 33 31 34 36 37 33 27 23 23 23 24 25 25 23 20 19
61 51 45 46 47 44 45 40 33 30 26 24 29 32 36 44 49 54 56 57 57 51 44 37 33 35 34 31 30 33 36 35 29 24 23 23 23 21 19 17 16 17 18 19
53 51 50 49 50 45 43 35 31 28 27 29 29 38 42 50 51 53 52 49 46 39 38 33 34 33 32 31 33 35 32 27 24 23 23 22 21 18 16 16 17 18 19 19
50 52 48 49 46 46 48 48 44 42 38 44 43 43 49 55 54 53 50 47 40 34 34 33 34 33 31 32 33 29 26 24 24 24 24 24 22 18 18 17 17 18 21 23

GFSNW_prec_cthk_069.txt.gz
RH
77 82 64 83 97 88 79 90 92 86 84 54 52 52 57 49 47 52 62 63 62 57 54 63 71 74 80 81 76 79 74 78 83 85 80 76 73 69 66 72 71 72 66 61
69 86 87 98 97 93 94 98 96 87 68 50 50 44 57 48 45 54 65 62 59 59 59 61 62 64 66 68 66 68 66 70 78 72 69 71 73 68 64 62 64 69 68 63
68 88 98 97 91 98 98 97 97 93 61 48 45 48 59 53 48 55 62 61 58 59 56 57 57 62 62 59 63 63 61 66 67 72 67 69 72 70 70 70 74 69 70 68
66 90 98 93 98 98 98 95 88 78 47 48 48 50 58 52 53 53 60 61 58 55 61 59 58 58 61 59 58 57 59 68 69 66 66 67 69 69 69 72 69 71 66 68
63 96 94 93 97 98 98 98 84 52 37 45 51 53 56 51 53 52 55 53 54 52 57 59 62 59 57 57 56 55 56 67 61 68 66 66 67 67 69 70 70 68 69 71
79 98 94 97 97 97 98 98 77 37 43 48 54 52 53 55 52 51 51 49 49 55 57 57 55 58 63 61 62 65 64 68 70 76 69 65 69 64 66 68 70 70 72 71
92 95 94 95 97 98 98 96 65 36 46 49 52 49 51 55 52 48 54 59 61 57 55 56 58 61 65 64 65 64 65 67 69 74 67 68 56 57 59 68 69 70 70 70
96 94 97 97 98 97 97 73 48 37 46 50 53 51 50 57 56 56 55 55 59 61 57 57 59 62 60 63 62 65 62 65 70 67 69 57 56 57 56 57 60 59 61 64
94 97 97 98 98 98 93 66 44 38 44 54 53 53 51 55 57 57 55 55 54 55 57 58 61 64 60 62 59 59 61 63 66 71 70 67 53 56 56 58 62 61 62 65
96 96 97 96 98 97 96 63 41 41 46 52 55 57 56 56 55 55 54 52 53 53 55 56 56 58 54 61 62 62 63 64 65 64 65 55 49 52 54 57 52 57 60 63
97 96 95 97 96 97 79 48 41 42 46 53 56 57 56 53 50 52 52 54 52 54 54 54 53 53 52 53 51 52 55 59 60 61 63 60 50 52 57 56 59 59 58 55
93 97 97 98 97 82 56 44 39 43 45 52 56 54 54 53 48 47 50 48 49 50 52 51 54 53 53 54 57 50 54 49 53 54 53 49 48 49 52 52 50 51 48 48
91 96 97 97 91 64 53 41 38 43 50 56 56 55 54 54 51 47 47 47 49 47 46 51 52 51 52 54 52 53 51 52 52 52 50 51 50 51 51 52 51 49 49 52
90 96 97 96 79 53 43 37 39 45 47 54 57 56 54 53 50 48 47 47 47 48 49 50 53 52 51 53 51 52 51 50 51 52 52 52 50 51 50 51 46 44 43 42
92 97 94 87 72 43 38 37 40 43 42 46 53 51 53 52 50 48 47 47 47 47 48 51 52 52 49 47 48 48 46 48 50 49 45 45 45 47 47 45 44 44 40 37
92 93 92 73 54 42 40 39 39 40 41 42 54 55 54 51 50 48 48 47 45 44 44 48 48 47 47 45 44 37 40 43 42 43 43 41 42 46 47 47 44 40 39 41
95 94 80 65 53 43 41 38 36 39 40 43 55 54 51 49 48 47 47 45 44 42 44 44 43 43 44 44 40 34 36 38 39 39 41 44 45 46 47 43 41 41 42 42
94 88 76 68 59 49 42 38 39 41 42 44 48 51 50 49 45 43 41 40 40 40 41 39 38 37 38 40 34 34 38 40 40 41 41 41 43 43 40 39 40 40 41 42
93 81 76 68 61 50 42 41 42 40 35 34 40 46 51 46 44 42 39 37 38 38 39 39 41 42 44 35 36 40 42 42 43 42 38 37 36 36 36 38 39 39 38 38
84 79 77 65 56 53 48 47 42 37 27 27 34 43 47 44 42 42 41 42 44 43 44 44 45 44 40 40 41 42 43 45 42 37 35 33 32 34 37 37 38 37 36 34
83 79 72 63 62 53 42 39 34 28 27 28 31 40 42 42 41 43 40 42 45 48 46 49 51 49 42 39 39 40 42 40 35 33 31 31 33 34 36 38 34 31 27 25
81 76 73 66 58 51 42 42 35 28 26 29 33 37 38 38 37 37 38 42 44 50 51 52 53 40 37 36 36 37 35 32 30 28 30 32 34 35 32 28 25 25 24 24
80 75 67 63 59 51 46 39 34 34 29 32 34 35 32 33 32 36 40 45 52 52 57 56 44 36 34 34 35 34 31 28 29 30 32 34 33 28 25 24 24 25 24 21
79 71 67 62 51 47 38 35 36 28 30 31 29 31 30 30 35 40 44 51 53 58 60 48 38 33 32 34 35 33 29 30 32 35 34 30 26 24 24 23 21 20 18 17
70 61 57 55 42 45 40 36 37 33 28 27 30 29 30 36 41 42 46 54 59 54 45 39 34 33 32 35 34 32 30 33 35 33 28 24 24 23 21 21 19 18 18 18
66 59 58 54 48 47 43 41 32 32 35 25 24 30 31 39 40 43 48 50 48 41 40 34 36 34 34 35 33 31 33 34 32 27 24 23 23 24 23 22 20 19 20 21
63 61 55 50 48 46 41 38 40 34 26 29 28 28 36 45 46 47 48 47 39 35 36 38 37 36 35 34 32 33 33 29 26 25 25 26 28 28 27 25 23 22 22 25

GFSNW_prec_cthk_072.txt.gz
RH
72 70 88 95 97 83 98 98 95 92 91 88 80 77 49 47 45 50 52 60 61 59 67 79 85 81 77 75 75 75 76 87 90 88 87 80 74 70 66 72 69 70 67 62
68 73 88 83 97 98 97 96 98 98 92 94 83 59 49 45 45 51 54 60 59 62 65 71 75 78 73 70 71 66 63 76 82 80 75 74 74 69 65 62 63 69 68 64
67 69 91 95 99 97 98 97 89 97 93 83 61 52 53 47 46 52 54 56 57 59 59 61 65 71 71 66 66 64 57 65 61 66 61 65 72 70 63 60 65 65 60 59
64 65 93 98 97 96 95 98 97 96 95 80 56 50 53 48 51 55 58 54 53 53 57 57 63 64 64 63 62 59 57 65 64 61 61 61 63 64 63 66 63 62 59 58
59 73 98 98 98 96 98 97 98 96 73 55 55 53 55 49 50 58 59 56 53 52 53 53 54 59 60 60 56 54 55 66 58 60 54 57 60 61 64 62 61 63 64 63
60 87 97 94 97 97 98 97 93 83 60 54 55 53 53 50 46 55 55 53 52 54 52 52 54 54 56 58 57 56 56 60 62 66 61 57 61 56 58 60 63 62 66 63
64 91 90 92 94 97 97 97 86 74 51 55 54 53 55 52 49 52 53 51 50 56 58 55 53 56 55 56 58 58 60 62 65 69 61 68 54 55 54 58 60 60 60 62
85 94 93 91 95 97 98 96 88 58 50 55 54 56 59 57 52 53 54 57 59 56 54 56 58 62 59 59 61 60 58 60 62 61 64 52 50 53 53 53 53 55 59 60
93 92 94 94 97 97 96 90 76 52 49 57 58 53 55 57 55 56 60 63 63 57 55 53 56 62 56 60 58 57 58 59 61 65 64 58 51 53 52 53 55 54 58 62
88 94 94 98 97 97 92 74 56 47 51 58 57 50 54 59 59 60 58 58 59 57 57 59 58 58 53 58 58 56 59 60 63 65 66 54 47 48 48 51 46 49 51 53
92 95 95 95 96 95 88 62 47 47 51 56 53 52 53 53 54 55 53 54 53 53 54 54 55 53 52 52 49 53 55 58 58 59 59 53 46 48 50 48 49 50 52 53
87 93 91 92 93 93 86 63 46 48 49 53 55 54 55 53 52 54 51 48 48 49 50 49 52 49 51 51 51 48 49 47 48 50 49 46 46 46 45 46 48 50 49 45
89 93 94 92 95 94 78 49 43 47 51 54 56 54 52 54 52 51 51 47 47 46 46 50 49 48 48 50 49 48 47 46 48 47 47 48 47 45 46 46 47 49 46 43
83 89 93 96 95 78 48 43 43 47 53 57 57 55 52 51 51 48 46 46 45 47 47 47 50 49 50 51 49 49 48 48 49 48 47 47 46 46 46 46 45 43 39 36
87 91 92 95 85 60 45 40 41 46 44 52 54 52 54 51 50 48 47 47 47 47 48 51 51 52 51 49 48 47 45 45 46 46 42 42 40 40 42 42 40 38 37 37
87 86 91 93 72 50 41 37 40 42 44 42 55 55 52 51 51 49 48 47 47 45 46 48 48 47 48 47 46 37 38 39 40 39 40 40 39 38 38 40 40 39 36 34
84 86 88 84 69 44 35 32 35 39 40 41 50 52 51 51 52 50 47 46 45 43 45 43 42 43 44 42 39 32 33 33 34 36 37 38 39 39 41 41 37 34 34 32
84 85 84 74 56 47 37 35 36 36 37 39 47 50 50 50 49 49 45 44 44 43 44 42 40 40 41 40 31 31 34 35 36 37 37 35 36 37 37 35 32 31 30 32
88 86 74 61 55 47 42 39 38 37 35 38 42 45 48 49 47 46 44 41 43 42 42 42 42 40 40 30 31 34 35 37 37 37 36 35 34 32 31 30 31 32 33 33
86 76 72 66 68 54 45 43 41 41 38 33 36 39 45 47 46 45 43 41 43 44 43 43 44 41 34 34 35 36 37 38 38 38 35 32 30 30 31 33 32 32 33 32
82 74 71 67 67 62 45 42 40 39 33 33 36 35 45 44 45 44 41 43 45 44 43 47 48 46 39 38 38 38 38 38 38 35 30 30 29 30 31 32 34 32 29 26
77 74 73 70 63 55 46 44 38 34 30 34 36 36 41 41 42 40 40 39 41 45 45 49 51 41 37 35 36 36 37 37 36 33 29 29 31 32 34 33 29 26 26 27
78 75 69 62 54 51 45 40 41 39 33 32 36 39 41 39 35 37 37 40 44 43 49 53 45 37 35 35 36 36 35 34 33 30 30 33 35 35 31 27 26 26 24 23
79 74 70 65 60 53 45 41 36 28 27 31 31 36 35 33 35 37 40 43 42 50 55 49 39 33 33 35 36 36 36 35 32 32 35 37 35 29 26 24 25 24 23 21
77 70 65 63 55 54 53 45 41 31 28 33 33 33 34 35 38 39 42 45 48 46 43 39 34 34 35 37 38 39 38 35 34 36 37 34 28 25 24 26 27 28 27 27
73 66 60 61 61 53 53 47 44 34 35 33 29 41 34 38 38 42 40 37 36 33 39 35 36 36 37 40 41 40 37 35 37 38 32 27 25 26 27 28 29 32 33 35
70 66 60 54 56 51 47 43 40 36 35 36 38 31 35 41 39 38 37 36 33 33 35 37 39 38 39 40 38 36 36 38 34 29 26 25 28 29 29 28 27 31 36 43

GFSNW_prec_cthk_075.txt.gz
RH
76 74 83 89 98 99 83 91 98 98 98 98 91 82 77 52 52 49 48 52 60 68 77 85 90 88 87 85 82 81 76 74 77 77 72 72 73 66 59 62 62 67 68 70
71 75 80 91 99 92 91 97 98 98 98 98 88 77 73 52 53 49 49 54 58 67 77 83 79 84 80 76 75 75 73 74 75 72 66 63 62 59 59 56 56 60 58 62
66 75 81 95 94 98 96 97 97 98 98 90 76 71 67 56 53 51 49 54 55 59 68 70 76 78 74 69 64 63 61 70 61 67 60 60 62 59 54 49 55 56 55 58
61 75 85 98 97 98 97 97 98 95 96 87 79 68 61 52 53 51 50 55 54 55 60 61 72 71 67 62 61 59 57 64 61 59 59 57 57 58 57 55 52 52 50 51
56 81 88 96 97 98 98 98 98 97 90 78 69 64 58 53 51 49 52 53 53 52 54 52 56 61 60 59 56 55 56 64 56 60 56 60 64 64 63 60 58 57 57 56
55 77 94 94 95 95 97 97 97 95 76 63 69 64 57 54 50 55 50 50 52 54 53 53 54 54 55 56 54 54 55 59 59 64 60 57 63 62 65 64 66 62 58 58
77 85 90 88 91 93 97 97 94 79 62 63 65 64 57 54 52 55 53 51 49 54 54 53 52 54 54 55 56 55 56 58 59 64 57 63 54 57 57 59 60 60 59 61
82 89 80 81 91 97 97 93 83 60 56 64 63 64 56 51 46 49 51 48 50 53 52 53 54 58 53 57 58 57 54 54 58 59 61 49 49 51 51 51 51 54 56 61
81 88 84 82 87 94 92 86 58 55 59 63 64 65 60 56 50 50 49 51 53 53 54 52 55 60 58 59 58 56 54 54 54 58 57 49 48 49 48 48 49 50 53 56
82 82 81 85 89 89 89 79 51 52 57 63 62 60 61 53 52 56 58 56 55 51 52 54 55 57 52 55 55 55 55 56 56 58 58 50 44 45 44 44 39 44 45 47
78 84 88 88 88 89 75 53 47 51 56 59 58 60 59 54 51 54 55 56 56 53 54 54 54 52 52 52 50 51 53 56 55 56 55 45 40 41 42 41 41 42 42 44
81 82 85 89 89 86 61 44 45 52 53 56 55 53 58 57 54 53 51 51 51 50 50 49 52 49 49 49 47 46 47 45 45 45 43 39 39 40 39 38 38 40 41 39
77 82 85 85 86 85 68 49 44 48 53 53 54 52 55 55 54 53 50 48 47 46 45 47 47 45 45 46 47 46 43 43 44 42 39 41 40 39 39 40 41 40 40 38
76 82 84 84 87 82 69 48 40 44 49 52 54 52 52 50 49 46 46 45 43 42 41 41 44 43 45 46 44 45 43 44 44 42 40 41 40 40 40 40 40 39 37 36
73 78 82 85 87 73 52 40 38 41 40 49 50 49 51 50 48 46 43 42 41 39 40 43 42 43 45 46 46 44 39 40 41 41 37 39 37 37 39 39 38 36 36 35
74 77 80 81 79 61 41 37 36 37 37 43 52 50 50 48 48 46 44 41 41 40 39 42 42 42 43 44 44 33 34 34 35 36 37 38 38 38 38 36 37 36 36 34
71 76 79 77 72 61 39 27 32 36 37 38 48 51 48 47 44 45 42 41 40 40 42 41 41 42 44 43 39 30 31 33 35 36 37 38 36 35 36 37 37 36 35 33
69 76 79 70 68 58 39 27 31 35 35 35 45 47 47 46 45 46 44 44 43 43 43 41 40 42 43 42 31 30 32 34 34 36 36 34 33 35 36 37 35 32 30 30
72 72 74 72 66 57 41 31 33 34 31 34 39 42 46 49 47 46 48 45 45 44 43 43 42 40 40 30 30 32 34 35 35 37 35 34 35 35 32 29 29 30 31 33
70 70 69 63 57 50 44 40 36 36 34 32 37 35 45 45 48 48 46 45 44 42 40 41 42 40 31 31 33 33 35 37 36 36 36 35 32 30 29 30 32 33 33 33
71 66 64 65 62 60 54 42 38 36 34 33 39 38 40 43 48 48 44 44 44 44 39 44 46 44 37 36 37 35 35 38 38 38 35 33 32 31 31 33 35 36 33 29
71 70 69 70 65 61 57 54 40 35 30 30 35 39 38 43 45 45 45 43 42 40 41 44 46 38 36 35 34 35 37 39 39 38 36 33 32 33 36 36 34 29 26 23
71 70 70 66 62 58 52 50 44 35 28 31 34 41 39 42 42 47 43 41 40 41 43 44 37 34 35 33 35 37 39 39 38 36 34 33 35 37 36 32 26 24 24 25
71 68 66 66 61 54 50 45 45 33 27 28 35 39 42 42 39 37 41 41 43 48 48 38 35 30 33 35 37 39 39 38 37 35 34 36 37 36 29 25 24 27 29 29
76 69 67 62 54 51 52 46 43 39 32 31 35 36 36 43 39 39 46 47 48 42 34 30 26 29 34 36 38 40 39 38 36 34 36 37 33 27 24 25 28 31 32 31
78 67 61 58 61 62 60 55 47 45 40 35 33 36 35 39 40 48 45 39 35 29 30 26 31 35 36 38 40 40 38 36 35 36 34 30 26 26 27 28 30 30 31 29
78 65 63 57 59 59 57 54 48 49 45 41 33 29 31 42 42 43 40 35 28 24 29 34 38 37 37 38 38 37 35 34 34 30 28 27 27 29 29 28 26 23 23 27

GFSNW_prec_cthk_078.txt.gz
RH
71 82 91 96 94 95 98 86 91 93 91 96 98 92 76 51 60 62 65 64 68 66 70 79 79 85 91 86 80 76 73 68 72 71 70 71 69 60 56 60 67 66 60 70
75 86 95 96 94 95 98 92 92 98 97 97 95 83 69 55 60 61 64 63 63 63 71 76 79 81 80 78 79 72 62 66 70 66 61 58 58 56 53 51 51 57 55 62
79 87 97 93 89 88 93 97 97 98 98 94 76 77 62 59 61 63 62 63 60 61 67 68 73 73 73 71 72 68 64 66 65 61 64 59 56 54 51 47 50 46 45 52
77 81 94 94 91 96 95 97 97 96 94 74 76 73 59 57 59 63 58 59 57 56 62 64 68 68 67 63 60 58 58 62 61 58 60 60 60 57 52 51 48 46 47 47
72 82 85 86 87 94 92 95 96 96 75 72 82 70 61 56 58 57 53 54 54 52 56 59 61 58 56 56 54 54 54 60 54 57 50 55 59 59 58 56 54 53 49 51
72 81 82 81 82 90 89 90 91 72 63 70 75 67 55 53 53 58 52 47 45 47 54 55 56 53 52 51 51 51 52 53 55 57 50 49 48 52 56 56 55 52 51 54
71 73 76 81 83 85 87 87 82 57 60 64 73 62 53 50 51 53 53 48 45 51 50 51 51 52 52 51 49 51 50 50 54 58 50 53 47 49 50 49 50 53 53 55
67 69 76 76 81 85 86 71 46 46 55 63 69 61 52 51 52 51 51 47 48 49 48 47 50 49 49 51 50 49 48 46 51 53 50 45 46 46 46 45 44 45 46 49
70 67 67 72 82 83 70 48 44 45 49 62 63 59 56 53 55 54 52 48 47 46 44 42 46 49 51 51 50 50 48 45 44 44 44 38 43 45 44 44 40 41 44 46
65 70 73 78 82 75 60 41 41 45 50 61 60 52 51 50 49 50 50 50 48 45 45 45 45 47 48 44 44 46 44 44 44 44 43 39 39 40 41 39 34 36 39 40
69 74 78 79 76 65 43 39 43 42 48 55 56 54 51 50 48 47 51 50 48 46 45 44 46 43 44 43 42 42 42 43 43 44 44 37 34 36 35 33 33 34 36 38
70 74 77 75 62 48 35 38 42 42 41 48 53 53 52 51 50 49 48 46 47 45 42 41 43 41 41 39 37 39 38 36 35 35 32 32 34 34 34 34 34 36 36 37
69 71 72 71 67 58 49 37 43 45 44 47 48 49 50 50 48 47 45 42 41 41 39 39 40 39 38 36 35 37 37 37 37 36 34 34 35 35 35 36 37 37 38 37
63 68 68 70 67 60 52 37 40 42 43 45 46 47 48 47 46 46 43 40 38 35 35 37 38 37 39 37 37 37 37 39 38 36 33 35 35 36 37 37 38 38 39 39
58 64 68 67 66 56 44 35 36 37 38 43 46 46 48 47 44 43 41 40 38 37 37 37 37 38 38 39 40 37 34 34 35 32 33 34 34 35 36 38 40 40 39 37
59 61 62 64 64 50 39 34 33 33 35 41 44 44 45 45 44 44 43 41 39 38 39 39 40 38 39 38 35 29 31 32 33 33 33 35 36 36 37 38 38 37 37 37
58 60 62 62 61 51 37 29 31 33 32 36 44 45 44 42 42 44 45 42 40 39 40 39 39 40 42 39 34 28 30 34 36 36 37 37 37 36 35 36 38 39 37 33
55 59 61 59 59 50 39 27 27 32 32 31 40 42 42 43 44 44 43 42 42 41 42 39 37 40 40 37 29 29 29 31 33 34 36 36 34 34 34 37 38 34 30 30
57 60 60 58 58 54 43 33 28 30 30 30 33 36 41 44 46 46 46 44 43 43 41 41 42 38 37 30 30 30 31 32 33 34 35 35 34 34 33 31 30 30 32 34
60 62 58 56 56 51 47 42 37 34 32 28 28 30 36 40 48 48 46 46 43 42 38 41 41 35 31 31 32 32 32 34 33 34 35 35 34 32 31 32 32 33 35 36
63 57 53 53 51 48 45 45 43 37 31 28 31 33 35 36 47 48 46 43 44 43 41 43 39 34 30 32 35 35 33 34 35 36 36 34 32 32 32 33 35 37 35 28
61 55 55 54 54 54 51 52 50 43 32 30 32 36 37 37 46 48 48 45 44 42 40 42 38 28 29 32 34 35 35 37 38 39 38 36 33 32 34 36 36 32 25 25
64 58 56 55 54 55 52 51 54 52 40 32 33 36 37 38 45 47 44 47 44 41 43 38 31 28 28 30 31 36 38 40 41 40 37 33 32 34 35 34 29 26 27 27
66 66 61 60 55 52 49 48 48 44 41 34 32 37 39 40 44 43 42 43 41 50 48 34 29 27 27 29 34 37 39 41 39 36 34 33 35 34 32 28 28 29 28 28
64 64 67 60 55 51 49 49 48 44 42 42 35 35 37 41 42 40 44 54 50 43 37 29 26 25 28 33 37 38 38 37 36 35 34 34 33 29 27 28 29 29 27 22
60 59 59 57 61 60 58 53 52 46 45 44 40 38 38 40 40 44 42 42 38 35 33 26 26 27 32 37 37 37 36 36 35 33 33 31 28 27 28 29 27 24 21 20
60 53 54 58 60 60 58 58 57 54 52 50 43 39 34 37 42 39 34 37 30 30 28 29 28 31 38 38 37 36 35 33 32 31 28 27 28 29 28 24 23 22 21 24

GFSNW_prec_cthk_081.txt.gz
RH
93 95 94 95 92 83 79 80 84 96 98 98 98 98 88 54 64 70 70 69 71 75 78 82 82 86 87 79 78 76 75 77 79 76 71 72 76 66 63 66 64 59 58 72
83 88 88 90 89 91 83 78 86 97 98 98 98 91 61 62 68 71 74 74 74 75 77 79 75 76 75 71 69 66 63 66 77 68 62 61 59 58 57 56 56 57 58 64
72 74 78 82 86 89 86 87 92 96 97 96 90 66 57 64 68 72 71 70 71 73 73 71 73 72 68 64 61 60 61 61 66 67 69 63 58 51 46 49 55 46 51 60
74 73 79 82 84 86 84 89 91 92 98 83 71 60 58 61 71 69 66 65 63 65 67 64 64 61 59 58 58 59 55 61 60 56 55 54 51 50 48 48 44 48 48 50
66 70 71 80 86 85 82 86 81 84 77 70 62 57 58 60 69 69 65 63 60 56 58 56 56 49 48 50 48 51 50 58 54 53 48 52 53 50 49 46 44 42 42 46
64 77 77 78 81 79 70 70 64 62 65 67 60 56 54 56 61 61 59 57 57 57 57 53 48 44 44 44 45 44 46 49 53 54 46 47 47 48 49 50 47 45 46 47
68 71 77 78 74 62 58 54 53 55 58 57 58 56 52 55 53 49 49 49 50 55 51 49 47 45 43 42 42 43 44 46 51 54 46 52 42 43 45 46 47 46 47 48
63 64 72 74 49 41 41 39 46 48 53 53 50 51 50 51 50 49 47 47 46 47 47 49 47 45 45 43 43 41 39 39 42 48 42 37 37 40 41 41 40 40 42 43
61 62 64 63 54 40 37 36 38 45 45 49 46 49 51 50 48 47 48 46 45 43 40 40 41 42 42 42 40 41 40 38 39 36 38 31 34 35 36 35 35 34 35 37
60 61 60 58 42 33 34 33 36 38 43 47 46 46 45 47 47 45 45 44 43 41 40 39 38 41 40 39 38 39 40 39 40 37 38 34 33 33 32 34 35 29 32 34
56 55 50 43 32 30 32 32 32 35 39 42 43 42 41 41 40 40 42 43 41 38 38 39 37 36 36 36 34 34 37 38 36 37 38 36 31 33 33 33 30 30 31 32
52 52 48 44 35 33 33 33 33 33 36 39 40 39 39 39 41 42 42 41 40 37 34 34 34 32 32 32 32 32 33 32 32 30 32 29 29 31 32 33 32 32 33 35
50 53 53 49 40 34 32 34 33 33 36 41 42 42 42 41 41 41 40 38 39 37 35 34 34 33 31 31 31 30 30 31 32 31 29 30 31 32 33 35 35 36 37 37
51 52 53 52 46 35 31 34 35 35 36 38 41 42 42 41 40 40 38 37 36 34 34 33 34 32 32 32 33 33 34 34 33 33 30 32 32 34 36 37 37 37 37 37
52 53 53 53 50 38 31 32 32 34 35 37 37 37 38 40 39 40 40 39 38 38 37 36 35 34 35 35 36 32 30 30 33 31 33 33 34 35 36 37 39 39 39 38
49 52 54 55 51 40 30 32 30 32 31 38 38 37 39 38 38 39 40 39 39 39 39 39 38 38 39 38 32 26 27 28 30 30 32 33 33 34 35 38 38 37 37 37
52 54 54 55 54 47 36 28 28 29 32 36 39 39 37 39 39 40 41 41 41 42 42 40 40 40 42 40 33 27 27 29 31 32 33 34 34 34 33 33 34 35 36 35
50 54 57 57 56 50 44 29 25 30 30 30 38 39 37 38 39 41 41 42 42 42 42 41 39 39 39 37 28 28 28 28 30 31 32 32 32 32 32 33 34 33 30 29
54 54 57 56 56 53 44 38 31 31 29 32 32 36 39 37 41 43 44 44 44 42 42 41 41 39 38 27 28 28 29 29 30 32 32 32 32 32 33 32 29 29 31 32
52 55 58 54 56 54 46 43 37 37 34 29 27 30 35 36 41 44 45 46 45 47 40 41 42 34 27 27 27 28 31 33 33 33 34 34 34 33 32 30 30 31 32 35
53 57 54 50 51 53 51 44 43 42 43 38 33 30 31 32 39 46 46 48 45 46 44 41 41 31 25 26 27 30 31 32 33 34 34 34 33 33 31 30 31 33 33 31
47 50 52 51 51 48 49 47 46 46 45 42 41 34 31 34 35 42 49 50 46 46 41 44 41 28 27 28 28 28 30 32 35 36 36 34 33 30 30 32 32 32 28 27
48 45 51 54 52 54 52 50 51 52 46 46 46 45 38 35 37 40 44 49 47 40 42 41 32 27 29 30 28 28 33 37 38 38 36 33 31 30 31 32 30 27 26 26
47 49 50 55 57 53 49 47 48 48 46 44 46 49 47 42 38 39 43 42 40 45 47 38 31 28 30 29 29 32 37 39 39 37 34 32 30 31 31 29 26 25 26 25
49 48 51 47 46 50 47 46 47 45 49 48 46 46 47 49 48 40 40 40 44 39 35 36 30 29 30 30 30 35 40 39 37 34 33 31 31 31 27 25 25 25 24 20
55 52 48 43 42 50 57 53 53 50 51 51 50 48 47 49 49 48 42 38 35 30 29 26 26 30 31 32 35 40 40 37 35 34 32 31 29 26 25 25 25 22 20 19
59 59 49 42 39 42 50 57 58 56 57 57 57 55 48 45 49 47 39 37 25 22 23 23 25 30 32 37 41 41 39 37 35 33 32 27 26 26 26 24 23 23 20 18

GFSNW_prec_cthk_084.txt.gz
RH
69 76 80 77 65 57 48 47 57 77 83 92 96 99 95 76 78 75 72 74 74 79 76 85 82 87 87 84 83 81 78 82 87 77 74 73 72 67 63 74 70 71 76 85
74 83 83 80 71 66 62 68 72 86 89 98 98 88 73 74 73 72 72 74 76 79 82 92 84 81 75 77 74 73 71 71 86 78 74 69 65 60 59 58 63 63 72 79
80 86 92 88 84 77 73 76 83 88 93 93 85 67 70 74 75 73 74 76 78 79 80 78 75 76 66 62 61 60 63 63 68 76 71 64 63 57 54 57 67 59 61 65
82 83 78 78 80 77 76 78 80 81 85 73 65 68 71 70 68 69 68 70 70 72 75 76 70 64 61 57 54 50 51 56 56 51 52 53 52 51 50 49 45 53 58 59
78 62 62 69 70 68 69 75 77 70 65 60 60 60 67 63 65 65 63 64 65 63 64 62 59 53 54 54 48 47 47 52 50 47 45 46 46 46 46 47 44 43 48 51
68 53 51 59 56 55 60 57 51 53 56 54 53 55 57 59 59 60 61 58 60 60 56 52 49 45 42 41 42 42 44 50 56 55 44 46 51 45 46 46 44 46 52 47
58 51 43 47 47 46 46 45 47 47 49 48 45 47 51 53 51 52 52 52 50 50 48 45 42 40 39 39 38 38 39 42 52 55 51 56 39 39 41 42 42 43 44 43
53 46 40 36 37 37 37 41 43 42 43 41 41 42 44 44 43 46 45 46 44 43 43 42 43 40 39 36 36 36 36 37 44 53 44 34 36 36 38 39 39 36 38 39
50 41 36 36 33 32 32 35 38 36 35 38 37 39 40 40 37 38 39 39 36 35 36 36 38 44 36 37 34 33 35 34 40 39 40 34 35 33 31 31 38 32 32 33
48 39 32 32 31 30 29 33 33 33 32 35 36 38 41 39 39 38 36 35 36 36 38 37 40 41 34 40 34 34 35 35 40 38 40 34 32 30 30 34 39 30 30 31
47 44 31 29 28 28 30 32 31 30 29 32 33 33 36 36 36 36 35 37 35 36 37 39 36 37 35 34 30 31 34 39 37 36 38 41 30 28 29 33 30 30 31 31
47 43 39 29 29 30 29 29 32 32 30 32 33 32 33 33 34 33 34 36 36 35 36 34 32 35 32 32 34 32 32 31 36 33 37 31 27 30 30 30 30 30 30 31
46 44 42 37 31 32 31 31 33 33 35 35 35 35 33 33 33 35 36 33 34 34 34 35 36 36 33 34 34 31 30 29 33 32 30 29 29 30 31 31 31 32 32 33
46 46 47 44 32 32 32 32 33 35 36 39 35 36 36 36 36 36 35 33 33 32 33 34 35 35 34 34 33 33 31 33 32 31 29 30 29 30 30 31 32 32 33 34
46 46 47 48 41 33 32 34 33 33 35 36 37 36 37 38 38 38 38 37 36 37 38 40 38 34 34 33 34 33 27 28 32 31 30 30 30 30 30 31 32 33 35 36
42 49 50 49 45 37 34 33 31 33 32 35 37 36 36 38 39 40 40 39 39 39 39 39 36 35 36 40 38 24 24 25 26 28 29 30 30 30 31 32 33 34 34 34
43 48 51 50 49 42 36 30 29 29 30 35 37 37 34 36 37 39 41 41 40 41 41 39 39 38 39 42 40 25 26 27 27 29 29 31 31 32 31 32 32 32 33 33
46 47 51 54 53 49 46 35 27 29 27 28 36 37 32 34 37 39 38 41 43 43 43 40 39 40 40 42 27 25 25 27 28 29 30 31 31 31 31 31 32 33 31 27
47 52 52 55 55 53 47 42 35 35 33 32 32 33 38 32 35 38 39 41 45 43 44 42 42 43 42 28 26 26 26 25 26 30 31 31 30 31 31 32 32 28 28 28
47 52 51 52 55 54 49 44 38 37 38 41 39 32 35 32 36 40 41 41 47 49 45 42 44 39 28 27 28 28 28 29 30 32 34 32 32 32 32 30 28 27 28 30
44 51 50 48 49 53 50 45 42 41 43 42 45 44 42 37 40 43 42 47 44 47 48 45 45 39 27 25 28 29 30 32 31 33 34 33 33 32 31 28 27 29 30 29
45 42 45 44 48 46 47 46 43 43 45 44 46 46 46 41 41 42 44 46 44 44 42 45 45 30 27 26 28 30 32 32 34 36 36 35 34 31 29 28 29 30 28 24
45 42 38 40 46 50 45 44 46 48 43 42 43 48 49 48 46 48 48 52 48 40 44 40 30 24 26 27 32 32 31 32 37 39 39 37 33 31 30 30 30 26 24 24
47 47 45 41 45 45 40 40 41 41 43 42 43 45 47 49 53 54 58 53 47 48 46 32 25 21 23 31 32 32 34 36 42 43 40 37 33 32 32 31 26 23 24 24
54 50 50 45 38 39 39 37 34 34 38 45 49 49 48 52 55 52 55 54 55 48 37 26 20 19 21 26 27 30 36 46 47 45 40 37 34 34 33 27 25 24 24 22
60 52 50 45 41 44 43 39 40 37 42 44 46 53 56 57 56 58 54 52 50 40 35 28 22 20 20 20 23 30 38 49 50 47 42 39 36 33 29 27 25 22 23 22
66 58 52 49 41 42 41 42 41 42 45 47 46 52 53 55 59 60 52 51 40 36 30 29 28 24 20 20 23 32 41 47 52 49 45 40 34 31 30 27 23 24 25 21

GFSNW_prec_cthk_087.txt.gz
RH
97 94 70 56 54 50 47 44 60 70 80 84 87 94 98 96 84 82 79 76 71 64 69 78 78 85 88 84 84 87 83 84 90 76 72 70 71 69 68 78 74 78 82 93
83 87 85 74 57 54 53 68 68 75 83 88 93 89 88 80 75 78 75 71 67 69 75 74 79 81 77 76 77 78 76 78 88 80 71 63 64 59 60 61 67 73 79 90
70 71 82 80 74 61 63 72 73 77 75 75 79 76 73 73 73 73 72 71 68 70 72 72 74 74 67 68 67 65 64 65 69 76 72 68 64 59 55 52 64 66 66 71
57 59 62 68 70 65 66 61 62 61 68 69 72 69 73 76 74 69 69 69 66 63 67 62 60 58 59 56 53 53 51 55 55 52 52 51 53 55 51 51 48 57 64 64
46 48 54 54 52 47 51 50 54 57 58 59 59 64 66 65 64 62 65 66 63 58 59 56 56 54 53 51 47 45 46 49 51 50 45 43 43 47 46 45 45 47 49 51
39 42 43 41 43 46 45 47 48 53 53 55 55 58 58 58 54 54 53 51 50 50 48 45 42 41 41 41 42 42 43 49 57 51 45 45 46 44 45 46 46 46 49 44
37 37 38 36 34 35 39 40 42 44 48 45 47 49 49 49 47 48 48 45 44 43 42 40 39 39 39 38 37 37 38 43 51 52 50 48 36 35 38 40 42 41 42 44
37 31 34 35 33 31 35 35 36 37 40 39 39 40 40 41 41 43 43 41 41 41 41 42 42 41 39 35 34 33 35 38 41 47 45 34 36 34 35 35 38 35 38 40
37 35 34 31 31 31 33 34 34 33 32 34 35 37 37 36 37 38 37 35 34 36 38 35 36 41 35 36 33 31 33 33 38 39 38 34 34 32 31 31 39 32 34 35
33 33 33 31 28 30 31 34 32 30 29 31 32 34 35 34 34 34 33 32 31 34 35 36 38 39 32 38 33 30 34 34 38 40 39 34 32 30 29 33 32 30 31 32
35 31 31 31 30 28 31 33 32 30 27 30 31 32 32 33 32 32 31 32 32 33 34 36 35 36 34 32 30 29 33 37 40 39 40 34 30 29 30 29 28 28 29 31
42 30 30 31 30 31 30 32 32 30 30 29 30 30 31 31 31 33 32 35 36 33 36 35 34 35 34 33 33 32 30 29 35 34 33 30 28 27 27 27 28 29 30 31
42 35 29 31 31 31 32 31 33 34 33 33 32 32 32 32 32 33 36 34 34 35 34 36 36 34 36 34 34 31 29 29 30 28 25 26 26 26 28 29 30 31 32 33
44 40 37 28 31 32 31 33 34 34 34 36 34 34 36 37 36 37 37 35 35 34 34 35 35 35 34 34 32 33 28 30 30 29 26 27 27 27 28 29 30 31 31 32
42 44 43 42 31 30 32 32 32 33 35 34 31 34 36 37 38 39 39 39 37 37 36 38 37 36 36 35 35 34 26 26 30 29 23 25 27 29 28 29 30 31 32 33
40 41 43 44 45 34 30 31 30 32 33 34 35 34 33 35 37 39 40 41 41 41 41 41 39 37 39 42 42 25 23 24 24 25 26 28 29 30 30 31 32 32 32 32
38 38 41 43 43 44 36 30 26 26 28 29 34 35 34 33 33 35 35 37 39 40 42 41 40 39 41 44 42 26 25 25 26 28 29 32 32 32 32 32 32 31 32 32
34 40 40 44 45 46 47 40 33 28 28 26 32 32 29 30 33 36 37 38 37 37 40 41 40 40 40 41 29 28 28 29 29 29 30 31 32 33 32 31 32 32 32 29
32 42 42 44 46 47 48 47 44 36 35 37 40 34 33 31 33 35 36 38 42 42 44 43 42 43 42 27 26 27 27 28 30 32 32 33 33 34 33 32 33 32 29 27
32 42 42 42 43 45 49 49 46 38 37 38 43 44 45 38 38 37 37 39 43 44 41 41 44 40 27 23 25 27 28 30 31 33 35 36 36 36 36 35 33 30 28 28
40 44 43 41 39 44 44 43 40 41 39 39 41 44 46 44 47 48 46 50 46 45 41 39 37 36 26 23 22 26 28 31 34 34 33 37 39 39 39 37 32 30 30 30
41 43 44 40 43 45 42 42 40 40 41 42 43 43 44 43 45 47 50 52 52 50 49 48 40 24 20 22 22 24 27 30 34 35 38 41 42 42 40 35 33 31 31 28
50 47 43 41 39 43 41 38 36 40 36 39 42 44 45 45 46 49 50 55 57 52 56 51 41 29 21 19 20 22 26 28 32 36 43 49 48 45 40 38 37 33 29 27
52 48 46 45 44 40 35 34 32 30 31 32 35 42 44 46 49 50 52 53 52 55 55 43 34 28 27 25 20 21 23 25 27 32 40 46 52 48 45 42 40 33 30 29
60 53 50 46 40 41 38 36 34 31 32 33 38 39 42 47 50 51 53 56 55 52 44 35 29 29 30 29 29 26 23 22 24 30 39 44 54 53 48 44 37 35 33 30
71 63 57 50 46 44 42 39 37 36 36 37 37 41 44 46 46 50 53 52 49 40 39 33 32 30 31 32 30 31 31 31 33 35 38 40 51 56 50 42 39 37 33 33
84 71 63 57 48 44 43 44 42 42 43 44 43 42 41 41 48 47 42 48 40 37 35 33 31 32 30 30 31 32 34 36 37 41 42 48 53 55 46 44 41 38 37 35

GFSNW_prec_cthk_090.txt.gz
RH
70 57 51 51 45 46 50 61 59 65 67 75 86 93 90 88 81 70 66 63 63 71 79 85 84 82 83 81 83 85 81 80 86 72 68 71 73 74 72 79 76 83 85 96
68 62 57 57 55 53 59 65 68 68 70 77 82 80 82 81 78 71 62 64 68 72 76 78 79 75 72 73 76 75 72 75 82 73 64 61 63 60 58 60 67 77 81 87
56 56 51 46 46 48 64 56 58 63 65 70 74 74 72 70 68 65 63 65 67 65 68 70 70 69 67 65 61 61 60 64 69 72 69 67 62 55 51 52 62 64 66 71
45 44 43 39 39 43 49 49 59 63 69 68 73 73 74 72 72 69 70 69 67 60 63 60 60 60 57 52 49 48 48 52 54 51 52 50 51 50 49 51 49 51 59 58
40 38 37 37 36 37 43 46 53 57 59 60 61 62 67 67 66 64 63 61 60 57 56 57 54 51 47 45 42 44 45 48 51 48 44 45 42 46 46 46 46 48 49 48
37 36 34 34 34 35 37 41 47 50 48 49 51 54 53 54 52 54 54 52 49 47 44 43 41 41 39 38 38 38 41 46 53 46 44 44 39 38 42 43 43 41 44 40
32 34 32 31 33 35 37 38 41 42 43 42 43 44 44 43 43 44 43 41 40 39 37 35 36 36 36 36 35 36 38 43 48 49 44 37 30 32 35 36 38 37 38 39
26 32 32 29 29 32 35 37 38 38 40 41 39 39 38 36 36 38 38 37 36 36 35 36 37 37 34 31 31 33 35 39 41 45 44 31 31 30 33 34 34 34 37 40
25 26 29 30 29 27 32 34 34 35 34 34 37 37 36 35 35 35 33 32 33 33 34 31 32 35 32 33 30 29 33 35 39 41 36 31 29 30 31 31 35 33 35 37
23 24 25 25 26 29 31 32 32 32 30 32 34 35 34 34 34 33 32 30 29 31 33 35 36 38 31 36 32 28 32 35 37 41 41 32 30 30 30 34 25 28 29 31
26 21 23 24 23 25 28 34 32 31 29 29 32 33 35 35 34 33 32 31 33 33 35 37 36 37 35 33 30 30 30 36 39 40 40 32 30 31 30 26 27 27 29 30
33 24 22 23 24 23 25 29 31 32 31 30 30 31 32 33 34 35 36 37 39 37 39 39 38 37 37 35 32 31 35 29 32 32 29 26 28 26 25 26 26 27 28 29
38 34 27 23 24 25 25 25 29 30 31 31 32 31 31 31 31 32 34 36 36 39 38 40 41 38 37 38 35 31 28 29 31 27 21 24 25 26 27 27 28 29 30 31
38 36 37 33 25 25 26 26 26 27 31 33 32 32 33 35 36 35 34 34 35 34 35 37 39 39 36 37 34 34 29 30 30 30 26 26 25 26 27 28 29 30 32 33
38 39 38 39 38 29 25 27 27 26 26 30 30 29 30 33 34 37 39 40 40 39 39 41 39 38 39 38 38 36 28 27 29 28 22 23 24 26 29 30 31 32 33 34
34 39 41 41 42 42 38 29 27 27 26 26 29 29 29 31 34 35 35 37 39 41 43 43 42 39 40 43 43 27 24 23 24 24 25 26 28 31 33 34 34 35 34 35
29 35 38 42 44 43 43 39 31 26 26 26 26 28 28 29 30 31 32 34 35 37 39 41 39 39 41 43 41 24 24 26 27 29 30 31 31 32 33 34 36 37 35 34
23 30 32 37 42 45 45 44 43 33 31 31 33 32 28 28 29 31 33 34 35 36 35 37 37 37 40 42 26 25 25 26 29 32 33 34 35 36 37 38 38 37 36 36
19 27 32 34 40 43 44 46 47 45 38 35 39 38 36 37 38 40 40 40 42 40 41 40 37 36 37 25 25 25 25 25 25 29 32 34 36 37 39 41 41 41 39 36
24 27 34 35 36 42 43 46 47 46 45 40 38 39 42 39 43 45 45 48 50 49 45 45 45 38 24 22 23 25 27 28 29 29 32 33 36 38 40 43 44 44 41 37
42 34 33 34 35 41 44 44 43 38 35 32 35 40 42 40 42 45 44 50 51 51 46 48 45 43 30 24 21 18 19 25 28 30 29 29 32 37 45 49 50 46 43 41
50 44 39 36 36 42 45 45 40 38 35 35 37 38 40 41 42 42 47 48 50 51 45 51 48 33 26 27 27 25 22 23 25 27 27 26 29 37 42 45 43 44 48 46
61 54 48 41 40 44 45 41 39 39 33 35 35 39 38 40 41 42 44 48 52 48 51 47 37 27 25 26 26 28 31 33 32 28 25 25 28 33 36 37 42 49 52 47
73 67 60 51 48 40 35 32 31 29 30 33 32 37 38 40 42 43 43 44 45 50 51 39 31 23 26 28 30 28 29 30 31 32 32 34 36 38 41 44 46 53 54 47
81 74 65 56 47 41 36 34 34 34 31 32 35 37 39 43 44 43 42 45 46 44 39 32 24 25 25 27 32 31 28 29 31 32 32 36 38 41 42 48 51 52 49 44
87 80 71 66 60 52 48 43 37 35 36 35 37 42 43 43 44 48 47 43 36 32 34 24 23 26 26 26 29 33 34 33 33 34 36 39 42 44 44 51 51 55 52 48
89 78 76 74 66 59 52 50 48 44 42 43 43 44 41 42 47 47 39 38 29 23 20 21 22 21 26 32 37 38 39 37 37 41 44 45 44 46 51 52 54 57 54 51

GFSNW_prec_cthk_093.txt.gz
RH
44 43 42 43 48 50 52 60 67 69 68 70 79 83 82 80 75 65 61 57 60 72 80 86 88 85 82 82 84 86 82 81 82 70 66 67 67 70 75 83 79 86 85 94
36 39 39 41 47 49 54 57 60 62 61 67 70 67 64 61 57 58 60 65 71 77 84 83 80 77 74 77 76 75 72 75 80 64 57 56 59 61 64 69 73 78 82 84
35 32 35 36 41 49 54 54 58 57 57 61 62 63 59 58 60 64 68 72 73 76 76 72 72 71 65 63 61 60 60 63 64 65 60 57 53 52 55 54 63 62 64 70
34 28 29 34 36 40 47 51 57 59 62 59 60 59 60 63 67 68 70 69 69 65 66 65 65 59 53 50 50 50 48 50 52 48 47 45 42 46 49 52 50 49 53 55
32 28 27 29 31 35 40 47 53 55 56 57 56 58 61 62 61 60 60 60 58 54 55 55 53 50 44 43 41 42 44 44 47 46 42 43 41 39 43 44 43 45 46 45
28 27 26 26 28 30 36 43 45 46 48 49 49 52 50 50 49 49 49 47 46 43 43 42 42 41 39 37 38 39 40 44 48 42 41 41 36 32 38 38 39 38 40 38
24 28 25 24 27 30 32 37 38 38 41 43 45 44 43 42 43 43 41 40 39 38 37 36 35 35 35 34 33 34 36 40 44 45 36 39 25 30 32 34 34 34 35 36
23 22 24 23 24 26 29 32 34 34 39 40 38 39 38 36 37 39 39 38 39 38 35 34 34 34 30 29 28 30 32 36 39 42 42 27 25 27 31 33 30 31 33 35
23 22 22 22 21 22 23 27 31 32 32 32 35 37 36 36 37 35 34 33 33 33 32 31 31 32 31 28 29 29 31 34 37 40 36 27 24 28 28 28 28 29 31 33
26 22 22 21 21 21 22 25 26 28 31 32 34 34 33 32 33 33 31 30 29 30 33 35 37 39 34 35 33 28 31 35 38 41 43 31 26 29 28 27 21 26 27 29
32 25 23 23 22 21 22 24 26 26 26 26 29 33 35 36 35 33 32 31 33 32 34 36 39 38 36 37 30 29 29 35 39 40 41 31 28 30 28 23 25 25 26 28
34 31 26 24 23 23 23 23 24 25 25 26 26 27 29 30 33 34 34 34 35 36 38 40 40 38 39 37 35 28 34 29 29 33 28 23 27 25 25 25 25 26 26 28
35 33 33 28 24 24 24 24 25 26 26 26 27 26 27 28 29 29 32 34 33 35 36 39 42 41 38 39 36 31 28 28 31 28 19 22 23 24 25 26 26 26 27 28
36 36 34 36 32 25 24 25 27 27 28 29 27 28 28 28 29 30 31 32 33 35 36 37 39 39 35 37 33 34 28 31 31 30 25 24 23 23 25 27 29 30 31 31
29 37 38 36 36 36 31 24 26 27 28 30 27 25 26 27 30 33 34 34 35 37 39 41 41 37 40 39 40 39 30 28 30 28 22 24 23 23 26 29 31 33 34 35
19 32 39 40 40 40 39 37 31 27 28 30 30 26 24 25 29 32 34 36 38 39 40 40 40 38 40 43 42 25 24 24 24 25 25 26 28 28 29 32 34 36 37 38
15 26 36 39 39 41 42 39 37 32 29 30 31 32 29 28 30 31 33 35 36 37 38 37 38 37 40 41 41 26 27 27 28 28 30 30 29 31 34 36 38 40 42 44
22 25 31 35 37 36 39 41 41 40 38 34 36 35 34 35 35 37 37 38 38 37 35 38 39 40 42 40 26 24 24 24 24 26 29 30 30 32 34 37 39 42 45 46
33 29 32 35 35 35 35 38 41 44 43 39 37 36 34 36 38 40 42 43 47 43 44 42 41 45 44 29 27 26 27 26 25 24 26 28 30 31 33 35 36 38 44 49
49 39 40 36 33 34 36 38 41 43 43 42 38 36 42 38 40 43 44 46 48 48 45 45 47 43 30 27 24 23 23 28 29 31 30 26 27 29 31 31 32 35 40 42
65 55 49 43 41 40 41 41 42 40 38 33 33 35 39 39 42 44 43 47 49 49 43 46 44 40 29 22 22 22 23 24 27 31 33 32 29 30 29 29 31 36 38 38
73 66 61 52 46 46 48 47 41 40 34 31 30 33 35 37 38 40 45 46 47 47 43 46 44 29 21 22 20 20 22 23 28 32 33 33 32 32 34 36 37 38 39 43
86 79 71 61 56 57 58 52 43 39 32 32 32 36 35 37 38 41 44 48 49 45 47 42 32 22 20 19 17 22 24 26 29 33 33 31 30 31 32 35 36 36 41 46
88 80 76 70 65 56 52 49 41 33 30 32 33 35 32 35 39 42 44 43 44 48 48 34 27 19 20 19 21 23 24 25 27 29 30 29 29 30 33 35 37 39 42 46
89 81 77 68 61 61 57 50 45 41 38 36 37 38 36 39 40 40 43 46 47 42 35 28 18 19 19 19 20 24 24 26 26 26 27 30 32 34 36 37 37 38 41 45
95 83 74 66 71 68 65 58 51 47 46 41 39 43 45 43 43 45 43 43 39 32 30 21 19 19 19 18 19 22 28 31 33 32 32 33 36 37 38 37 36 38 40 47
92 79 73 70 72 68 67 66 59 53 51 51 51 51 45 47 49 47 41 40 32 26 23 22 23 22 24 24 24 25 29 34 37 40 37 35 38 38 40 40 40 41 46 47

GFSNW_prec_cthk_096.txt.gz
RH
32 35 36 37 40 44 47 53 57 58 55 52 54 62 65 64 62 57 56 54 60 69 76 78 84 84 81 80 84 88 85 84 82 67 62 63 65 72 76 86 83 88 88 93
30 31 33 35 38 41 44 45 53 56 53 56 58 57 58 59 57 59 65 68 71 76 79 80 82 78 73 75 79 77 75 74 76 58 53 52 58 59 63 67 71 76 83 84
26 29 32 34 34 38 38 39 48 50 52 55 56 57 58 60 64 70 73 74 70 71 73 72 70 67 61 60 60 60 60 59 58 58 52 52 49 49 55 56 63 60 63 68
25 25 28 30 32 34 35 41 51 52 55 53 57 59 65 68 71 69 67 65 66 67 67 63 58 53 51 50 48 50 49 47 48 44 45 43 42 41 47 49 47 45 48 52
24 23 25 27 29 32 36 41 46 49 51 52 54 57 61 62 61 60 58 56 56 55 55 53 50 49 44 42 41 42 44 43 44 45 37 39 40 36 38 41 43 43 45 44
23 22 22 24 26 26 29 35 38 39 42 43 44 50 48 48 48 48 48 48 46 44 44 44 42 40 40 39 39 38 40 42 45 41 34 36 33 29 33 35 36 36 38 35
24 21 21 21 24 27 27 28 29 31 37 39 41 41 38 38 40 40 38 38 36 36 36 35 35 35 35 36 35 35 37 40 44 44 33 31 20 26 29 31 31 32 33 34
23 23 21 20 19 22 25 25 26 27 32 34 35 36 36 34 36 37 36 35 34 33 30 29 29 31 29 31 31 31 34 37 39 41 41 24 22 24 28 30 26 28 30 33
25 23 22 21 20 20 21 23 24 24 26 27 29 32 33 34 34 32 31 31 29 29 29 29 29 29 30 28 28 30 33 34 37 39 35 24 20 26 27 25 24 24 28 32
31 24 22 22 21 20 20 23 23 23 23 24 26 29 29 28 29 28 26 26 27 28 32 34 36 38 34 35 34 27 31 35 37 40 41 30 22 27 27 23 18 23 24 26
35 32 24 22 22 20 21 22 24 25 23 21 21 22 25 28 29 29 27 27 30 30 32 35 36 38 35 36 31 28 28 32 38 40 42 31 24 28 26 21 22 22 22 24
36 35 32 26 24 22 22 23 24 25 26 24 22 22 23 25 26 27 27 28 29 30 33 37 39 39 40 37 35 28 33 27 26 30 26 20 23 23 22 23 23 24 24 25
31 37 34 34 29 25 23 24 25 25 25 25 24 23 23 24 26 27 29 29 30 30 31 34 37 39 38 39 39 32 28 29 32 29 20 21 21 22 23 25 25 26 27 28
24 35 37 35 36 34 29 25 25 26 28 28 24 24 26 27 29 30 31 33 35 35 35 37 39 39 35 37 34 34 29 33 32 33 26 25 24 23 23 26 28 29 31 32
20 29 39 38 38 37 36 35 32 29 29 29 25 23 24 26 28 31 33 35 35 38 40 40 40 37 38 38 40 39 29 29 31 29 24 24 23 24 24 26 27 31 33 34
33 22 33 41 39 39 40 38 37 37 36 34 32 26 25 26 26 29 34 37 39 39 40 39 37 36 37 40 39 24 22 22 22 23 24 24 25 25 26 28 31 34 37 39
47 34 28 37 41 40 40 40 39 38 35 35 34 32 33 32 33 34 35 38 41 42 42 42 41 40 43 43 40 22 21 22 23 24 25 25 24 25 25 27 30 32 34 36
57 46 39 36 39 38 37 38 39 39 38 39 41 34 31 34 36 38 39 41 42 45 45 46 46 44 47 45 29 26 26 26 25 25 26 27 27 29 30 28 29 31 33 34
63 54 50 49 43 39 31 34 37 40 42 38 36 34 32 34 36 38 41 41 45 44 46 47 45 45 44 29 28 26 25 23 23 25 26 26 28 30 31 33 32 30 29 30
70 65 61 59 52 45 39 33 37 40 42 44 37 32 36 33 36 39 40 45 48 48 46 47 49 41 30 26 24 21 20 21 20 23 26 27 27 29 28 28 31 33 35 36
78 75 69 66 61 57 54 49 44 45 44 38 36 36 40 36 41 42 40 43 45 48 43 45 44 38 27 19 16 17 18 16 18 20 24 26 26 27 28 29 30 31 32 34
88 79 80 75 67 60 60 63 56 51 44 38 35 35 40 41 42 43 45 43 44 46 42 46 42 27 19 17 17 17 17 19 22 24 23 28 28 27 28 29 30 31 32 33
97 91 85 81 76 73 65 64 63 59 46 38 38 40 39 41 41 43 45 49 48 43 47 41 29 20 17 17 17 18 18 23 24 24 26 29 30 28 28 31 31 32 33 33
98 95 89 83 75 66 61 61 61 55 50 47 42 40 39 42 45 46 47 45 46 50 49 35 25 18 16 17 16 17 20 23 22 25 28 28 31 30 28 31 37 39 39 38
98 94 88 71 64 62 62 63 56 53 52 49 48 48 44 45 47 49 48 49 49 44 36 29 20 17 18 18 18 18 20 23 24 28 32 34 35 35 37 38 39 38 38 38
98 94 80 69 71 72 72 71 69 66 65 61 58 57 55 51 49 52 48 48 43 35 33 25 21 20 21 22 22 24 28 30 31 33 33 35 36 39 41 41 42 42 41 39
96 82 77 74 71 74 72 70 67 70 70 65 58 57 56 58 60 56 48 47 37 31 29 27 25 24 26 29 31 32 34 36 37 38 38 38 41 41 40 39 43 45 43 39

GFSNW_prec_cthk_099.txt.gz
RH
26 30 34 38 41 41 44 38 43 42 41 41 51 56 57 55 54 53 51 52 57 64 69 74 80 79 79 82 83 83 80 78 77 64 62 62 61 66 71 80 81 88 88 86
23 24 28 33 35 36 37 36 41 40 38 46 48 48 53 56 57 59 61 63 68 73 77 76 76 77 74 75 76 76 73 71 69 51 49 49 51 54 58 62 65 67 74 76
22 23 23 25 30 31 31 34 42 39 39 46 50 54 58 60 63 64 66 68 68 69 69 67 66 62 60 61 62 59 56 55 52 51 43 46 48 45 50 54 57 53 55 57
23 22 22 23 27 28 31 35 45 48 52 51 54 56 60 62 64 61 62 62 63 58 54 50 51 49 48 47 46 49 49 47 46 42 42 43 43 41 41 48 45 44 41 50
22 22 21 21 23 26 29 34 38 41 47 48 50 52 56 57 55 54 53 52 49 46 46 45 44 44 39 38 39 40 43 44 42 42 36 38 39 37 39 41 42 42 42 41
22 22 21 21 20 21 23 27 31 32 36 39 39 42 40 41 41 41 42 43 41 38 38 38 38 37 36 36 35 35 38 41 43 39 32 34 33 28 32 34 34 33 38 30
22 22 21 21 21 21 22 21 23 25 32 33 34 34 33 33 35 35 33 33 33 32 33 33 34 35 36 36 35 35 35 39 43 44 31 27 18 24 26 29 29 30 30 30
20 22 23 22 21 20 21 22 21 21 27 28 29 29 30 30 31 33 33 31 30 29 27 26 26 29 27 31 32 36 35 37 40 41 41 22 19 22 27 28 22 24 28 30
21 21 22 23 22 21 21 23 24 23 22 23 24 28 30 29 29 28 26 26 26 27 27 26 26 26 28 28 28 32 35 37 39 42 35 23 16 24 26 26 24 21 26 30
32 24 21 22 22 22 22 23 24 25 22 21 22 25 26 26 28 28 25 26 27 27 28 30 33 34 32 34 32 27 32 37 41 41 42 29 21 25 26 24 16 22 24 26
26 34 30 21 22 23 23 23 25 25 24 22 21 22 22 25 27 28 27 27 29 29 30 33 34 38 34 36 31 28 28 34 39 41 43 30 22 26 23 19 20 21 23 24
22 28 35 30 25 22 22 24 26 27 26 24 23 22 23 24 24 26 27 27 30 31 33 34 37 38 39 36 33 29 32 26 26 29 25 20 22 21 21 21 21 22 22 23
31 26 30 35 33 31 25 24 25 25 26 22 22 22 23 24 25 28 29 29 30 32 34 36 38 39 38 39 40 32 27 28 32 30 22 24 24 25 25 27 28 29 30 31
49 34 28 32 36 36 34 32 30 29 28 28 22 21 23 24 26 28 30 31 32 32 35 38 40 40 36 36 32 32 25 28 28 29 23 22 20 20 21 21 24 28 30 31
54 49 41 31 32 36 37 37 36 36 36 35 28 24 21 21 24 26 27 29 32 35 36 38 39 38 38 37 36 35 24 23 24 23 19 20 19 19 20 20 21 23 25 27
59 52 50 46 39 35 35 38 38 39 39 39 37 30 30 30 30 31 32 30 33 35 38 39 38 36 37 40 40 25 24 23 23 24 24 24 24 23 23 23 23 25 27 28
65 56 52 52 52 46 41 38 38 38 36 38 36 31 33 33 33 33 35 37 40 43 44 45 44 44 47 45 42 25 24 24 25 25 26 25 24 24 25 25 26 26 29 32
71 61 54 52 57 57 50 44 44 43 41 37 41 34 28 33 37 38 40 41 42 44 44 46 46 46 48 45 28 25 25 25 25 23 24 25 26 26 26 26 28 29 29 32
74 66 59 57 59 57 54 51 48 48 47 42 37 34 29 30 34 37 39 40 43 43 45 46 47 46 44 29 26 25 24 24 22 21 23 23 24 26 25 26 29 31 30 31
78 70 64 62 61 61 60 58 59 56 53 53 44 33 33 30 34 37 39 43 47 48 45 47 48 37 26 25 24 25 24 22 21 21 20 19 23 27 27 29 30 30 32 32
83 75 70 69 69 65 63 62 62 63 63 58 52 48 44 38 39 40 40 45 47 50 46 48 45 39 27 22 19 19 20 19 18 18 20 22 27 29 28 29 30 32 30 31
86 82 79 77 72 69 67 66 62 61 58 57 60 54 56 56 48 44 45 46 49 50 44 48 44 29 23 21 19 17 17 17 18 23 25 26 27 29 29 28 30 31 33 34
92 90 89 83 80 75 69 64 64 65 60 58 58 57 54 58 57 54 50 47 46 43 48 43 31 22 18 17 16 16 18 20 22 24 23 25 29 32 31 30 31 34 36 39
94 95 93 88 79 67 60 61 63 60 60 62 59 63 60 60 61 58 55 50 48 50 51 39 29 21 17 16 16 17 18 18 21 24 26 30 34 36 37 38 38 40 42 43
96 96 91 76 66 63 60 62 64 65 66 66 64 63 60 62 62 58 59 60 59 50 39 31 23 19 19 19 19 20 22 23 25 28 31 33 35 38 39 40 40 40 41 41
91 94 84 68 71 71 70 76 77 75 75 76 70 67 67 64 61 63 61 59 55 45 40 32 28 25 24 23 24 24 26 28 31 35 37 38 39 40 42 42 42 42 43 42
95 76 74 72 67 66 71 78 77 79 81 83 81 80 74 71 72 68 59 60 46 38 37 38 35 31 29 28 30 32 33 34 38 40 42 42 41 44 46 45 44 44 45 45

GFSNW_prec_cthk_102.txt.gz
RH
24 26 28 30 30 35 34 30 38 38 35 38 45 49 51 51 51 53 54 56 60 62 66 69 70 71 72 75 75 73 69 65 68 59 58 57 56 55 55 62 68 66 71 69
22 22 23 26 26 25 30 31 35 38 37 48 48 49 51 53 54 56 58 62 64 67 68 68 69 68 67 67 67 63 60 57 56 44 43 44 43 45 46 50 53 53 54 49
21 22 23 24 24 25 26 30 41 40 41 47 50 54 58 58 60 60 61 62 61 61 61 60 58 56 56 56 54 51 49 46 42 37 34 37 39 38 39 44 49 41 39 39
21 20 21 23 24 26 28 32 41 44 48 46 48 49 54 57 58 55 53 50 51 49 46 45 44 44 42 43 42 43 44 44 40 35 34 36 36 35 35 40 37 38 30 34
19 20 19 19 20 21 24 29 35 37 41 43 42 41 47 48 49 48 44 42 40 38 37 38 37 38 35 34 36 38 41 43 38 38 30 33 34 31 31 31 32 35 32 31
20 19 20 20 19 20 20 21 23 25 28 29 29 33 33 34 35 34 35 35 33 32 33 34 33 33 33 33 34 34 36 38 38 34 27 27 25 21 24 26 27 28 31 25
20 20 19 20 20 20 20 21 20 20 23 23 23 25 26 27 29 31 29 30 29 29 30 28 28 30 32 34 34 35 34 35 38 39 29 29 17 22 23 24 25 26 26 27
21 20 19 19 19 20 20 21 21 21 20 23 24 25 24 25 25 26 27 27 27 26 25 24 22 24 26 28 32 34 35 35 36 36 30 18 16 19 22 23 19 20 23 25
26 24 20 20 19 19 20 21 23 22 22 19 21 24 26 23 23 23 22 23 24 24 24 25 25 21 24 24 26 31 36 38 38 37 33 17 14 21 23 24 21 18 20 21
18 29 30 22 19 17 18 20 22 23 24 20 21 22 23 24 25 23 24 25 27 26 26 26 26 26 29 26 26 30 34 36 38 38 34 22 18 22 25 23 14 18 20 22
28 21 28 33 27 20 18 18 20 24 24 22 22 22 23 24 26 25 26 27 28 29 28 28 28 31 29 32 27 26 26 29 32 36 40 34 24 29 25 21 22 24 27 28
54 39 27 30 31 31 27 20 19 20 22 23 23 23 23 23 24 25 26 26 28 28 29 31 32 30 32 30 25 27 28 23 23 25 21 18 20 20 21 21 22 23 24 25
61 54 50 36 34 33 32 31 28 25 21 19 20 21 23 24 26 28 30 28 28 29 30 31 33 32 31 30 30 27 23 22 23 21 15 16 17 18 19 21 22 23 25 26
65 56 52 52 47 39 39 35 33 31 30 31 25 20 21 23 24 26 29 29 29 30 32 34 34 32 29 28 25 23 19 21 20 21 17 18 20 20 20 20 20 21 23 26
63 61 54 49 51 53 49 44 40 36 33 33 31 28 28 29 28 26 29 34 36 35 35 36 37 35 35 32 33 29 25 23 25 22 20 21 21 21 22 22 23 23 24 24
64 64 57 52 48 52 54 53 50 48 43 38 33 27 28 29 29 30 33 35 36 39 41 41 41 41 42 40 35 25 26 25 24 23 22 23 23 24 25 26 26 25 26 26
65 65 63 57 52 53 54 53 54 52 49 49 44 39 30 28 31 33 35 37 39 40 43 43 41 42 45 42 32 25 26 26 26 25 25 26 24 25 26 28 28 26 28 29
69 70 67 60 55 56 57 53 54 55 57 54 52 48 44 40 33 31 33 37 39 41 42 42 42 43 44 41 25 26 28 28 26 26 25 24 23 24 27 27 29 29 30 31
69 72 70 62 59 60 62 59 56 56 55 54 50 49 48 49 48 43 39 37 41 42 41 41 42 39 39 25 23 26 27 27 26 26 25 23 23 20 22 26 28 29 31 32
78 78 72 62 64 62 63 63 63 61 61 58 52 48 48 49 54 53 51 49 45 47 39 43 44 36 24 22 21 21 22 23 24 24 22 21 20 19 22 26 28 28 29 30
81 77 79 76 74 73 68 67 66 65 62 56 53 52 51 49 51 52 51 56 55 55 48 46 41 35 23 21 20 18 16 19 19 18 17 17 19 21 24 25 28 30 32 33
82 78 83 84 79 76 72 68 65 64 62 58 62 60 57 55 54 53 56 55 56 57 54 55 46 26 21 21 19 17 15 14 14 15 17 19 21 22 26 27 29 32 36 37
73 84 85 83 83 80 70 65 64 66 60 61 64 66 64 64 61 61 56 61 60 56 59 53 41 28 23 20 18 17 17 18 19 20 20 21 23 25 31 33 34 35 39 41
60 81 83 76 76 72 64 60 60 61 66 67 69 69 69 69 69 66 68 62 59 60 60 52 41 34 28 24 22 22 22 22 22 24 25 26 29 34 36 38 40 41 43 47
74 62 75 61 56 59 62 64 66 70 70 71 72 70 70 73 73 70 67 65 63 55 48 42 38 36 29 27 28 28 29 29 28 28 30 31 33 36 38 40 41 43 46 49
70 67 59 55 59 61 68 72 75 77 79 84 82 81 80 78 75 74 71 64 58 50 49 45 50 40 31 30 31 34 35 35 35 34 35 36 40 42 43 43 44 47 50 54
83 70 41 40 45 49 62 69 78 84 89 92 90 93 87 84 82 72 67 65 56 56 57 55 49 42 37 34 34 39 46 47 47 48 46 47 59 62 63 62 55 54 55 57

GFSNW_prec_cthk_105.txt.gz
RH
22 23 23 23 23 25 25 29 36 36 36 39 44 50 51 50 49 51 52 52 54 57 60 61 61 63 67 71 71 70 65 61 62 54 52 51 52 51 48 56 60 54 55 53
20 23 23 23 22 25 28 33 35 37 43 52 49 47 48 51 52 55 56 60 62 64 64 64 65 64 64 65 65 61 55 53 52 42 40 40 43 41 42 43 48 47 47 40
17 19 23 24 25 25 27 33 41 42 45 49 50 51 54 55 57 57 58 60 61 61 60 58 57 56 55 53 51 47 45 43 41 41 37 35 36 36 36 39 46 38 34 29
16 17 18 21 23 25 27 34 37 40 45 43 45 46 49 49 49 47 46 46 46 44 42 40 40 40 39 41 40 39 39 40 38 32 28 28 29 30 32 38 35 35 26 26
16 16 16 17 19 20 21 27 30 31 31 31 33 34 38 38 38 37 34 34 34 32 32 33 32 33 31 30 33 35 36 38 33 34 24 26 27 25 25 27 29 29 27 24
17 16 16 16 17 18 20 20 21 23 22 24 24 24 25 27 28 27 27 27 26 26 27 28 28 29 28 28 27 29 31 32 35 34 25 24 22 17 19 21 22 22 26 22
17 17 16 16 17 17 18 19 20 23 21 23 23 24 24 25 26 26 26 25 25 25 24 23 22 24 26 27 28 30 32 35 38 40 30 34 18 17 19 19 20 21 22 22
20 19 17 17 16 17 18 18 20 23 23 21 23 24 26 25 24 25 25 26 25 24 22 22 21 25 26 28 31 33 34 36 39 41 29 20 15 18 20 21 17 19 21 21
15 22 25 18 17 17 17 17 18 20 22 22 21 23 25 24 23 22 22 23 23 25 24 24 25 19 22 24 27 29 35 37 39 33 35 20 17 19 21 22 22 18 19 20
45 22 22 30 26 19 17 18 19 19 20 19 19 21 21 22 24 24 24 25 27 26 27 27 25 25 27 26 27 34 35 37 41 41 40 28 20 22 23 24 21 18 19 20
59 48 37 25 27 30 27 22 20 22 23 20 18 18 20 21 21 21 26 25 28 29 29 26 27 27 27 27 23 22 24 29 34 33 33 35 19 22 19 18 18 20 21 21
62 57 49 47 44 27 28 30 29 26 24 22 19 19 19 19 20 22 24 26 27 27 27 27 28 27 28 23 20 22 23 17 18 18 18 17 16 16 17 18 20 21 22 23
60 61 55 49 47 49 46 39 31 31 31 28 26 22 21 19 20 20 22 25 24 27 27 28 29 29 26 26 24 21 19 17 19 17 13 14 16 17 19 21 21 22 23 22
63 57 58 54 49 46 49 49 49 46 39 35 28 23 24 23 25 28 30 28 25 26 29 32 32 29 26 24 22 24 20 23 22 21 20 20 20 20 21 21 21 21 21 22
66 62 59 55 51 48 49 49 50 52 52 51 43 35 29 29 30 31 31 32 33 34 36 36 35 32 33 29 31 28 26 26 28 24 23 23 22 21 21 22 22 22 23 23
65 66 61 60 56 52 49 52 54 53 54 53 53 48 45 44 40 33 32 35 39 41 41 39 36 35 34 33 27 20 21 24 24 23 23 23 23 22 23 23 23 24 25 25
65 64 64 63 56 53 54 54 52 51 51 50 49 45 45 45 50 50 47 44 42 40 41 38 35 36 38 36 26 18 20 21 23 23 24 24 23 24 23 22 23 24 26 26
67 65 64 62 62 57 55 54 55 56 56 55 55 50 44 47 48 51 53 53 53 52 50 47 42 39 41 36 20 19 20 22 24 24 24 24 25 23 21 20 21 23 25 26
61 64 64 64 59 55 58 59 58 57 59 59 56 54 54 46 50 52 53 55 57 55 55 55 50 48 43 24 23 20 21 23 23 23 25 27 26 24 21 21 21 24 27 28
59 64 69 68 64 65 62 60 62 64 63 63 56 54 53 51 53 55 54 56 55 56 51 53 54 47 32 25 24 24 24 24 25 26 27 27 25 23 24 23 21 26 29 31
60 68 72 73 73 72 68 68 66 65 64 58 56 57 56 56 57 58 55 59 57 59 54 54 51 48 36 31 28 27 27 23 21 23 24 24 23 22 22 23 27 29 33 35
58 60 64 73 78 75 72 70 68 66 62 58 59 61 63 62 60 60 61 62 58 60 55 55 51 42 37 34 30 27 24 21 17 18 19 20 20 22 23 24 29 32 36 38
60 64 67 65 72 72 72 71 70 68 63 63 62 63 65 66 68 68 68 71 65 58 58 52 44 38 36 34 33 31 26 23 22 22 23 22 23 25 27 30 34 36 38 40
56 69 67 59 59 65 58 58 63 65 68 73 73 75 76 79 79 76 77 71 71 70 66 55 45 37 34 34 32 29 26 26 29 29 29 30 30 30 32 34 37 40 43 46
64 64 60 49 42 39 47 57 60 60 63 71 78 82 80 81 83 80 78 74 74 65 61 54 47 43 42 40 38 36 37 34 33 32 33 35 37 36 36 38 39 41 47 52
66 68 54 45 48 45 45 43 45 52 63 73 82 86 89 88 87 84 76 77 73 67 65 57 50 49 46 44 45 44 42 42 39 38 42 52 59 57 50 49 53 64 67 62
68 52 34 35 36 35 37 40 44 51 66 82 85 88 90 91 90 81 74 71 69 66 66 65 64 65 62 54 51 48 49 49 47 47 48 56 63 67 65 60 59 74 79 77

GFSNW_prec_cthk_108.txt.gz
RH
20 21 22 22 26 29 32 31 38 36 37 41 46 51 49 49 51 52 53 53 54 55 53 54 56 60 62 64 64 65 60 64 70 63 56 52 52 51 53 60 65 60 55 50
17 20 22 22 23 25 29 36 39 43 44 55 54 53 55 56 56 57 57 58 57 57 57 60 61 61 61 61 61 60 54 55 58 47 43 41 40 38 40 41 47 51 57 44
15 16 18 21 23 23 25 34 41 42 44 48 51 53 54 55 56 55 54 54 55 54 52 51 50 50 48 46 45 42 40 40 42 50 39 34 36 35 36 39 52 42 39 31
15 15 15 16 18 20 23 29 33 37 42 40 40 39 42 43 43 42 40 38 37 36 36 34 35 33 34 35 35 34 34 37 35 33 29 28 28 28 32 36 33 39 25 28
15 15 14 15 16 16 17 23 27 25 25 27 29 28 30 31 30 32 29 29 28 29 29 30 30 29 29 28 32 33 33 36 31 34 25 26 28 26 25 26 30 31 29 27
16 15 15 14 14 15 17 19 20 24 22 23 24 25 25 26 27 26 26 26 27 26 27 26 26 26 26 26 26 28 30 35 37 38 30 30 29 20 21 22 22 24 30 22
17 18 15 15 14 14 15 17 19 23 23 22 24 24 24 25 26 29 26 25 25 27 23 21 21 23 24 27 29 30 33 35 39 46 36 43 21 18 18 20 19 22 22 21
24 17 23 16 15 14 15 16 18 21 24 21 22 22 23 22 22 23 23 24 23 23 22 25 25 30 29 29 30 33 34 37 44 52 43 28 19 21 22 23 20 18 20 22
49 31 17 25 24 15 14 15 16 19 21 23 20 20 21 22 21 22 22 21 21 23 25 26 28 27 25 29 33 31 37 39 46 43 43 34 20 19 19 20 24 19 18 19
59 52 40 24 21 25 23 21 17 17 20 19 18 19 23 23 22 22 22 22 24 24 29 31 30 31 27 29 28 38 40 42 46 47 46 32 20 19 19 18 18 15 15 15
58 60 54 47 38 27 23 24 25 25 26 20 18 18 19 20 21 23 25 25 28 28 29 28 29 30 27 26 21 25 30 36 40 40 41 39 19 19 17 14 15 16 16 17
61 57 57 55 51 50 42 36 28 26 26 25 25 24 22 22 22 25 26 26 27 27 28 26 26 27 25 24 27 19 23 18 22 24 24 16 16 14 15 15 16 18 19 18
62 61 58 55 52 51 52 51 48 43 36 27 27 25 25 25 24 23 26 28 29 28 26 28 28 31 27 29 25 21 20 18 22 20 14 15 16 17 17 19 20 20 20 20
62 63 61 58 55 51 48 49 49 52 53 55 42 37 31 28 26 24 26 28 33 34 32 32 34 34 27 28 24 22 21 21 24 24 20 19 19 19 20 20 20 20 21 20
61 60 62 62 58 54 50 49 50 50 52 55 52 50 48 45 42 40 38 36 36 36 37 38 39 35 35 31 31 26 21 19 24 21 19 20 19 20 21 21 21 22 22 22
64 62 62 64 63 57 51 51 50 49 52 49 50 48 46 45 45 45 45 46 45 44 47 48 45 42 38 37 34 20 18 18 19 19 20 20 21 22 22 23 23 24 24 24
67 67 61 65 62 60 58 55 53 51 52 53 51 48 48 45 46 48 51 50 51 53 54 52 49 48 48 49 40 23 19 20 21 22 22 22 23 24 24 24 25 24 22 23
65 64 64 64 62 60 60 60 55 54 56 54 55 50 46 46 49 50 52 52 53 53 52 54 56 54 55 54 37 33 26 24 22 24 27 26 26 25 26 26 24 22 19 21
55 60 63 60 58 58 59 61 62 59 59 61 58 54 55 48 48 50 51 55 55 55 56 54 54 53 51 39 35 32 30 30 28 26 24 27 28 27 27 27 24 22 21 21
58 62 66 60 56 59 62 62 61 63 64 62 59 56 58 52 53 56 55 57 57 57 55 54 55 46 38 33 33 35 36 37 36 31 28 28 28 30 29 24 24 23 21 22
49 56 59 58 57 58 63 68 67 67 66 63 62 61 62 60 61 61 58 62 60 60 60 59 56 47 38 35 35 34 32 31 33 32 31 30 28 27 26 25 24 23 26 26
55 56 53 52 50 54 56 63 65 67 66 64 66 66 68 68 66 65 65 65 63 63 60 60 57 43 38 38 36 34 31 28 27 28 29 28 26 24 24 25 26 29 30 33
48 50 57 51 48 52 60 62 62 62 61 61 63 63 63 66 68 71 75 75 70 64 66 62 53 45 41 38 38 34 31 32 32 30 31 31 29 28 30 31 31 34 37 38
55 52 50 44 47 55 46 43 47 50 58 65 70 71 75 78 81 83 90 83 80 80 77 66 54 44 39 38 38 33 32 36 37 34 34 33 34 35 36 36 39 42 42 41
49 56 49 47 41 36 37 43 48 51 56 58 62 61 60 69 82 86 88 88 85 79 73 63 52 51 53 51 49 46 45 45 45 44 44 46 48 49 51 54 63 71 68 66
53 47 40 41 39 36 35 36 41 50 55 62 63 67 74 67 65 75 70 73 68 61 66 59 59 63 65 67 67 59 52 51 51 51 50 51 54 55 54 56 60 67 82 84
47 36 28 30 34 35 37 41 45 49 57 65 69 72 65 73 79 75 69 62 51 54 53 60 67 68 70 69 71 76 73 59 49 53 54 54 56 59 60 58 62 72 88 95

GFSNW_prec_cthk_111.txt.gz
RH
19 19 20 24 26 31 35 35 42 44 43 44 49 54 53 53 54 52 52 52 52 50 47 51 55 55 56 58 59 62 59 62 69 60 56 55 53 50 50 59 61 58 58 45
16 17 19 20 21 25 29 35 40 45 49 54 57 56 58 60 60 60 58 59 60 61 61 63 62 62 59 59 58 58 51 53 57 50 45 40 42 41 41 42 45 48 54 39
15 14 15 17 18 20 24 30 36 36 39 44 47 49 50 52 52 52 52 53 52 51 49 46 45 45 43 43 43 40 38 43 41 45 36 35 39 35 36 40 51 41 40 32
13 13 14 15 15 16 19 21 27 32 34 33 35 36 38 38 39 37 36 35 37 38 36 34 35 35 36 35 36 34 34 38 34 33 32 32 32 31 32 40 34 41 28 28
12 12 13 14 14 14 16 19 22 21 21 25 25 25 28 30 30 30 28 27 27 27 29 30 31 29 29 31 34 32 33 34 34 35 28 31 33 29 28 29 32 33 30 27
21 13 12 12 13 13 14 16 18 20 20 23 24 25 25 25 26 25 24 25 25 25 25 23 22 24 26 29 30 32 35 38 38 35 33 31 26 23 23 24 23 24 32 19
29 24 16 12 12 13 14 15 18 21 22 21 21 22 22 24 24 26 25 24 25 26 23 21 22 25 25 25 29 31 34 37 41 44 37 35 17 20 20 23 20 22 22 21
53 33 26 23 15 12 14 15 17 19 23 21 21 21 21 21 23 24 23 23 23 23 22 24 26 32 31 32 32 33 35 39 42 48 49 30 19 20 19 21 16 17 18 16
54 54 43 26 26 22 16 14 15 17 20 20 20 19 20 22 23 24 23 23 22 22 26 27 28 29 26 31 35 35 37 40 43 47 44 35 15 16 17 18 16 12 15 16
53 54 54 52 37 25 23 23 22 20 21 19 19 19 22 22 22 22 22 23 24 24 29 31 31 31 27 26 29 37 40 42 47 49 50 34 18 17 18 14 10 12 14 15
56 53 53 53 54 53 42 30 23 22 24 22 22 21 20 21 22 21 23 23 28 29 30 31 30 31 27 27 25 31 33 40 44 47 51 40 18 19 16 12 14 14 15 16
58 58 54 53 50 52 53 53 51 45 34 24 21 24 24 23 24 25 25 22 24 26 31 32 29 29 28 28 26 23 27 24 30 31 28 19 20 19 18 18 19 19 19 19
58 59 59 54 54 52 49 50 51 52 52 51 46 40 35 29 26 26 26 24 23 26 27 31 32 33 29 30 29 24 21 21 23 22 15 17 18 19 20 21 21 22 23 23
61 58 59 60 57 54 52 50 49 51 50 52 47 50 51 51 47 41 41 38 36 34 33 34 37 36 27 28 24 25 22 22 22 22 16 17 17 20 20 21 22 22 23 24
65 64 58 59 59 57 54 51 49 48 50 50 48 47 48 48 47 46 48 50 52 50 51 51 53 49 45 38 36 30 28 23 26 21 17 19 18 20 22 22 23 23 23 24
66 67 64 62 60 58 57 53 52 49 49 48 49 45 45 44 45 41 45 48 48 50 50 52 50 48 48 51 54 40 33 30 28 25 22 21 20 21 22 23 24 25 26 26
60 63 65 66 64 61 60 57 53 55 55 53 51 47 48 46 46 47 47 48 50 51 53 53 52 52 53 53 55 35 34 33 34 32 30 27 25 25 25 25 26 26 27 27
54 57 62 64 63 59 57 59 61 59 58 58 57 52 49 48 49 50 51 51 51 53 53 54 55 54 55 52 41 35 34 32 31 31 33 33 32 31 31 30 28 27 28 27
50 54 58 58 57 57 59 59 58 59 59 62 60 58 55 51 51 52 54 56 58 58 58 58 56 55 54 43 38 36 34 36 36 35 35 36 37 35 34 33 32 31 30 26
56 60 61 66 63 63 62 59 60 59 60 60 58 60 62 57 58 57 58 60 59 61 59 59 60 51 42 39 39 36 35 35 32 33 35 36 35 36 35 36 38 35 30 25
55 55 53 53 53 52 52 54 56 60 60 57 58 56 58 57 60 61 63 66 64 64 63 64 61 54 44 41 38 36 36 35 31 32 31 31 31 31 31 33 33 33 29 29
62 58 58 52 48 52 55 61 62 60 59 59 59 57 59 61 61 62 65 65 63 62 61 64 61 51 44 43 38 37 34 34 33 32 31 32 33 34 35 35 35 35 34 31
60 57 53 51 52 56 60 60 57 58 56 56 57 57 60 57 56 58 64 69 67 64 66 63 57 47 43 41 41 39 33 32 34 34 34 33 33 35 36 35 34 33 32 33
56 60 58 52 53 51 47 47 49 50 54 55 60 62 61 62 65 68 74 66 67 72 70 61 56 48 51 51 53 55 55 49 41 41 44 45 48 50 50 49 52 55 58 65
56 54 54 49 45 46 46 46 47 51 55 58 61 61 60 60 64 66 65 62 61 60 56 51 49 53 56 61 65 66 65 62 62 61 55 52 52 53 56 57 57 56 58 62
50 47 46 47 41 37 36 38 41 45 46 48 52 61 63 65 67 64 63 65 56 36 31 39 47 51 56 63 61 59 61 63 67 68 67 66 61 57 58 62 60 63 64 66
44 38 33 35 33 31 32 36 36 40 43 54 62 69 66 67 68 63 57 46 28 30 39 46 50 57 64 64 56 50 49 52 62 68 71 73 76 73 72 74 79 77 74 73

GFSNW_prec_cthk_114.txt.gz
RH
18 20 20 21 27 33 35 39 44 47 47 48 52 53 51 50 50 50 50 50 50 51 49 51 53 51 51 52 52 57 56 58 64 57 53 54 55 56 53 58 55 56 55 41
15 16 19 20 19 22 28 32 36 39 42 51 55 54 57 59 61 61 60 63 64 63 62 61 61 61 60 59 58 57 51 54 57 52 47 44 47 45 43 43 45 47 53 35
13 14 16 17 18 19 21 25 30 30 33 37 39 42 44 45 46 48 49 50 51 52 49 48 49 49 48 47 47 45 42 46 43 43 37 39 41 38 40 42 50 43 39 30
13 12 14 15 16 18 20 19 23 24 27 26 27 30 31 32 33 33 32 33 35 35 35 34 35 37 36 36 36 35 35 39 36 33 32 33 33 32 34 40 35 39 24 29
22 13 11 13 14 15 17 19 20 21 22 23 23 23 24 25 26 26 25 25 27 27 28 28 30 29 31 33 36 34 34 33 34 34 27 31 34 29 28 30 32 34 30 28
33 26 15 10 12 13 14 17 20 21 21 23 23 23 23 24 25 24 23 24 24 25 24 24 23 24 26 29 32 34 36 38 39 37 32 33 27 24 25 28 27 26 34 20
47 38 28 21 11 10 12 15 18 22 22 23 22 22 23 23 24 25 25 24 24 24 24 22 23 26 27 27 30 33 37 39 43 45 37 30 16 19 20 24 21 22 20 17
50 46 45 34 25 17 11 11 14 17 22 23 22 22 22 22 23 24 23 24 24 23 22 25 25 31 31 34 34 34 36 40 43 48 49 28 16 20 21 21 17 15 16 14
49 50 47 48 44 28 21 19 16 14 15 16 19 22 21 22 22 23 24 25 23 23 25 26 26 24 25 30 36 35 38 40 43 47 46 31 14 16 17 17 14 11 13 14
49 50 50 46 48 50 43 27 18 20 23 21 21 19 18 21 22 22 21 23 24 24 28 30 31 31 26 28 30 37 41 44 47 49 51 36 19 18 19 16 11 12 14 16
46 54 54 52 47 47 50 52 50 41 27 19 21 23 23 24 24 22 23 23 25 28 28 30 29 31 27 27 25 33 35 43 47 48 52 41 20 21 20 17 16 17 18 19
49 50 56 56 54 49 46 48 49 50 52 50 47 39 26 23 25 26 25 22 25 24 29 31 30 30 31 29 24 25 28 24 30 32 27 18 19 17 17 18 19 20 21 21
50 50 52 58 58 57 54 49 47 48 48 46 45 48 47 45 44 43 40 33 32 31 29 30 32 32 31 33 32 25 21 23 26 24 17 18 17 17 17 17 19 20 21 22
56 54 54 56 60 60 57 55 50 46 46 49 44 46 48 49 49 49 48 46 46 49 51 50 49 47 40 43 40 41 34 31 30 31 26 23 21 20 19 20 21 22 22 23
61 61 62 61 61 61 59 56 52 51 50 49 46 45 45 45 44 45 46 49 49 49 50 52 52 49 47 45 46 48 42 40 40 36 33 32 32 30 28 25 25 26 25 25
65 64 64 63 64 65 65 58 55 53 53 51 49 46 46 46 45 45 44 46 49 50 50 51 49 49 49 51 51 39 38 37 36 35 34 33 32 32 32 32 30 30 30 30
65 61 64 60 61 65 67 64 60 58 54 55 52 50 50 49 47 47 49 49 50 52 54 55 55 54 55 56 54 41 38 38 37 34 33 32 33 35 35 35 36 36 36 35
62 61 62 59 61 60 59 59 62 63 62 62 61 58 56 54 53 53 54 54 55 55 56 57 57 55 58 58 45 42 40 37 33 32 34 35 34 35 37 39 39 38 37 36
62 63 65 62 56 57 57 58 59 61 61 63 63 61 60 59 60 58 58 59 62 62 64 62 60 58 58 48 46 42 39 40 38 36 33 34 37 37 39 40 40 38 37 38
68 63 67 63 59 59 60 59 57 57 56 58 57 58 58 54 56 59 60 61 60 60 61 60 61 55 45 41 39 39 37 35 34 34 31 30 30 31 32 34 35 37 37 36
70 67 65 65 66 61 60 60 63 64 64 63 61 60 57 55 55 56 57 61 59 61 60 62 59 50 40 37 37 34 32 30 30 32 31 31 32 33 34 36 37 37 37 38
72 71 72 69 65 67 69 69 70 67 62 61 62 60 59 60 59 58 61 61 60 64 60 62 58 47 40 41 39 38 40 42 37 32 32 33 34 37 39 38 37 36 37 38
67 68 67 66 68 73 71 69 71 69 63 62 62 61 61 61 59 56 56 60 61 58 63 61 51 41 41 44 45 48 51 53 53 54 54 51 50 49 48 45 44 48 50 52
65 70 69 64 66 60 59 60 60 59 61 59 59 61 60 60 60 61 67 65 66 70 69 51 45 40 46 51 57 55 56 59 57 55 59 64 62 59 57 53 59 61 63 64
64 65 65 61 56 59 61 62 62 62 61 60 61 63 61 62 61 61 62 63 62 62 47 44 41 46 46 53 63 59 50 45 39 43 46 53 59 60 57 65 71 73 73 71
59 59 59 53 53 50 54 56 56 55 52 51 53 56 54 54 57 59 58 60 53 34 33 31 29 31 41 42 41 52 51 46 41 38 40 43 47 52 55 66 72 74 75 75
57 53 48 45 43 42 47 47 49 49 52 55 57 62 54 57 63 60 54 41 29 27 28 25 25 39 46 43 38 36 42 39 34 32 34 36 42 46 48 54 62 65 60 70

GFSNW_prec_cthk_117.txt.gz
RH
16 18 20 22 24 29 32 36 42 45 46 49 53 55 50 49 47 46 48 52 53 57 57 58 59 54 55 51 50 52 52 55 59 53 50 51 51 54 52 56 52 56 56 44
14 15 17 19 21 23 25 30 32 34 35 44 50 52 55 58 60 61 61 59 55 52 52 54 54 55 55 56 58 57 54 57 60 54 52 53 54 49 48 46 47 48 51 29
14 13 15 16 18 20 23 25 28 26 27 29 31 34 37 39 40 43 47 51 53 53 53 52 55 54 53 52 51 49 46 47 42 37 31 38 42 38 40 43 49 43 39 29
28 15 13 14 15 18 21 21 25 27 28 26 26 26 27 28 28 28 29 29 30 31 33 33 35 36 36 36 36 35 33 34 36 33 32 33 32 32 37 41 36 41 26 28
32 32 17 12 13 15 18 19 21 22 24 26 26 25 26 25 25 24 23 23 25 24 25 24 27 27 28 28 33 32 32 32 33 35 28 32 35 32 33 35 38 39 37 32
42 33 36 22 12 13 15 17 19 19 23 24 25 26 26 26 27 26 26 26 25 26 24 24 24 25 26 27 32 35 36 38 38 37 30 33 29 28 27 29 28 28 36 20
40 45 36 36 30 14 12 14 17 19 20 23 23 23 24 25 26 27 27 26 26 25 27 24 25 27 28 29 32 35 38 39 42 45 36 26 16 19 21 24 22 22 21 17
39 40 46 41 37 37 23 17 15 15 18 19 21 21 22 22 22 23 24 25 25 25 24 26 26 32 34 37 37 37 38 40 43 46 46 26 15 19 21 21 15 16 17 15
36 40 42 45 46 42 38 33 21 20 20 19 20 20 20 20 20 21 22 23 23 22 25 26 24 22 26 33 38 38 39 41 42 46 44 24 13 17 19 18 15 12 15 16
37 40 41 46 46 47 49 47 43 35 24 20 21 22 23 21 22 23 22 23 26 24 26 27 28 28 25 28 31 39 43 45 48 50 50 36 22 18 19 18 14 16 18 18
41 42 45 44 48 49 48 47 48 50 49 46 41 36 28 25 24 23 23 24 26 29 29 29 29 31 29 29 26 33 36 43 46 48 52 37 19 20 19 17 16 18 18 18
45 44 46 49 48 48 52 51 50 47 46 47 46 48 47 45 36 32 31 28 26 25 30 31 30 30 32 29 25 28 31 29 32 33 29 20 21 20 20 21 22 21 20 20
47 47 50 50 51 50 52 55 54 50 47 45 44 45 45 46 49 50 49 49 46 42 41 43 46 45 42 43 44 41 38 34 36 32 31 33 33 32 32 32 31 29 27 24
52 52 52 55 56 55 55 52 50 49 50 52 46 44 46 46 46 47 49 48 47 49 50 49 50 49 44 43 40 41 39 39 39 39 36 33 32 33 32 32 31 30 30 31
59 60 58 60 60 62 61 58 53 54 56 55 53 51 48 48 47 46 47 47 47 48 48 50 52 50 50 48 49 48 43 41 40 39 38 37 35 33 33 33 33 32 33 33
60 62 59 59 62 61 62 60 58 58 61 56 54 52 55 53 51 47 47 48 50 50 51 52 52 51 51 53 54 41 41 41 42 42 41 38 33 31 32 34 34 35 34 34
61 60 58 58 61 60 62 61 61 59 60 60 60 56 55 56 53 50 50 50 50 51 53 56 56 57 56 57 57 45 45 46 45 42 41 38 34 34 35 36 34 36 38 38
63 62 61 64 61 59 59 59 59 58 57 61 64 62 60 60 60 59 59 60 59 60 59 59 59 59 61 62 52 49 47 42 38 38 40 40 34 30 30 34 35 37 39 40
66 60 58 62 63 64 63 62 59 58 57 60 62 63 60 58 59 59 60 62 64 63 65 63 60 57 57 48 43 38 36 34 29 27 28 28 29 28 27 27 29 31 31 33
71 70 67 66 70 72 67 66 64 61 61 61 58 61 62 57 58 59 60 62 62 61 60 59 59 52 44 39 32 29 29 30 32 32 30 28 27 28 28 30 33 34 35 38
76 73 71 73 73 71 66 65 67 70 69 66 65 65 66 64 63 62 63 65 64 62 60 60 58 52 40 33 35 40 43 45 44 42 40 37 35 33 33 33 35 37 37 38
76 74 74 73 71 71 73 73 75 76 75 74 77 74 72 71 68 65 65 65 64 64 61 62 57 43 36 41 45 49 47 45 47 47 47 47 46 45 46 45 44 44 47 54
73 70 71 69 72 76 72 72 75 78 74 75 75 74 74 73 71 71 69 67 64 61 65 59 46 39 40 45 46 48 52 51 49 47 45 45 42 44 46 47 45 47 54 65
73 72 71 70 74 68 70 70 71 72 75 76 75 76 76 75 71 69 73 69 70 72 71 52 43 42 46 53 53 49 44 40 38 37 39 43 42 38 38 41 41 40 38 46
66 66 70 70 64 66 68 71 74 78 79 76 76 74 70 70 70 70 73 74 70 67 51 43 43 47 50 49 46 41 35 33 30 24 23 26 29 29 27 28 29 37 43 46
63 62 64 58 61 59 66 76 82 83 78 72 68 66 63 58 59 64 62 61 54 36 36 42 47 47 43 36 35 29 24 28 34 33 30 28 28 27 25 25 30 33 38 41
63 59 54 55 54 54 57 61 64 66 66 66 67 70 65 63 66 64 57 47 32 31 34 33 32 28 21 19 23 29 31 32 36 35 32 29 26 26 26 24 28 36 37 40